<?xml version="1.0" encoding="UTF-8" standalone="no" ?>
<gpx xmlns="http://www.topografix.com/GPX/1/1" xmlns:xsi="http://www.w3.org/2001/XMLSchema-instance" xsi:schemaLocation="http://www.topografix.com/GPX/1/1 http://www.topografix.com/GPX/1/1/gpx.xsd" version="1.1" creator="VisuGPX - https://www.visugpx.com">
  <metadata>
    <name>Boucle sur le HT de Dommartin </name>
  </metadata>
  <trk>
    <name><![CDATA[Enregistré le 24 sept. 2022 16:15:13]]></name>
    <trkseg>
      <trkpt lat="45.83337" lon="4.70909">
        <ele>259.1069</ele>
        <time>2022-09-24T14:15:15.000Z</time>
      </trkpt>
      <trkpt lat="45.83331" lon="4.7091">
        <ele>278.52112</ele>
        <time>2022-09-24T14:15:18.000Z</time>
      </trkpt>
      <trkpt lat="45.83332" lon="4.70906">
        <ele>284.61124</ele>
        <time>2022-09-24T14:15:18.436Z</time>
      </trkpt>
      <trkpt lat="45.83333" lon="4.70901">
        <ele>284.92337</ele>
        <time>2022-09-24T14:15:20.000Z</time>
      </trkpt>
      <trkpt lat="45.83333" lon="4.70897">
        <ele>284.09686</ele>
        <time>2022-09-24T14:15:21.000Z</time>
      </trkpt>
      <trkpt lat="45.83334" lon="4.70893">
        <ele>283.03061</ele>
        <time>2022-09-24T14:15:22.000Z</time>
      </trkpt>
      <trkpt lat="45.83334" lon="4.70889">
        <ele>282.13608</ele>
        <time>2022-09-24T14:15:23.000Z</time>
      </trkpt>
      <trkpt lat="45.83334" lon="4.70885">
        <ele>281.42847</ele>
        <time>2022-09-24T14:15:24.000Z</time>
      </trkpt>
      <trkpt lat="45.83334" lon="4.70879">
        <ele>280.81879</ele>
        <time>2022-09-24T14:15:25.000Z</time>
      </trkpt>
      <trkpt lat="45.83333" lon="4.70872">
        <ele>280.38113</ele>
        <time>2022-09-24T14:15:26.000Z</time>
      </trkpt>
      <trkpt lat="45.83333" lon="4.70866">
        <ele>280.03879</ele>
        <time>2022-09-24T14:15:27.000Z</time>
      </trkpt>
      <trkpt lat="45.83334" lon="4.7086">
        <ele>279.66916</ele>
        <time>2022-09-24T14:15:28.000Z</time>
      </trkpt>
      <trkpt lat="45.83335" lon="4.70854">
        <ele>279.28015</ele>
        <time>2022-09-24T14:15:29.000Z</time>
      </trkpt>
      <trkpt lat="45.83337" lon="4.70848">
        <ele>278.98969</ele>
        <time>2022-09-24T14:15:30.000Z</time>
      </trkpt>
      <trkpt lat="45.83338" lon="4.70842">
        <ele>278.64944</ele>
        <time>2022-09-24T14:15:31.000Z</time>
      </trkpt>
      <trkpt lat="45.83339" lon="4.70836">
        <ele>278.43454</ele>
        <time>2022-09-24T14:15:32.000Z</time>
      </trkpt>
      <trkpt lat="45.83341" lon="4.70829">
        <ele>278.289</ele>
        <time>2022-09-24T14:15:33.000Z</time>
      </trkpt>
      <trkpt lat="45.83341" lon="4.70823">
        <ele>278.13419</ele>
        <time>2022-09-24T14:15:34.000Z</time>
      </trkpt>
      <trkpt lat="45.83342" lon="4.70816">
        <ele>278.00488</ele>
        <time>2022-09-24T14:15:35.000Z</time>
      </trkpt>
      <trkpt lat="45.83343" lon="4.7081">
        <ele>277.80649</ele>
        <time>2022-09-24T14:15:36.000Z</time>
      </trkpt>
      <trkpt lat="45.83344" lon="4.70804">
        <ele>278.58466</ele>
        <time>2022-09-24T14:15:37.000Z</time>
      </trkpt>
      <trkpt lat="45.83344" lon="4.70798">
        <ele>277.49969</ele>
        <time>2022-09-24T14:15:38.000Z</time>
      </trkpt>
      <trkpt lat="45.83342" lon="4.7079">
        <ele>277.75385</ele>
        <time>2022-09-24T14:15:39.000Z</time>
      </trkpt>
      <trkpt lat="45.83342" lon="4.70783">
        <ele>278.32779</ele>
        <time>2022-09-24T14:15:40.000Z</time>
      </trkpt>
      <trkpt lat="45.83342" lon="4.70777">
        <ele>278.98917</ele>
        <time>2022-09-24T14:15:41.000Z</time>
      </trkpt>
      <trkpt lat="45.83342" lon="4.7077">
        <ele>279.70767</ele>
        <time>2022-09-24T14:15:42.000Z</time>
      </trkpt>
      <trkpt lat="45.83344" lon="4.70763">
        <ele>280.36664</ele>
        <time>2022-09-24T14:15:43.000Z</time>
      </trkpt>
      <trkpt lat="45.83341" lon="4.7076">
        <ele>280.97943</ele>
        <time>2022-09-24T14:15:44.000Z</time>
      </trkpt>
      <trkpt lat="45.83341" lon="4.70754">
        <ele>281.56836</ele>
        <time>2022-09-24T14:15:45.000Z</time>
      </trkpt>
      <trkpt lat="45.8334" lon="4.70747">
        <ele>282.14362</ele>
        <time>2022-09-24T14:15:46.000Z</time>
      </trkpt>
      <trkpt lat="45.83341" lon="4.7074">
        <ele>282.72906</ele>
        <time>2022-09-24T14:15:47.000Z</time>
      </trkpt>
      <trkpt lat="45.83343" lon="4.70733">
        <ele>283.31085</ele>
        <time>2022-09-24T14:15:48.000Z</time>
      </trkpt>
      <trkpt lat="45.83344" lon="4.70727">
        <ele>283.91766</ele>
        <time>2022-09-24T14:15:49.000Z</time>
      </trkpt>
      <trkpt lat="45.83347" lon="4.70719">
        <ele>284.44547</ele>
        <time>2022-09-24T14:15:50.000Z</time>
      </trkpt>
      <trkpt lat="45.83346" lon="4.70712">
        <ele>285.03336</ele>
        <time>2022-09-24T14:15:51.000Z</time>
      </trkpt>
      <trkpt lat="45.83347" lon="4.70703">
        <ele>285.64801</ele>
        <time>2022-09-24T14:15:52.000Z</time>
      </trkpt>
      <trkpt lat="45.83347" lon="4.70697">
        <ele>286.17203</ele>
        <time>2022-09-24T14:15:53.000Z</time>
      </trkpt>
      <trkpt lat="45.83347" lon="4.70689">
        <ele>286.67484</ele>
        <time>2022-09-24T14:15:54.000Z</time>
      </trkpt>
      <trkpt lat="45.83349" lon="4.70681">
        <ele>287.12631</ele>
        <time>2022-09-24T14:15:55.000Z</time>
      </trkpt>
      <trkpt lat="45.8335" lon="4.70671">
        <ele>287.6485</ele>
        <time>2022-09-24T14:15:56.000Z</time>
      </trkpt>
      <trkpt lat="45.83351" lon="4.70662">
        <ele>288.21701</ele>
        <time>2022-09-24T14:15:57.000Z</time>
      </trkpt>
      <trkpt lat="45.8335" lon="4.70653">
        <ele>288.70428</ele>
        <time>2022-09-24T14:15:58.000Z</time>
      </trkpt>
      <trkpt lat="45.8335" lon="4.70642">
        <ele>288.11157</ele>
        <time>2022-09-24T14:15:59.000Z</time>
      </trkpt>
      <trkpt lat="45.83349" lon="4.70634">
        <ele>287.73056</ele>
        <time>2022-09-24T14:16:00.000Z</time>
      </trkpt>
      <trkpt lat="45.83346" lon="4.70626">
        <ele>287.51852</ele>
        <time>2022-09-24T14:16:01.000Z</time>
      </trkpt>
      <trkpt lat="45.83348" lon="4.70619">
        <ele>287.44479</ele>
        <time>2022-09-24T14:16:02.000Z</time>
      </trkpt>
      <trkpt lat="45.83353" lon="4.70614">
        <ele>287.4826</ele>
        <time>2022-09-24T14:16:03.000Z</time>
      </trkpt>
      <trkpt lat="45.83359" lon="4.70611">
        <ele>287.51578</ele>
        <time>2022-09-24T14:16:04.000Z</time>
      </trkpt>
      <trkpt lat="45.83367" lon="4.70612">
        <ele>287.56961</ele>
        <time>2022-09-24T14:16:05.000Z</time>
      </trkpt>
      <trkpt lat="45.83375" lon="4.70613">
        <ele>287.55707</ele>
        <time>2022-09-24T14:16:06.000Z</time>
      </trkpt>
      <trkpt lat="45.83381" lon="4.70613">
        <ele>287.57144</ele>
        <time>2022-09-24T14:16:07.000Z</time>
      </trkpt>
      <trkpt lat="45.83389" lon="4.70612">
        <ele>287.63147</ele>
        <time>2022-09-24T14:16:08.000Z</time>
      </trkpt>
      <trkpt lat="45.83394" lon="4.70614">
        <ele>287.65524</ele>
        <time>2022-09-24T14:16:09.000Z</time>
      </trkpt>
      <trkpt lat="45.834" lon="4.70616">
        <ele>287.72418</ele>
        <time>2022-09-24T14:16:10.000Z</time>
      </trkpt>
      <trkpt lat="45.83405" lon="4.70615">
        <ele>287.77716</ele>
        <time>2022-09-24T14:16:11.000Z</time>
      </trkpt>
      <trkpt lat="45.83411" lon="4.70616">
        <ele>287.76553</ele>
        <time>2022-09-24T14:16:12.000Z</time>
      </trkpt>
      <trkpt lat="45.83417" lon="4.70617">
        <ele>287.81247</ele>
        <time>2022-09-24T14:16:13.000Z</time>
      </trkpt>
      <trkpt lat="45.83422" lon="4.70618">
        <ele>287.91815</ele>
        <time>2022-09-24T14:16:14.000Z</time>
      </trkpt>
      <trkpt lat="45.83428" lon="4.70621">
        <ele>288.06042</ele>
        <time>2022-09-24T14:16:15.000Z</time>
      </trkpt>
      <trkpt lat="45.83432" lon="4.70621">
        <ele>288.16629</ele>
        <time>2022-09-24T14:16:16.000Z</time>
      </trkpt>
      <trkpt lat="45.83437" lon="4.70622">
        <ele>288.17096</ele>
        <time>2022-09-24T14:16:17.000Z</time>
      </trkpt>
      <trkpt lat="45.83444" lon="4.70625">
        <ele>288.18365</ele>
        <time>2022-09-24T14:16:18.000Z</time>
      </trkpt>
      <trkpt lat="45.8345" lon="4.70626">
        <ele>287.98544</ele>
        <time>2022-09-24T14:16:19.000Z</time>
      </trkpt>
      <trkpt lat="45.83454" lon="4.70626">
        <ele>287.75494</ele>
        <time>2022-09-24T14:16:20.000Z</time>
      </trkpt>
      <trkpt lat="45.8346" lon="4.70625">
        <ele>287.46542</ele>
        <time>2022-09-24T14:16:21.000Z</time>
      </trkpt>
      <trkpt lat="45.83466" lon="4.70625">
        <ele>287.1286</ele>
        <time>2022-09-24T14:16:22.000Z</time>
      </trkpt>
      <trkpt lat="45.83475" lon="4.70623">
        <ele>286.86334</ele>
        <time>2022-09-24T14:16:23.000Z</time>
      </trkpt>
      <trkpt lat="45.83482" lon="4.70622">
        <ele>286.72742</ele>
        <time>2022-09-24T14:16:24.000Z</time>
      </trkpt>
      <trkpt lat="45.8349" lon="4.70622">
        <ele>286.59674</ele>
        <time>2022-09-24T14:16:25.000Z</time>
      </trkpt>
      <trkpt lat="45.83498" lon="4.70621">
        <ele>286.50131</ele>
        <time>2022-09-24T14:16:26.000Z</time>
      </trkpt>
      <trkpt lat="45.83505" lon="4.7062">
        <ele>286.36627</ele>
        <time>2022-09-24T14:16:27.000Z</time>
      </trkpt>
      <trkpt lat="45.83513" lon="4.70618">
        <ele>286.3316</ele>
        <time>2022-09-24T14:16:28.000Z</time>
      </trkpt>
      <trkpt lat="45.8352" lon="4.70619">
        <ele>286.36118</ele>
        <time>2022-09-24T14:16:29.000Z</time>
      </trkpt>
      <trkpt lat="45.83528" lon="4.70619">
        <ele>286.41907</ele>
        <time>2022-09-24T14:16:30.000Z</time>
      </trkpt>
      <trkpt lat="45.83535" lon="4.70618">
        <ele>286.46823</ele>
        <time>2022-09-24T14:16:31.000Z</time>
      </trkpt>
      <trkpt lat="45.83541" lon="4.70619">
        <ele>286.4256</ele>
        <time>2022-09-24T14:16:32.000Z</time>
      </trkpt>
      <trkpt lat="45.83547" lon="4.70618">
        <ele>286.37277</ele>
        <time>2022-09-24T14:16:33.000Z</time>
      </trkpt>
      <trkpt lat="45.83554" lon="4.70618">
        <ele>286.31281</ele>
        <time>2022-09-24T14:16:34.000Z</time>
      </trkpt>
      <trkpt lat="45.83561" lon="4.70617">
        <ele>286.33044</ele>
        <time>2022-09-24T14:16:35.000Z</time>
      </trkpt>
      <trkpt lat="45.83568" lon="4.70618">
        <ele>286.41656</ele>
        <time>2022-09-24T14:16:36.000Z</time>
      </trkpt>
      <trkpt lat="45.83573" lon="4.70618">
        <ele>286.5285</ele>
        <time>2022-09-24T14:16:37.000Z</time>
      </trkpt>
      <trkpt lat="45.83579" lon="4.70618">
        <ele>286.64996</ele>
        <time>2022-09-24T14:16:38.000Z</time>
      </trkpt>
      <trkpt lat="45.83585" lon="4.7062">
        <ele>287.09613</ele>
        <time>2022-09-24T14:16:39.000Z</time>
      </trkpt>
      <trkpt lat="45.83593" lon="4.70623">
        <ele>287.48294</ele>
        <time>2022-09-24T14:16:40.000Z</time>
      </trkpt>
      <trkpt lat="45.83599" lon="4.70626">
        <ele>287.85471</ele>
        <time>2022-09-24T14:16:41.000Z</time>
      </trkpt>
      <trkpt lat="45.83604" lon="4.70628">
        <ele>288.20599</ele>
        <time>2022-09-24T14:16:42.000Z</time>
      </trkpt>
      <trkpt lat="45.8361" lon="4.70631">
        <ele>288.44797</ele>
        <time>2022-09-24T14:16:43.000Z</time>
      </trkpt>
      <trkpt lat="45.83615" lon="4.70634">
        <ele>288.62607</ele>
        <time>2022-09-24T14:16:44.000Z</time>
      </trkpt>
      <trkpt lat="45.83619" lon="4.70638">
        <ele>288.81909</ele>
        <time>2022-09-24T14:16:45.000Z</time>
      </trkpt>
      <trkpt lat="45.83623" lon="4.70643">
        <ele>289.03693</ele>
        <time>2022-09-24T14:16:46.000Z</time>
      </trkpt>
      <trkpt lat="45.83626" lon="4.70649">
        <ele>289.27393</ele>
        <time>2022-09-24T14:16:47.000Z</time>
      </trkpt>
      <trkpt lat="45.83627" lon="4.70655">
        <ele>289.42325</ele>
        <time>2022-09-24T14:16:48.000Z</time>
      </trkpt>
      <trkpt lat="45.83629" lon="4.70662">
        <ele>289.52252</ele>
        <time>2022-09-24T14:16:49.000Z</time>
      </trkpt>
      <trkpt lat="45.8363" lon="4.70668">
        <ele>289.61359</ele>
        <time>2022-09-24T14:16:50.000Z</time>
      </trkpt>
      <trkpt lat="45.83633" lon="4.70674">
        <ele>289.78024</ele>
        <time>2022-09-24T14:16:51.000Z</time>
      </trkpt>
      <trkpt lat="45.83635" lon="4.7068">
        <ele>290.02548</ele>
        <time>2022-09-24T14:16:52.000Z</time>
      </trkpt>
      <trkpt lat="45.83638" lon="4.70686">
        <ele>290.29337</ele>
        <time>2022-09-24T14:16:53.000Z</time>
      </trkpt>
      <trkpt lat="45.8364" lon="4.7069">
        <ele>290.56985</ele>
        <time>2022-09-24T14:16:54.000Z</time>
      </trkpt>
      <trkpt lat="45.83642" lon="4.70696">
        <ele>290.70648</ele>
        <time>2022-09-24T14:16:55.000Z</time>
      </trkpt>
      <trkpt lat="45.83646" lon="4.707">
        <ele>290.89874</ele>
        <time>2022-09-24T14:16:56.000Z</time>
      </trkpt>
      <trkpt lat="45.83649" lon="4.70706">
        <ele>291.09137</ele>
        <time>2022-09-24T14:16:57.000Z</time>
      </trkpt>
      <trkpt lat="45.83652" lon="4.70711">
        <ele>291.23981</ele>
        <time>2022-09-24T14:16:58.000Z</time>
      </trkpt>
      <trkpt lat="45.83655" lon="4.70717">
        <ele>291.28305</ele>
        <time>2022-09-24T14:16:59.000Z</time>
      </trkpt>
      <trkpt lat="45.83657" lon="4.70722">
        <ele>291.34418</ele>
        <time>2022-09-24T14:17:00.000Z</time>
      </trkpt>
      <trkpt lat="45.83659" lon="4.70728">
        <ele>291.41479</ele>
        <time>2022-09-24T14:17:01.000Z</time>
      </trkpt>
      <trkpt lat="45.83662" lon="4.70734">
        <ele>291.54242</ele>
        <time>2022-09-24T14:17:02.000Z</time>
      </trkpt>
      <trkpt lat="45.83665" lon="4.70739">
        <ele>291.68365</ele>
        <time>2022-09-24T14:17:03.000Z</time>
      </trkpt>
      <trkpt lat="45.83667" lon="4.70745">
        <ele>291.81363</ele>
        <time>2022-09-24T14:17:04.000Z</time>
      </trkpt>
      <trkpt lat="45.8367" lon="4.70751">
        <ele>291.96057</ele>
        <time>2022-09-24T14:17:05.000Z</time>
      </trkpt>
      <trkpt lat="45.83672" lon="4.70757">
        <ele>292.06332</ele>
        <time>2022-09-24T14:17:06.000Z</time>
      </trkpt>
      <trkpt lat="45.83675" lon="4.70763">
        <ele>292.13159</ele>
        <time>2022-09-24T14:17:07.000Z</time>
      </trkpt>
      <trkpt lat="45.83677" lon="4.70769">
        <ele>292.18436</ele>
        <time>2022-09-24T14:17:08.000Z</time>
      </trkpt>
      <trkpt lat="45.8368" lon="4.70776">
        <ele>292.31821</ele>
        <time>2022-09-24T14:17:09.000Z</time>
      </trkpt>
      <trkpt lat="45.83683" lon="4.70782">
        <ele>292.43903</ele>
        <time>2022-09-24T14:17:10.000Z</time>
      </trkpt>
      <trkpt lat="45.83685" lon="4.70788">
        <ele>292.51144</ele>
        <time>2022-09-24T14:17:11.000Z</time>
      </trkpt>
      <trkpt lat="45.83688" lon="4.70795">
        <ele>292.55963</ele>
        <time>2022-09-24T14:17:12.000Z</time>
      </trkpt>
      <trkpt lat="45.83691" lon="4.70801">
        <ele>292.54477</ele>
        <time>2022-09-24T14:17:13.000Z</time>
      </trkpt>
      <trkpt lat="45.83694" lon="4.70808">
        <ele>292.51202</ele>
        <time>2022-09-24T14:17:14.000Z</time>
      </trkpt>
      <trkpt lat="45.83697" lon="4.70814">
        <ele>292.51801</ele>
        <time>2022-09-24T14:17:15.000Z</time>
      </trkpt>
      <trkpt lat="45.837" lon="4.7082">
        <ele>292.41333</ele>
        <time>2022-09-24T14:17:16.000Z</time>
      </trkpt>
      <trkpt lat="45.83703" lon="4.70827">
        <ele>292.32593</ele>
        <time>2022-09-24T14:17:17.000Z</time>
      </trkpt>
      <trkpt lat="45.83706" lon="4.70834">
        <ele>292.25421</ele>
        <time>2022-09-24T14:17:18.000Z</time>
      </trkpt>
      <trkpt lat="45.83709" lon="4.70842">
        <ele>291.97983</ele>
        <time>2022-09-24T14:17:19.000Z</time>
      </trkpt>
      <trkpt lat="45.83711" lon="4.70848">
        <ele>291.784</ele>
        <time>2022-09-24T14:17:20.000Z</time>
      </trkpt>
      <trkpt lat="45.83715" lon="4.70855">
        <ele>291.67542</ele>
        <time>2022-09-24T14:17:21.000Z</time>
      </trkpt>
      <trkpt lat="45.83718" lon="4.70862">
        <ele>291.55878</ele>
        <time>2022-09-24T14:17:22.000Z</time>
      </trkpt>
      <trkpt lat="45.83721" lon="4.70867">
        <ele>291.53992</ele>
        <time>2022-09-24T14:17:23.000Z</time>
      </trkpt>
      <trkpt lat="45.83724" lon="4.70873">
        <ele>291.54025</ele>
        <time>2022-09-24T14:17:24.000Z</time>
      </trkpt>
      <trkpt lat="45.83726" lon="4.7088">
        <ele>291.48322</ele>
        <time>2022-09-24T14:17:25.000Z</time>
      </trkpt>
      <trkpt lat="45.8373" lon="4.70886">
        <ele>291.49805</ele>
        <time>2022-09-24T14:17:26.000Z</time>
      </trkpt>
      <trkpt lat="45.83733" lon="4.70893">
        <ele>291.54437</ele>
        <time>2022-09-24T14:17:27.000Z</time>
      </trkpt>
      <trkpt lat="45.83737" lon="4.70899">
        <ele>291.64917</ele>
        <time>2022-09-24T14:17:28.000Z</time>
      </trkpt>
      <trkpt lat="45.8374" lon="4.70905">
        <ele>291.69415</ele>
        <time>2022-09-24T14:17:29.000Z</time>
      </trkpt>
      <trkpt lat="45.83742" lon="4.70912">
        <ele>291.74875</ele>
        <time>2022-09-24T14:17:30.000Z</time>
      </trkpt>
      <trkpt lat="45.83745" lon="4.70919">
        <ele>291.80084</ele>
        <time>2022-09-24T14:17:31.000Z</time>
      </trkpt>
      <trkpt lat="45.83749" lon="4.70927">
        <ele>291.84644</ele>
        <time>2022-09-24T14:17:32.000Z</time>
      </trkpt>
      <trkpt lat="45.83752" lon="4.70934">
        <ele>291.93381</ele>
        <time>2022-09-24T14:17:33.000Z</time>
      </trkpt>
      <trkpt lat="45.83755" lon="4.70941">
        <ele>292.00641</ele>
        <time>2022-09-24T14:17:34.000Z</time>
      </trkpt>
      <trkpt lat="45.83757" lon="4.70949">
        <ele>292.05252</ele>
        <time>2022-09-24T14:17:35.000Z</time>
      </trkpt>
      <trkpt lat="45.83761" lon="4.70956">
        <ele>292.06903</ele>
        <time>2022-09-24T14:17:36.000Z</time>
      </trkpt>
      <trkpt lat="45.83764" lon="4.70962">
        <ele>292.07745</ele>
        <time>2022-09-24T14:17:37.000Z</time>
      </trkpt>
      <trkpt lat="45.83769" lon="4.70969">
        <ele>292.12781</ele>
        <time>2022-09-24T14:17:38.000Z</time>
      </trkpt>
      <trkpt lat="45.83772" lon="4.70976">
        <ele>292.25098</ele>
        <time>2022-09-24T14:17:39.000Z</time>
      </trkpt>
      <trkpt lat="45.83776" lon="4.70984">
        <ele>292.35684</ele>
        <time>2022-09-24T14:17:40.000Z</time>
      </trkpt>
      <trkpt lat="45.83779" lon="4.70992">
        <ele>292.42755</ele>
        <time>2022-09-24T14:17:41.000Z</time>
      </trkpt>
      <trkpt lat="45.8378" lon="4.70998">
        <ele>292.48605</ele>
        <time>2022-09-24T14:17:42.000Z</time>
      </trkpt>
      <trkpt lat="45.8378" lon="4.71005">
        <ele>292.53662</ele>
        <time>2022-09-24T14:17:43.000Z</time>
      </trkpt>
      <trkpt lat="45.83777" lon="4.71011">
        <ele>292.55826</ele>
        <time>2022-09-24T14:17:44.000Z</time>
      </trkpt>
      <trkpt lat="45.83774" lon="4.71017">
        <ele>292.57373</ele>
        <time>2022-09-24T14:17:45.000Z</time>
      </trkpt>
      <trkpt lat="45.8377" lon="4.71022">
        <ele>292.48792</ele>
        <time>2022-09-24T14:17:46.000Z</time>
      </trkpt>
      <trkpt lat="45.83766" lon="4.71027">
        <ele>292.32904</ele>
        <time>2022-09-24T14:17:47.000Z</time>
      </trkpt>
      <trkpt lat="45.83763" lon="4.71032">
        <ele>292.10623</ele>
        <time>2022-09-24T14:17:48.000Z</time>
      </trkpt>
      <trkpt lat="45.8376" lon="4.71038">
        <ele>291.89838</ele>
        <time>2022-09-24T14:17:49.000Z</time>
      </trkpt>
      <trkpt lat="45.83757" lon="4.71043">
        <ele>291.64301</ele>
        <time>2022-09-24T14:17:50.000Z</time>
      </trkpt>
      <trkpt lat="45.83753" lon="4.71049">
        <ele>291.36041</ele>
        <time>2022-09-24T14:17:51.000Z</time>
      </trkpt>
      <trkpt lat="45.83751" lon="4.71054">
        <ele>291.08771</ele>
        <time>2022-09-24T14:17:52.000Z</time>
      </trkpt>
      <trkpt lat="45.83747" lon="4.7106">
        <ele>290.82672</ele>
        <time>2022-09-24T14:17:53.000Z</time>
      </trkpt>
      <trkpt lat="45.83744" lon="4.71066">
        <ele>290.61285</ele>
        <time>2022-09-24T14:17:54.000Z</time>
      </trkpt>
      <trkpt lat="45.83741" lon="4.71072">
        <ele>290.47742</ele>
        <time>2022-09-24T14:17:55.000Z</time>
      </trkpt>
      <trkpt lat="45.83738" lon="4.71078">
        <ele>290.39896</ele>
        <time>2022-09-24T14:17:56.000Z</time>
      </trkpt>
      <trkpt lat="45.83734" lon="4.71083">
        <ele>290.30417</ele>
        <time>2022-09-24T14:17:57.000Z</time>
      </trkpt>
      <trkpt lat="45.83732" lon="4.71088">
        <ele>290.22134</ele>
        <time>2022-09-24T14:17:58.000Z</time>
      </trkpt>
      <trkpt lat="45.83729" lon="4.71093">
        <ele>290.13037</ele>
        <time>2022-09-24T14:17:59.000Z</time>
      </trkpt>
      <trkpt lat="45.83726" lon="4.71098">
        <ele>290.10056</ele>
        <time>2022-09-24T14:18:00.000Z</time>
      </trkpt>
      <trkpt lat="45.83721" lon="4.71103">
        <ele>290.05911</ele>
        <time>2022-09-24T14:18:01.000Z</time>
      </trkpt>
      <trkpt lat="45.83717" lon="4.7111">
        <ele>290.03156</ele>
        <time>2022-09-24T14:18:02.000Z</time>
      </trkpt>
      <trkpt lat="45.83715" lon="4.71115">
        <ele>289.90723</ele>
        <time>2022-09-24T14:18:03.000Z</time>
      </trkpt>
      <trkpt lat="45.83713" lon="4.7112">
        <ele>289.7807</ele>
        <time>2022-09-24T14:18:04.000Z</time>
      </trkpt>
      <trkpt lat="45.8371" lon="4.71125">
        <ele>289.70844</ele>
        <time>2022-09-24T14:18:05.000Z</time>
      </trkpt>
      <trkpt lat="45.83708" lon="4.71132">
        <ele>289.74426</ele>
        <time>2022-09-24T14:18:06.000Z</time>
      </trkpt>
      <trkpt lat="45.83706" lon="4.71138">
        <ele>289.84143</ele>
        <time>2022-09-24T14:18:07.000Z</time>
      </trkpt>
      <trkpt lat="45.83704" lon="4.71142">
        <ele>289.94257</ele>
        <time>2022-09-24T14:18:08.000Z</time>
      </trkpt>
      <trkpt lat="45.83701" lon="4.71146">
        <ele>290.06635</ele>
        <time>2022-09-24T14:18:09.000Z</time>
      </trkpt>
      <trkpt lat="45.83698" lon="4.7115">
        <ele>290.16562</ele>
        <time>2022-09-24T14:18:10.000Z</time>
      </trkpt>
      <trkpt lat="45.83697" lon="4.71154">
        <ele>290.33356</ele>
        <time>2022-09-24T14:18:11.000Z</time>
      </trkpt>
      <trkpt lat="45.83696" lon="4.7116">
        <ele>290.51691</ele>
        <time>2022-09-24T14:18:12.000Z</time>
      </trkpt>
      <trkpt lat="45.83695" lon="4.71167">
        <ele>290.67847</ele>
        <time>2022-09-24T14:18:13.000Z</time>
      </trkpt>
      <trkpt lat="45.83692" lon="4.71173">
        <ele>290.79697</ele>
        <time>2022-09-24T14:18:14.000Z</time>
      </trkpt>
      <trkpt lat="45.8369" lon="4.71181">
        <ele>290.92719</ele>
        <time>2022-09-24T14:18:15.000Z</time>
      </trkpt>
      <trkpt lat="45.83689" lon="4.71187">
        <ele>291.03314</ele>
        <time>2022-09-24T14:18:16.000Z</time>
      </trkpt>
      <trkpt lat="45.83687" lon="4.71193">
        <ele>291.16476</ele>
        <time>2022-09-24T14:18:17.000Z</time>
      </trkpt>
      <trkpt lat="45.83684" lon="4.71199">
        <ele>291.1658</ele>
        <time>2022-09-24T14:18:18.000Z</time>
      </trkpt>
      <trkpt lat="45.83682" lon="4.71205">
        <ele>291.09695</ele>
        <time>2022-09-24T14:18:19.000Z</time>
      </trkpt>
      <trkpt lat="45.83681" lon="4.71213">
        <ele>290.96255</ele>
        <time>2022-09-24T14:18:20.000Z</time>
      </trkpt>
      <trkpt lat="45.83679" lon="4.71219">
        <ele>290.76688</ele>
        <time>2022-09-24T14:18:21.000Z</time>
      </trkpt>
      <trkpt lat="45.83677" lon="4.71227">
        <ele>290.57278</ele>
        <time>2022-09-24T14:18:22.000Z</time>
      </trkpt>
      <trkpt lat="45.83675" lon="4.71234">
        <ele>290.43945</ele>
        <time>2022-09-24T14:18:23.000Z</time>
      </trkpt>
      <trkpt lat="45.83673" lon="4.71241">
        <ele>290.30072</ele>
        <time>2022-09-24T14:18:24.000Z</time>
      </trkpt>
      <trkpt lat="45.83672" lon="4.71247">
        <ele>290.17197</ele>
        <time>2022-09-24T14:18:25.000Z</time>
      </trkpt>
      <trkpt lat="45.83671" lon="4.71253">
        <ele>289.97519</ele>
        <time>2022-09-24T14:18:26.000Z</time>
      </trkpt>
      <trkpt lat="45.8367" lon="4.71259">
        <ele>289.81329</ele>
        <time>2022-09-24T14:18:27.000Z</time>
      </trkpt>
      <trkpt lat="45.83669" lon="4.71265">
        <ele>289.62393</ele>
        <time>2022-09-24T14:18:28.000Z</time>
      </trkpt>
      <trkpt lat="45.83667" lon="4.71271">
        <ele>289.42023</ele>
        <time>2022-09-24T14:18:29.000Z</time>
      </trkpt>
      <trkpt lat="45.83664" lon="4.71278">
        <ele>289.25824</ele>
        <time>2022-09-24T14:18:30.000Z</time>
      </trkpt>
      <trkpt lat="45.83663" lon="4.71284">
        <ele>289.07666</ele>
        <time>2022-09-24T14:18:31.000Z</time>
      </trkpt>
      <trkpt lat="45.83663" lon="4.71288">
        <ele>288.98016</ele>
        <time>2022-09-24T14:18:32.000Z</time>
      </trkpt>
      <trkpt lat="45.83661" lon="4.71294">
        <ele>288.85773</ele>
        <time>2022-09-24T14:18:33.000Z</time>
      </trkpt>
      <trkpt lat="45.8366" lon="4.713">
        <ele>288.79401</ele>
        <time>2022-09-24T14:18:34.000Z</time>
      </trkpt>
      <trkpt lat="45.83658" lon="4.71305">
        <ele>288.71674</ele>
        <time>2022-09-24T14:18:35.000Z</time>
      </trkpt>
      <trkpt lat="45.83658" lon="4.71311">
        <ele>288.74301</ele>
        <time>2022-09-24T14:18:36.000Z</time>
      </trkpt>
      <trkpt lat="45.83657" lon="4.71316">
        <ele>288.72147</ele>
        <time>2022-09-24T14:18:37.000Z</time>
      </trkpt>
      <trkpt lat="45.83656" lon="4.71322">
        <ele>288.80972</ele>
        <time>2022-09-24T14:18:38.000Z</time>
      </trkpt>
      <trkpt lat="45.83654" lon="4.71329">
        <ele>288.8761</ele>
        <time>2022-09-24T14:18:39.000Z</time>
      </trkpt>
      <trkpt lat="45.83652" lon="4.71335">
        <ele>288.87274</ele>
        <time>2022-09-24T14:18:40.000Z</time>
      </trkpt>
      <trkpt lat="45.8365" lon="4.7134">
        <ele>288.95026</ele>
        <time>2022-09-24T14:18:41.000Z</time>
      </trkpt>
      <trkpt lat="45.83649" lon="4.71346">
        <ele>288.98087</ele>
        <time>2022-09-24T14:18:42.000Z</time>
      </trkpt>
      <trkpt lat="45.83646" lon="4.7135">
        <ele>288.92841</ele>
        <time>2022-09-24T14:18:43.000Z</time>
      </trkpt>
      <trkpt lat="45.83643" lon="4.71352">
        <ele>288.88153</ele>
        <time>2022-09-24T14:18:45.000Z</time>
      </trkpt>
      <trkpt lat="45.83641" lon="4.71357">
        <ele>288.84613</ele>
        <time>2022-09-24T14:18:46.000Z</time>
      </trkpt>
      <trkpt lat="45.83641" lon="4.71361">
        <ele>288.81403</ele>
        <time>2022-09-24T14:18:47.000Z</time>
      </trkpt>
      <trkpt lat="45.83643" lon="4.71364">
        <ele>288.73123</ele>
        <time>2022-09-24T14:18:48.000Z</time>
      </trkpt>
      <trkpt lat="45.83643" lon="4.71367">
        <ele>288.71194</ele>
        <time>2022-09-24T14:18:49.000Z</time>
      </trkpt>
      <trkpt lat="45.83643" lon="4.71371">
        <ele>288.70447</ele>
        <time>2022-09-24T14:18:50.000Z</time>
      </trkpt>
      <trkpt lat="45.83642" lon="4.71375">
        <ele>288.65485</ele>
        <time>2022-09-24T14:18:51.000Z</time>
      </trkpt>
      <trkpt lat="45.83641" lon="4.7138">
        <ele>288.57111</ele>
        <time>2022-09-24T14:18:52.000Z</time>
      </trkpt>
      <trkpt lat="45.8364" lon="4.71385">
        <ele>288.42618</ele>
        <time>2022-09-24T14:18:53.000Z</time>
      </trkpt>
      <trkpt lat="45.83638" lon="4.7139">
        <ele>288.32745</ele>
        <time>2022-09-24T14:18:54.000Z</time>
      </trkpt>
      <trkpt lat="45.83637" lon="4.71395">
        <ele>288.16702</ele>
        <time>2022-09-24T14:18:55.000Z</time>
      </trkpt>
      <trkpt lat="45.83636" lon="4.71401">
        <ele>287.97452</ele>
        <time>2022-09-24T14:18:56.000Z</time>
      </trkpt>
      <trkpt lat="45.83635" lon="4.71406">
        <ele>287.75443</ele>
        <time>2022-09-24T14:18:57.000Z</time>
      </trkpt>
      <trkpt lat="45.83634" lon="4.71411">
        <ele>287.5834</ele>
        <time>2022-09-24T14:18:58.000Z</time>
      </trkpt>
      <trkpt lat="45.83633" lon="4.71417">
        <ele>287.49197</ele>
        <time>2022-09-24T14:18:59.000Z</time>
      </trkpt>
      <trkpt lat="45.83631" lon="4.71422">
        <ele>287.3923</ele>
        <time>2022-09-24T14:19:00.000Z</time>
      </trkpt>
      <trkpt lat="45.83631" lon="4.71427">
        <ele>287.40393</ele>
        <time>2022-09-24T14:19:01.000Z</time>
      </trkpt>
      <trkpt lat="45.8363" lon="4.71432">
        <ele>287.39627</ele>
        <time>2022-09-24T14:19:02.000Z</time>
      </trkpt>
      <trkpt lat="45.8363" lon="4.71436">
        <ele>287.40387</ele>
        <time>2022-09-24T14:19:03.000Z</time>
      </trkpt>
      <trkpt lat="45.83629" lon="4.7144">
        <ele>287.46204</ele>
        <time>2022-09-24T14:19:04.000Z</time>
      </trkpt>
      <trkpt lat="45.83629" lon="4.71445">
        <ele>287.54449</ele>
        <time>2022-09-24T14:19:05.000Z</time>
      </trkpt>
      <trkpt lat="45.83627" lon="4.71448">
        <ele>287.64249</ele>
        <time>2022-09-24T14:19:06.000Z</time>
      </trkpt>
      <trkpt lat="45.83626" lon="4.71452">
        <ele>287.84064</ele>
        <time>2022-09-24T14:19:07.000Z</time>
      </trkpt>
      <trkpt lat="45.83624" lon="4.71456">
        <ele>288.08389</ele>
        <time>2022-09-24T14:19:08.000Z</time>
      </trkpt>
      <trkpt lat="45.83622" lon="4.7146">
        <ele>288.2309</ele>
        <time>2022-09-24T14:19:09.000Z</time>
      </trkpt>
      <trkpt lat="45.83621" lon="4.71464">
        <ele>288.38141</ele>
        <time>2022-09-24T14:19:10.000Z</time>
      </trkpt>
      <trkpt lat="45.83619" lon="4.71469">
        <ele>288.61365</ele>
        <time>2022-09-24T14:19:11.000Z</time>
      </trkpt>
      <trkpt lat="45.83617" lon="4.71473">
        <ele>288.82449</ele>
        <time>2022-09-24T14:19:12.000Z</time>
      </trkpt>
      <trkpt lat="45.83614" lon="4.71478">
        <ele>289.00021</ele>
        <time>2022-09-24T14:19:13.000Z</time>
      </trkpt>
      <trkpt lat="45.83611" lon="4.71482">
        <ele>289.14227</ele>
        <time>2022-09-24T14:19:14.000Z</time>
      </trkpt>
      <trkpt lat="45.83608" lon="4.71486">
        <ele>289.1636</ele>
        <time>2022-09-24T14:19:15.000Z</time>
      </trkpt>
      <trkpt lat="45.83604" lon="4.7149">
        <ele>289.10077</ele>
        <time>2022-09-24T14:19:16.000Z</time>
      </trkpt>
      <trkpt lat="45.83601" lon="4.71493">
        <ele>288.98349</ele>
        <time>2022-09-24T14:19:17.000Z</time>
      </trkpt>
      <trkpt lat="45.836" lon="4.71496">
        <ele>288.81876</ele>
        <time>2022-09-24T14:19:18.000Z</time>
      </trkpt>
      <trkpt lat="45.836" lon="4.715">
        <ele>288.82266</ele>
        <time>2022-09-24T14:19:19.000Z</time>
      </trkpt>
      <trkpt lat="45.83601" lon="4.71505">
        <ele>288.80188</ele>
        <time>2022-09-24T14:19:20.000Z</time>
      </trkpt>
      <trkpt lat="45.83603" lon="4.71507">
        <ele>288.68689</ele>
        <time>2022-09-24T14:19:21.000Z</time>
      </trkpt>
      <trkpt lat="45.83605" lon="4.71509">
        <ele>288.59125</ele>
        <time>2022-09-24T14:19:22.000Z</time>
      </trkpt>
      <trkpt lat="45.83606" lon="4.71511">
        <ele>288.49475</ele>
        <time>2022-09-24T14:19:23.000Z</time>
      </trkpt>
      <trkpt lat="45.83608" lon="4.71515">
        <ele>288.34354</ele>
        <time>2022-09-24T14:19:25.000Z</time>
      </trkpt>
      <trkpt lat="45.83609" lon="4.71517">
        <ele>288.16754</ele>
        <time>2022-09-24T14:19:26.000Z</time>
      </trkpt>
      <trkpt lat="45.8361" lon="4.7152">
        <ele>287.92914</ele>
        <time>2022-09-24T14:19:27.000Z</time>
      </trkpt>
      <trkpt lat="45.83611" lon="4.71523">
        <ele>287.59766</ele>
        <time>2022-09-24T14:19:28.000Z</time>
      </trkpt>
      <trkpt lat="45.83613" lon="4.71527">
        <ele>287.18939</ele>
        <time>2022-09-24T14:19:29.000Z</time>
      </trkpt>
      <trkpt lat="45.83614" lon="4.7153">
        <ele>286.81107</ele>
        <time>2022-09-24T14:19:30.000Z</time>
      </trkpt>
      <trkpt lat="45.83615" lon="4.71534">
        <ele>286.48553</ele>
        <time>2022-09-24T14:19:31.000Z</time>
      </trkpt>
      <trkpt lat="45.83616" lon="4.71537">
        <ele>286.08539</ele>
        <time>2022-09-24T14:19:32.000Z</time>
      </trkpt>
      <trkpt lat="45.83617" lon="4.7154">
        <ele>285.74823</ele>
        <time>2022-09-24T14:19:33.000Z</time>
      </trkpt>
      <trkpt lat="45.83617" lon="4.71544">
        <ele>285.43805</ele>
        <time>2022-09-24T14:19:34.000Z</time>
      </trkpt>
      <trkpt lat="45.83616" lon="4.71546">
        <ele>285.11322</ele>
        <time>2022-09-24T14:19:35.000Z</time>
      </trkpt>
      <trkpt lat="45.83615" lon="4.71551">
        <ele>284.89719</ele>
        <time>2022-09-24T14:19:37.000Z</time>
      </trkpt>
      <trkpt lat="45.83615" lon="4.71556">
        <ele>284.76346</ele>
        <time>2022-09-24T14:19:39.000Z</time>
      </trkpt>
      <trkpt lat="45.83615" lon="4.71558">
        <ele>284.6344</ele>
        <time>2022-09-24T14:19:40.000Z</time>
      </trkpt>
      <trkpt lat="45.83615" lon="4.71562">
        <ele>284.55014</ele>
        <time>2022-09-24T14:19:41.000Z</time>
      </trkpt>
      <trkpt lat="45.83615" lon="4.71565">
        <ele>284.2283</ele>
        <time>2022-09-24T14:19:42.000Z</time>
      </trkpt>
      <trkpt lat="45.83616" lon="4.7157">
        <ele>284.00082</ele>
        <time>2022-09-24T14:19:44.000Z</time>
      </trkpt>
      <trkpt lat="45.83616" lon="4.71573">
        <ele>283.90079</ele>
        <time>2022-09-24T14:19:45.000Z</time>
      </trkpt>
      <trkpt lat="45.83617" lon="4.71578">
        <ele>283.71725</ele>
        <time>2022-09-24T14:19:47.000Z</time>
      </trkpt>
      <trkpt lat="45.83617" lon="4.71582">
        <ele>283.39505</ele>
        <time>2022-09-24T14:19:49.000Z</time>
      </trkpt>
      <trkpt lat="45.83617" lon="4.71586">
        <ele>283.20685</ele>
        <time>2022-09-24T14:19:51.000Z</time>
      </trkpt>
      <trkpt lat="45.83618" lon="4.71588">
        <ele>283.03784</ele>
        <time>2022-09-24T14:19:53.000Z</time>
      </trkpt>
      <trkpt lat="45.83619" lon="4.71592">
        <ele>282.86041</ele>
        <time>2022-09-24T14:19:55.000Z</time>
      </trkpt>
      <trkpt lat="45.83621" lon="4.71596">
        <ele>282.67993</ele>
        <time>2022-09-24T14:19:57.000Z</time>
      </trkpt>
      <trkpt lat="45.83622" lon="4.71601">
        <ele>282.61639</ele>
        <time>2022-09-24T14:19:59.000Z</time>
      </trkpt>
      <trkpt lat="45.83622" lon="4.71604">
        <ele>282.61002</ele>
        <time>2022-09-24T14:20:00.000Z</time>
      </trkpt>
      <trkpt lat="45.83623" lon="4.71608">
        <ele>282.46741</ele>
        <time>2022-09-24T14:20:02.000Z</time>
      </trkpt>
      <trkpt lat="45.83625" lon="4.71612">
        <ele>282.37006</ele>
        <time>2022-09-24T14:20:04.000Z</time>
      </trkpt>
      <trkpt lat="45.83626" lon="4.71617">
        <ele>282.21161</ele>
        <time>2022-09-24T14:20:06.000Z</time>
      </trkpt>
      <trkpt lat="45.83626" lon="4.7162">
        <ele>282.02887</ele>
        <time>2022-09-24T14:20:07.000Z</time>
      </trkpt>
      <trkpt lat="45.83627" lon="4.71624">
        <ele>281.83176</ele>
        <time>2022-09-24T14:20:09.000Z</time>
      </trkpt>
      <trkpt lat="45.83626" lon="4.71628">
        <ele>281.65256</ele>
        <time>2022-09-24T14:20:11.000Z</time>
      </trkpt>
      <trkpt lat="45.83627" lon="4.71632">
        <ele>281.48901</ele>
        <time>2022-09-24T14:20:13.000Z</time>
      </trkpt>
      <trkpt lat="45.83627" lon="4.71635">
        <ele>281.29254</ele>
        <time>2022-09-24T14:20:14.000Z</time>
      </trkpt>
      <trkpt lat="45.83627" lon="4.71638">
        <ele>281.08316</ele>
        <time>2022-09-24T14:20:15.000Z</time>
      </trkpt>
      <trkpt lat="45.83629" lon="4.71641">
        <ele>280.81741</ele>
        <time>2022-09-24T14:20:17.000Z</time>
      </trkpt>
      <trkpt lat="45.8363" lon="4.71638">
        <ele>280.54303</ele>
        <time>2022-09-24T14:20:19.000Z</time>
      </trkpt>
      <trkpt lat="45.83632" lon="4.7164">
        <ele>280.3363</ele>
        <time>2022-09-24T14:20:23.000Z</time>
      </trkpt>
      <trkpt lat="45.83634" lon="4.71642">
        <ele>280.22742</ele>
        <time>2022-09-24T14:20:24.000Z</time>
      </trkpt>
      <trkpt lat="45.83635" lon="4.71644">
        <ele>280.22885</ele>
        <time>2022-09-24T14:20:25.000Z</time>
      </trkpt>
      <trkpt lat="45.83637" lon="4.71646">
        <ele>280.04242</ele>
        <time>2022-09-24T14:20:26.000Z</time>
      </trkpt>
      <trkpt lat="45.83639" lon="4.71648">
        <ele>279.77972</ele>
        <time>2022-09-24T14:20:27.000Z</time>
      </trkpt>
      <trkpt lat="45.83641" lon="4.7165">
        <ele>279.54721</ele>
        <time>2022-09-24T14:20:28.000Z</time>
      </trkpt>
      <trkpt lat="45.83643" lon="4.71652">
        <ele>279.27032</ele>
        <time>2022-09-24T14:20:29.000Z</time>
      </trkpt>
      <trkpt lat="45.83645" lon="4.71653">
        <ele>278.82626</ele>
        <time>2022-09-24T14:20:30.000Z</time>
      </trkpt>
      <trkpt lat="45.83647" lon="4.71654">
        <ele>278.33856</ele>
        <time>2022-09-24T14:20:31.000Z</time>
      </trkpt>
      <trkpt lat="45.8365" lon="4.71655">
        <ele>277.91797</ele>
        <time>2022-09-24T14:20:32.000Z</time>
      </trkpt>
      <trkpt lat="45.83652" lon="4.71656">
        <ele>277.50162</ele>
        <time>2022-09-24T14:20:33.000Z</time>
      </trkpt>
      <trkpt lat="45.83654" lon="4.71657">
        <ele>277.12701</ele>
        <time>2022-09-24T14:20:34.000Z</time>
      </trkpt>
      <trkpt lat="45.83656" lon="4.71657">
        <ele>276.78256</ele>
        <time>2022-09-24T14:20:35.000Z</time>
      </trkpt>
      <trkpt lat="45.83659" lon="4.71657">
        <ele>276.48676</ele>
        <time>2022-09-24T14:20:36.000Z</time>
      </trkpt>
      <trkpt lat="45.83661" lon="4.71656">
        <ele>276.20566</ele>
        <time>2022-09-24T14:20:37.000Z</time>
      </trkpt>
      <trkpt lat="45.83664" lon="4.71656">
        <ele>275.91522</ele>
        <time>2022-09-24T14:20:38.000Z</time>
      </trkpt>
      <trkpt lat="45.83667" lon="4.71655">
        <ele>275.59824</ele>
        <time>2022-09-24T14:20:39.000Z</time>
      </trkpt>
      <trkpt lat="45.8367" lon="4.71653">
        <ele>275.18866</ele>
        <time>2022-09-24T14:20:40.000Z</time>
      </trkpt>
      <trkpt lat="45.83672" lon="4.71653">
        <ele>274.75565</ele>
        <time>2022-09-24T14:20:41.000Z</time>
      </trkpt>
      <trkpt lat="45.83674" lon="4.71652">
        <ele>274.27118</ele>
        <time>2022-09-24T14:20:42.000Z</time>
      </trkpt>
      <trkpt lat="45.83677" lon="4.7165">
        <ele>273.6492</ele>
        <time>2022-09-24T14:20:43.000Z</time>
      </trkpt>
      <trkpt lat="45.83679" lon="4.71649">
        <ele>272.9693</ele>
        <time>2022-09-24T14:20:44.000Z</time>
      </trkpt>
      <trkpt lat="45.83682" lon="4.71648">
        <ele>272.35638</ele>
        <time>2022-09-24T14:20:45.000Z</time>
      </trkpt>
      <trkpt lat="45.83684" lon="4.71648">
        <ele>271.87137</ele>
        <time>2022-09-24T14:20:46.000Z</time>
      </trkpt>
      <trkpt lat="45.83687" lon="4.71647">
        <ele>271.47668</ele>
        <time>2022-09-24T14:20:47.000Z</time>
      </trkpt>
      <trkpt lat="45.83689" lon="4.71646">
        <ele>271.10187</ele>
        <time>2022-09-24T14:20:48.000Z</time>
      </trkpt>
      <trkpt lat="45.83691" lon="4.71645">
        <ele>270.74664</ele>
        <time>2022-09-24T14:20:49.000Z</time>
      </trkpt>
      <trkpt lat="45.83693" lon="4.71646">
        <ele>270.43842</ele>
        <time>2022-09-24T14:20:50.000Z</time>
      </trkpt>
      <trkpt lat="45.837" lon="4.71658">
        <ele>269.87039</ele>
        <time>2022-09-24T14:20:55.000Z</time>
      </trkpt>
      <trkpt lat="45.83701" lon="4.71661">
        <ele>269.27731</ele>
        <time>2022-09-24T14:20:57.000Z</time>
      </trkpt>
      <trkpt lat="45.837" lon="4.71663">
        <ele>268.44669</ele>
        <time>2022-09-24T14:21:04.000Z</time>
      </trkpt>
      <trkpt lat="45.83702" lon="4.71667">
        <ele>267.47778</ele>
        <time>2022-09-24T14:21:52.000Z</time>
      </trkpt>
      <trkpt lat="45.83704" lon="4.71671">
        <ele>266.50974</ele>
        <time>2022-09-24T14:21:53.000Z</time>
      </trkpt>
      <trkpt lat="45.83706" lon="4.71676">
        <ele>265.76431</ele>
        <time>2022-09-24T14:21:54.000Z</time>
      </trkpt>
      <trkpt lat="45.83708" lon="4.71681">
        <ele>264.93076</ele>
        <time>2022-09-24T14:21:55.000Z</time>
      </trkpt>
      <trkpt lat="45.83711" lon="4.71686">
        <ele>264.07135</ele>
        <time>2022-09-24T14:21:56.000Z</time>
      </trkpt>
      <trkpt lat="45.83713" lon="4.71691">
        <ele>263.27545</ele>
        <time>2022-09-24T14:21:57.000Z</time>
      </trkpt>
      <trkpt lat="45.83715" lon="4.71694">
        <ele>262.62103</ele>
        <time>2022-09-24T14:21:58.000Z</time>
      </trkpt>
      <trkpt lat="45.83718" lon="4.71696">
        <ele>262.01874</ele>
        <time>2022-09-24T14:21:59.000Z</time>
      </trkpt>
      <trkpt lat="45.83721" lon="4.71697">
        <ele>261.33902</ele>
        <time>2022-09-24T14:22:00.000Z</time>
      </trkpt>
      <trkpt lat="45.83723" lon="4.71697">
        <ele>260.72607</ele>
        <time>2022-09-24T14:22:01.000Z</time>
      </trkpt>
      <trkpt lat="45.83725" lon="4.71696">
        <ele>260.14383</ele>
        <time>2022-09-24T14:22:02.000Z</time>
      </trkpt>
      <trkpt lat="45.83728" lon="4.71695">
        <ele>259.45105</ele>
        <time>2022-09-24T14:22:03.000Z</time>
      </trkpt>
      <trkpt lat="45.8373" lon="4.71695">
        <ele>258.81433</ele>
        <time>2022-09-24T14:22:04.000Z</time>
      </trkpt>
      <trkpt lat="45.83733" lon="4.71694">
        <ele>258.18549</ele>
        <time>2022-09-24T14:22:05.000Z</time>
      </trkpt>
      <trkpt lat="45.83735" lon="4.71694">
        <ele>257.57877</ele>
        <time>2022-09-24T14:22:06.000Z</time>
      </trkpt>
      <trkpt lat="45.83738" lon="4.71694">
        <ele>257.11542</ele>
        <time>2022-09-24T14:22:07.000Z</time>
      </trkpt>
      <trkpt lat="45.83741" lon="4.71695">
        <ele>256.69949</ele>
        <time>2022-09-24T14:22:08.000Z</time>
      </trkpt>
      <trkpt lat="45.83744" lon="4.71695">
        <ele>256.65741</ele>
        <time>2022-09-24T14:22:09.000Z</time>
      </trkpt>
      <trkpt lat="45.83746" lon="4.71696">
        <ele>256.63535</ele>
        <time>2022-09-24T14:22:10.000Z</time>
      </trkpt>
      <trkpt lat="45.83749" lon="4.71697">
        <ele>256.83344</ele>
        <time>2022-09-24T14:22:11.000Z</time>
      </trkpt>
      <trkpt lat="45.83752" lon="4.71697">
        <ele>257.15884</ele>
        <time>2022-09-24T14:22:12.000Z</time>
      </trkpt>
      <trkpt lat="45.83755" lon="4.71696">
        <ele>257.45975</ele>
        <time>2022-09-24T14:22:13.000Z</time>
      </trkpt>
      <trkpt lat="45.83757" lon="4.71695">
        <ele>257.55096</ele>
        <time>2022-09-24T14:22:14.000Z</time>
      </trkpt>
      <trkpt lat="45.83759" lon="4.71695">
        <ele>257.68793</ele>
        <time>2022-09-24T14:22:15.000Z</time>
      </trkpt>
      <trkpt lat="45.83763" lon="4.71696">
        <ele>257.8002</ele>
        <time>2022-09-24T14:22:17.000Z</time>
      </trkpt>
      <trkpt lat="45.83766" lon="4.71698">
        <ele>257.86169</ele>
        <time>2022-09-24T14:22:19.000Z</time>
      </trkpt>
      <trkpt lat="45.83769" lon="4.71698">
        <ele>257.88577</ele>
        <time>2022-09-24T14:22:21.000Z</time>
      </trkpt>
      <trkpt lat="45.83771" lon="4.71697">
        <ele>258.00507</ele>
        <time>2022-09-24T14:22:22.000Z</time>
      </trkpt>
      <trkpt lat="45.83773" lon="4.71697">
        <ele>258.21185</ele>
        <time>2022-09-24T14:22:23.000Z</time>
      </trkpt>
      <trkpt lat="45.83776" lon="4.71697">
        <ele>258.40521</ele>
        <time>2022-09-24T14:22:25.000Z</time>
      </trkpt>
      <trkpt lat="45.8378" lon="4.71698">
        <ele>258.59235</ele>
        <time>2022-09-24T14:22:27.000Z</time>
      </trkpt>
      <trkpt lat="45.83782" lon="4.71699">
        <ele>258.80612</ele>
        <time>2022-09-24T14:22:29.000Z</time>
      </trkpt>
      <trkpt lat="45.83784" lon="4.71701">
        <ele>258.94135</ele>
        <time>2022-09-24T14:22:31.000Z</time>
      </trkpt>
      <trkpt lat="45.83787" lon="4.71703">
        <ele>259.05402</ele>
        <time>2022-09-24T14:22:33.000Z</time>
      </trkpt>
      <trkpt lat="45.83789" lon="4.71704">
        <ele>259.07922</ele>
        <time>2022-09-24T14:22:35.000Z</time>
      </trkpt>
      <trkpt lat="45.83787" lon="4.71702">
        <ele>259.16269</ele>
        <time>2022-09-24T14:22:56.000Z</time>
      </trkpt>
      <trkpt lat="45.83784" lon="4.71701">
        <ele>259.24615</ele>
        <time>2022-09-24T14:22:57.000Z</time>
      </trkpt>
      <trkpt lat="45.83782" lon="4.717">
        <ele>259.22223</ele>
        <time>2022-09-24T14:22:58.000Z</time>
      </trkpt>
      <trkpt lat="45.83779" lon="4.71699">
        <ele>259.20837</ele>
        <time>2022-09-24T14:23:00.000Z</time>
      </trkpt>
      <trkpt lat="45.83777" lon="4.71698">
        <ele>259.2464</ele>
        <time>2022-09-24T14:23:01.000Z</time>
      </trkpt>
      <trkpt lat="45.83774" lon="4.71697">
        <ele>259.38092</ele>
        <time>2022-09-24T14:23:03.000Z</time>
      </trkpt>
      <trkpt lat="45.83771" lon="4.71696">
        <ele>259.50891</ele>
        <time>2022-09-24T14:23:05.000Z</time>
      </trkpt>
      <trkpt lat="45.83769" lon="4.71694">
        <ele>259.63687</ele>
        <time>2022-09-24T14:23:07.000Z</time>
      </trkpt>
      <trkpt lat="45.83769" lon="4.71697">
        <ele>259.61612</ele>
        <time>2022-09-24T14:23:23.000Z</time>
      </trkpt>
      <trkpt lat="45.83766" lon="4.71697">
        <ele>259.78458</ele>
        <time>2022-09-24T14:23:27.000Z</time>
      </trkpt>
      <trkpt lat="45.83763" lon="4.71696">
        <ele>260.07019</ele>
        <time>2022-09-24T14:23:29.000Z</time>
      </trkpt>
      <trkpt lat="45.8376" lon="4.71696">
        <ele>260.38083</ele>
        <time>2022-09-24T14:23:31.000Z</time>
      </trkpt>
      <trkpt lat="45.83757" lon="4.71696">
        <ele>260.68051</ele>
        <time>2022-09-24T14:23:33.000Z</time>
      </trkpt>
      <trkpt lat="45.83753" lon="4.71697">
        <ele>260.98184</ele>
        <time>2022-09-24T14:23:35.000Z</time>
      </trkpt>
      <trkpt lat="45.8375" lon="4.71698">
        <ele>261.15741</ele>
        <time>2022-09-24T14:23:36.000Z</time>
      </trkpt>
      <trkpt lat="45.83746" lon="4.71698">
        <ele>261.34097</ele>
        <time>2022-09-24T14:23:37.000Z</time>
      </trkpt>
      <trkpt lat="45.83739" lon="4.71693">
        <ele>261.53574</ele>
        <time>2022-09-24T14:23:38.000Z</time>
      </trkpt>
      <trkpt lat="45.83734" lon="4.71692">
        <ele>261.84171</ele>
        <time>2022-09-24T14:23:39.000Z</time>
      </trkpt>
      <trkpt lat="45.83729" lon="4.71695">
        <ele>262.21103</ele>
        <time>2022-09-24T14:23:40.000Z</time>
      </trkpt>
      <trkpt lat="45.83727" lon="4.71697">
        <ele>262.57031</ele>
        <time>2022-09-24T14:23:41.000Z</time>
      </trkpt>
      <trkpt lat="45.83724" lon="4.71697">
        <ele>262.71844</ele>
        <time>2022-09-24T14:23:42.000Z</time>
      </trkpt>
      <trkpt lat="45.83722" lon="4.71698">
        <ele>262.83066</ele>
        <time>2022-09-24T14:23:43.000Z</time>
      </trkpt>
      <trkpt lat="45.83725" lon="4.71698">
        <ele>262.95038</ele>
        <time>2022-09-24T14:23:46.000Z</time>
      </trkpt>
      <trkpt lat="45.83728" lon="4.71696">
        <ele>263.10812</ele>
        <time>2022-09-24T14:23:47.000Z</time>
      </trkpt>
      <trkpt lat="45.83731" lon="4.71695">
        <ele>263.20694</ele>
        <time>2022-09-24T14:23:48.000Z</time>
      </trkpt>
      <trkpt lat="45.83734" lon="4.71692">
        <ele>263.1153</ele>
        <time>2022-09-24T14:23:49.000Z</time>
      </trkpt>
      <trkpt lat="45.83736" lon="4.71693">
        <ele>263.02008</ele>
        <time>2022-09-24T14:23:50.000Z</time>
      </trkpt>
      <trkpt lat="45.83738" lon="4.71692">
        <ele>262.93582</ele>
        <time>2022-09-24T14:23:51.000Z</time>
      </trkpt>
      <trkpt lat="45.8374" lon="4.71692">
        <ele>263.0567</ele>
        <time>2022-09-24T14:23:52.000Z</time>
      </trkpt>
      <trkpt lat="45.83744" lon="4.71692">
        <ele>263.05844</ele>
        <time>2022-09-24T14:23:54.000Z</time>
      </trkpt>
      <trkpt lat="45.83747" lon="4.71693">
        <ele>262.92767</ele>
        <time>2022-09-24T14:23:55.000Z</time>
      </trkpt>
      <trkpt lat="45.83749" lon="4.71694">
        <ele>262.79974</ele>
        <time>2022-09-24T14:23:56.000Z</time>
      </trkpt>
      <trkpt lat="45.83751" lon="4.71694">
        <ele>262.53384</ele>
        <time>2022-09-24T14:23:57.000Z</time>
      </trkpt>
      <trkpt lat="45.83754" lon="4.71695">
        <ele>262.26379</ele>
        <time>2022-09-24T14:23:58.000Z</time>
      </trkpt>
      <trkpt lat="45.83756" lon="4.71695">
        <ele>262.13345</ele>
        <time>2022-09-24T14:23:59.000Z</time>
      </trkpt>
      <trkpt lat="45.83758" lon="4.71695">
        <ele>262.04868</ele>
        <time>2022-09-24T14:24:00.000Z</time>
      </trkpt>
      <trkpt lat="45.8376" lon="4.71695">
        <ele>262.04767</ele>
        <time>2022-09-24T14:24:01.000Z</time>
      </trkpt>
      <trkpt lat="45.83762" lon="4.71695">
        <ele>262.10147</ele>
        <time>2022-09-24T14:24:02.000Z</time>
      </trkpt>
      <trkpt lat="45.83765" lon="4.71696">
        <ele>262.10529</ele>
        <time>2022-09-24T14:24:03.000Z</time>
      </trkpt>
      <trkpt lat="45.83768" lon="4.71696">
        <ele>261.98474</ele>
        <time>2022-09-24T14:24:05.000Z</time>
      </trkpt>
      <trkpt lat="45.8377" lon="4.71697">
        <ele>261.96295</ele>
        <time>2022-09-24T14:24:06.000Z</time>
      </trkpt>
      <trkpt lat="45.83772" lon="4.71697">
        <ele>261.978</ele>
        <time>2022-09-24T14:24:07.000Z</time>
      </trkpt>
      <trkpt lat="45.83776" lon="4.71699">
        <ele>261.87247</ele>
        <time>2022-09-24T14:24:09.000Z</time>
      </trkpt>
      <trkpt lat="45.83778" lon="4.71699">
        <ele>261.71582</ele>
        <time>2022-09-24T14:24:10.000Z</time>
      </trkpt>
      <trkpt lat="45.83781" lon="4.717">
        <ele>261.52966</ele>
        <time>2022-09-24T14:24:11.000Z</time>
      </trkpt>
      <trkpt lat="45.83783" lon="4.71701">
        <ele>261.43033</ele>
        <time>2022-09-24T14:24:12.000Z</time>
      </trkpt>
      <trkpt lat="45.83785" lon="4.71701">
        <ele>261.32153</ele>
        <time>2022-09-24T14:24:13.000Z</time>
      </trkpt>
      <trkpt lat="45.83787" lon="4.71703">
        <ele>261.16138</ele>
        <time>2022-09-24T14:24:14.000Z</time>
      </trkpt>
      <trkpt lat="45.83789" lon="4.71704">
        <ele>260.90826</ele>
        <time>2022-09-24T14:24:15.000Z</time>
      </trkpt>
      <trkpt lat="45.83791" lon="4.71705">
        <ele>260.65659</ele>
        <time>2022-09-24T14:24:16.000Z</time>
      </trkpt>
      <trkpt lat="45.83794" lon="4.71706">
        <ele>260.45908</ele>
        <time>2022-09-24T14:24:17.000Z</time>
      </trkpt>
      <trkpt lat="45.83796" lon="4.71707">
        <ele>260.23343</ele>
        <time>2022-09-24T14:24:18.000Z</time>
      </trkpt>
      <trkpt lat="45.83798" lon="4.71708">
        <ele>260.05484</ele>
        <time>2022-09-24T14:24:19.000Z</time>
      </trkpt>
      <trkpt lat="45.838" lon="4.71709">
        <ele>259.89691</ele>
        <time>2022-09-24T14:24:20.000Z</time>
      </trkpt>
      <trkpt lat="45.83802" lon="4.7171">
        <ele>259.64194</ele>
        <time>2022-09-24T14:24:21.000Z</time>
      </trkpt>
      <trkpt lat="45.83805" lon="4.71712">
        <ele>259.19281</ele>
        <time>2022-09-24T14:24:22.000Z</time>
      </trkpt>
      <trkpt lat="45.83807" lon="4.71713">
        <ele>258.77548</ele>
        <time>2022-09-24T14:24:23.000Z</time>
      </trkpt>
      <trkpt lat="45.8381" lon="4.71715">
        <ele>258.12454</ele>
        <time>2022-09-24T14:24:24.000Z</time>
      </trkpt>
      <trkpt lat="45.83813" lon="4.71716">
        <ele>257.43149</ele>
        <time>2022-09-24T14:24:25.000Z</time>
      </trkpt>
      <trkpt lat="45.83817" lon="4.71717">
        <ele>257.04633</ele>
        <time>2022-09-24T14:24:26.000Z</time>
      </trkpt>
      <trkpt lat="45.8382" lon="4.71718">
        <ele>256.61871</ele>
        <time>2022-09-24T14:24:27.000Z</time>
      </trkpt>
      <trkpt lat="45.83823" lon="4.71718">
        <ele>256.2229</ele>
        <time>2022-09-24T14:24:28.000Z</time>
      </trkpt>
      <trkpt lat="45.83827" lon="4.71719">
        <ele>255.98975</ele>
        <time>2022-09-24T14:24:29.000Z</time>
      </trkpt>
      <trkpt lat="45.83831" lon="4.71719">
        <ele>255.86121</ele>
        <time>2022-09-24T14:24:30.000Z</time>
      </trkpt>
      <trkpt lat="45.83835" lon="4.7172">
        <ele>255.8811</ele>
        <time>2022-09-24T14:24:31.000Z</time>
      </trkpt>
      <trkpt lat="45.83839" lon="4.71721">
        <ele>255.88884</ele>
        <time>2022-09-24T14:24:32.000Z</time>
      </trkpt>
      <trkpt lat="45.83843" lon="4.71722">
        <ele>255.90205</ele>
        <time>2022-09-24T14:24:33.000Z</time>
      </trkpt>
      <trkpt lat="45.83846" lon="4.71724">
        <ele>255.89607</ele>
        <time>2022-09-24T14:24:34.000Z</time>
      </trkpt>
      <trkpt lat="45.83849" lon="4.71725">
        <ele>255.99915</ele>
        <time>2022-09-24T14:24:35.000Z</time>
      </trkpt>
      <trkpt lat="45.83854" lon="4.71726">
        <ele>256.15085</ele>
        <time>2022-09-24T14:24:36.000Z</time>
      </trkpt>
      <trkpt lat="45.83858" lon="4.71727">
        <ele>256.35818</ele>
        <time>2022-09-24T14:24:37.000Z</time>
      </trkpt>
      <trkpt lat="45.83862" lon="4.71729">
        <ele>256.48187</ele>
        <time>2022-09-24T14:24:38.000Z</time>
      </trkpt>
      <trkpt lat="45.83867" lon="4.7173">
        <ele>256.61429</ele>
        <time>2022-09-24T14:24:39.000Z</time>
      </trkpt>
      <trkpt lat="45.83872" lon="4.71731">
        <ele>256.68756</ele>
        <time>2022-09-24T14:24:40.000Z</time>
      </trkpt>
      <trkpt lat="45.83876" lon="4.71733">
        <ele>256.88931</ele>
        <time>2022-09-24T14:24:41.000Z</time>
      </trkpt>
      <trkpt lat="45.83881" lon="4.71735">
        <ele>257.30206</ele>
        <time>2022-09-24T14:24:42.000Z</time>
      </trkpt>
      <trkpt lat="45.83884" lon="4.71737">
        <ele>257.75674</ele>
        <time>2022-09-24T14:24:43.000Z</time>
      </trkpt>
      <trkpt lat="45.83887" lon="4.71738">
        <ele>258.3399</ele>
        <time>2022-09-24T14:24:44.000Z</time>
      </trkpt>
      <trkpt lat="45.8389" lon="4.7174">
        <ele>258.98419</ele>
        <time>2022-09-24T14:24:45.000Z</time>
      </trkpt>
      <trkpt lat="45.83894" lon="4.71742">
        <ele>259.47427</ele>
        <time>2022-09-24T14:24:46.000Z</time>
      </trkpt>
      <trkpt lat="45.83897" lon="4.71744">
        <ele>260.005</ele>
        <time>2022-09-24T14:24:47.000Z</time>
      </trkpt>
      <trkpt lat="45.83901" lon="4.71746">
        <ele>260.56729</ele>
        <time>2022-09-24T14:24:48.000Z</time>
      </trkpt>
      <trkpt lat="45.83904" lon="4.71748">
        <ele>261.11029</ele>
        <time>2022-09-24T14:24:49.000Z</time>
      </trkpt>
      <trkpt lat="45.83907" lon="4.71749">
        <ele>261.53253</ele>
        <time>2022-09-24T14:24:50.000Z</time>
      </trkpt>
      <trkpt lat="45.83911" lon="4.71751">
        <ele>261.85233</ele>
        <time>2022-09-24T14:24:51.000Z</time>
      </trkpt>
      <trkpt lat="45.83914" lon="4.71752">
        <ele>262.21924</ele>
        <time>2022-09-24T14:24:52.000Z</time>
      </trkpt>
      <trkpt lat="45.83918" lon="4.71753">
        <ele>262.63953</ele>
        <time>2022-09-24T14:24:53.000Z</time>
      </trkpt>
      <trkpt lat="45.83922" lon="4.71756">
        <ele>263.14615</ele>
        <time>2022-09-24T14:24:54.000Z</time>
      </trkpt>
      <trkpt lat="45.83927" lon="4.71759">
        <ele>263.61658</ele>
        <time>2022-09-24T14:24:55.000Z</time>
      </trkpt>
      <trkpt lat="45.83931" lon="4.71762">
        <ele>264.10858</ele>
        <time>2022-09-24T14:24:56.000Z</time>
      </trkpt>
      <trkpt lat="45.83935" lon="4.71766">
        <ele>264.6044</ele>
        <time>2022-09-24T14:24:57.000Z</time>
      </trkpt>
      <trkpt lat="45.83942" lon="4.71774">
        <ele>265.2395</ele>
        <time>2022-09-24T14:24:58.000Z</time>
      </trkpt>
      <trkpt lat="45.83944" lon="4.71781">
        <ele>265.89111</ele>
        <time>2022-09-24T14:24:59.000Z</time>
      </trkpt>
      <trkpt lat="45.83946" lon="4.71786">
        <ele>266.62408</ele>
        <time>2022-09-24T14:25:00.000Z</time>
      </trkpt>
      <trkpt lat="45.83947" lon="4.71792">
        <ele>267.30829</ele>
        <time>2022-09-24T14:25:01.000Z</time>
      </trkpt>
      <trkpt lat="45.83949" lon="4.71797">
        <ele>267.9444</ele>
        <time>2022-09-24T14:25:02.000Z</time>
      </trkpt>
      <trkpt lat="45.83953" lon="4.71801">
        <ele>268.47101</ele>
        <time>2022-09-24T14:25:03.000Z</time>
      </trkpt>
      <trkpt lat="45.83955" lon="4.71808">
        <ele>268.97513</ele>
        <time>2022-09-24T14:25:04.000Z</time>
      </trkpt>
      <trkpt lat="45.83959" lon="4.71813">
        <ele>269.48697</ele>
        <time>2022-09-24T14:25:05.000Z</time>
      </trkpt>
      <trkpt lat="45.83962" lon="4.7182">
        <ele>270.0636</ele>
        <time>2022-09-24T14:25:06.000Z</time>
      </trkpt>
      <trkpt lat="45.83967" lon="4.71824">
        <ele>270.55075</ele>
        <time>2022-09-24T14:25:07.000Z</time>
      </trkpt>
      <trkpt lat="45.83971" lon="4.71828">
        <ele>270.9567</ele>
        <time>2022-09-24T14:25:08.000Z</time>
      </trkpt>
      <trkpt lat="45.83973" lon="4.71835">
        <ele>271.31131</ele>
        <time>2022-09-24T14:25:09.000Z</time>
      </trkpt>
      <trkpt lat="45.83977" lon="4.71841">
        <ele>271.73148</ele>
        <time>2022-09-24T14:25:10.000Z</time>
      </trkpt>
      <trkpt lat="45.8398" lon="4.71846">
        <ele>272.1499</ele>
        <time>2022-09-24T14:25:11.000Z</time>
      </trkpt>
      <trkpt lat="45.83983" lon="4.71851">
        <ele>272.5593</ele>
        <time>2022-09-24T14:25:12.000Z</time>
      </trkpt>
      <trkpt lat="45.83986" lon="4.71855">
        <ele>272.9408</ele>
        <time>2022-09-24T14:25:13.000Z</time>
      </trkpt>
      <trkpt lat="45.8399" lon="4.71862">
        <ele>273.29913</ele>
        <time>2022-09-24T14:25:14.000Z</time>
      </trkpt>
      <trkpt lat="45.83993" lon="4.71867">
        <ele>273.66107</ele>
        <time>2022-09-24T14:25:15.000Z</time>
      </trkpt>
      <trkpt lat="45.83997" lon="4.71872">
        <ele>273.9783</ele>
        <time>2022-09-24T14:25:16.000Z</time>
      </trkpt>
      <trkpt lat="45.84" lon="4.71878">
        <ele>274.23849</ele>
        <time>2022-09-24T14:25:17.000Z</time>
      </trkpt>
      <trkpt lat="45.84003" lon="4.71883">
        <ele>274.36295</ele>
        <time>2022-09-24T14:25:18.000Z</time>
      </trkpt>
      <trkpt lat="45.84005" lon="4.7189">
        <ele>274.54657</ele>
        <time>2022-09-24T14:25:19.000Z</time>
      </trkpt>
      <trkpt lat="45.84006" lon="4.71897">
        <ele>274.72018</ele>
        <time>2022-09-24T14:25:20.000Z</time>
      </trkpt>
      <trkpt lat="45.84006" lon="4.71905">
        <ele>274.8371</ele>
        <time>2022-09-24T14:25:21.000Z</time>
      </trkpt>
      <trkpt lat="45.84006" lon="4.71914">
        <ele>274.90295</ele>
        <time>2022-09-24T14:25:22.000Z</time>
      </trkpt>
      <trkpt lat="45.84006" lon="4.71923">
        <ele>274.94925</ele>
        <time>2022-09-24T14:25:23.000Z</time>
      </trkpt>
      <trkpt lat="45.84007" lon="4.71932">
        <ele>274.93942</ele>
        <time>2022-09-24T14:25:24.000Z</time>
      </trkpt>
      <trkpt lat="45.84007" lon="4.71942">
        <ele>274.8244</ele>
        <time>2022-09-24T14:25:25.000Z</time>
      </trkpt>
      <trkpt lat="45.84007" lon="4.71951">
        <ele>274.59781</ele>
        <time>2022-09-24T14:25:26.000Z</time>
      </trkpt>
      <trkpt lat="45.84007" lon="4.71962">
        <ele>274.41595</ele>
        <time>2022-09-24T14:25:27.000Z</time>
      </trkpt>
      <trkpt lat="45.84007" lon="4.71973">
        <ele>274.16415</ele>
        <time>2022-09-24T14:25:28.000Z</time>
      </trkpt>
      <trkpt lat="45.84008" lon="4.71985">
        <ele>273.93668</ele>
        <time>2022-09-24T14:25:29.000Z</time>
      </trkpt>
      <trkpt lat="45.84008" lon="4.71997">
        <ele>273.64676</ele>
        <time>2022-09-24T14:25:30.000Z</time>
      </trkpt>
      <trkpt lat="45.84008" lon="4.72007">
        <ele>273.41238</ele>
        <time>2022-09-24T14:25:31.000Z</time>
      </trkpt>
      <trkpt lat="45.84009" lon="4.72019">
        <ele>273.12274</ele>
        <time>2022-09-24T14:25:32.000Z</time>
      </trkpt>
      <trkpt lat="45.8401" lon="4.7203">
        <ele>272.79877</ele>
        <time>2022-09-24T14:25:33.000Z</time>
      </trkpt>
      <trkpt lat="45.8401" lon="4.72041">
        <ele>272.46536</ele>
        <time>2022-09-24T14:25:34.000Z</time>
      </trkpt>
      <trkpt lat="45.84011" lon="4.72051">
        <ele>272.09308</ele>
        <time>2022-09-24T14:25:35.000Z</time>
      </trkpt>
      <trkpt lat="45.84013" lon="4.72063">
        <ele>271.76947</ele>
        <time>2022-09-24T14:25:36.000Z</time>
      </trkpt>
      <trkpt lat="45.84014" lon="4.72072">
        <ele>271.46954</ele>
        <time>2022-09-24T14:25:37.000Z</time>
      </trkpt>
      <trkpt lat="45.84015" lon="4.72085">
        <ele>271.27148</ele>
        <time>2022-09-24T14:25:38.000Z</time>
      </trkpt>
      <trkpt lat="45.84016" lon="4.72095">
        <ele>270.90659</ele>
        <time>2022-09-24T14:25:39.000Z</time>
      </trkpt>
      <trkpt lat="45.84017" lon="4.72104">
        <ele>270.54581</ele>
        <time>2022-09-24T14:25:40.000Z</time>
      </trkpt>
      <trkpt lat="45.84018" lon="4.72113">
        <ele>270.2197</ele>
        <time>2022-09-24T14:25:41.000Z</time>
      </trkpt>
      <trkpt lat="45.84019" lon="4.72121">
        <ele>269.96027</ele>
        <time>2022-09-24T14:25:42.000Z</time>
      </trkpt>
      <trkpt lat="45.84019" lon="4.7213">
        <ele>269.72174</ele>
        <time>2022-09-24T14:25:43.000Z</time>
      </trkpt>
      <trkpt lat="45.84019" lon="4.72139">
        <ele>269.47958</ele>
        <time>2022-09-24T14:25:44.000Z</time>
      </trkpt>
      <trkpt lat="45.8402" lon="4.72146">
        <ele>269.31927</ele>
        <time>2022-09-24T14:25:45.000Z</time>
      </trkpt>
      <trkpt lat="45.8402" lon="4.72151">
        <ele>269.23163</ele>
        <time>2022-09-24T14:25:46.000Z</time>
      </trkpt>
      <trkpt lat="45.8402" lon="4.72159">
        <ele>269.15436</ele>
        <time>2022-09-24T14:25:47.000Z</time>
      </trkpt>
      <trkpt lat="45.84018" lon="4.72162">
        <ele>269.1868</ele>
        <time>2022-09-24T14:25:48.000Z</time>
      </trkpt>
      <trkpt lat="45.84015" lon="4.72166">
        <ele>269.25537</ele>
        <time>2022-09-24T14:25:49.000Z</time>
      </trkpt>
      <trkpt lat="45.84012" lon="4.72167">
        <ele>269.36548</ele>
        <time>2022-09-24T14:25:50.000Z</time>
      </trkpt>
      <trkpt lat="45.84008" lon="4.72169">
        <ele>269.41861</ele>
        <time>2022-09-24T14:25:51.000Z</time>
      </trkpt>
      <trkpt lat="45.84005" lon="4.7217">
        <ele>269.49799</ele>
        <time>2022-09-24T14:25:52.000Z</time>
      </trkpt>
      <trkpt lat="45.84002" lon="4.72166">
        <ele>269.63477</ele>
        <time>2022-09-24T14:25:53.000Z</time>
      </trkpt>
      <trkpt lat="45.83998" lon="4.72168">
        <ele>269.79108</ele>
        <time>2022-09-24T14:25:54.000Z</time>
      </trkpt>
      <trkpt lat="45.83994" lon="4.72168">
        <ele>269.99701</ele>
        <time>2022-09-24T14:25:55.000Z</time>
      </trkpt>
      <trkpt lat="45.83989" lon="4.72168">
        <ele>270.11819</ele>
        <time>2022-09-24T14:25:56.000Z</time>
      </trkpt>
      <trkpt lat="45.83985" lon="4.72167">
        <ele>270.21912</ele>
        <time>2022-09-24T14:25:57.000Z</time>
      </trkpt>
      <trkpt lat="45.83981" lon="4.72166">
        <ele>270.27621</ele>
        <time>2022-09-24T14:25:58.000Z</time>
      </trkpt>
      <trkpt lat="45.83977" lon="4.72165">
        <ele>270.45267</ele>
        <time>2022-09-24T14:25:59.000Z</time>
      </trkpt>
      <trkpt lat="45.83973" lon="4.72165">
        <ele>270.5025</ele>
        <time>2022-09-24T14:26:00.000Z</time>
      </trkpt>
      <trkpt lat="45.83969" lon="4.72166">
        <ele>270.47797</ele>
        <time>2022-09-24T14:26:01.000Z</time>
      </trkpt>
      <trkpt lat="45.83964" lon="4.72166">
        <ele>270.34659</ele>
        <time>2022-09-24T14:26:02.000Z</time>
      </trkpt>
      <trkpt lat="45.8396" lon="4.72166">
        <ele>270.22125</ele>
        <time>2022-09-24T14:26:03.000Z</time>
      </trkpt>
      <trkpt lat="45.83956" lon="4.72166">
        <ele>270.14313</ele>
        <time>2022-09-24T14:26:04.000Z</time>
      </trkpt>
      <trkpt lat="45.83952" lon="4.72165">
        <ele>270.0903</ele>
        <time>2022-09-24T14:26:05.000Z</time>
      </trkpt>
      <trkpt lat="45.83948" lon="4.72165">
        <ele>269.95267</ele>
        <time>2022-09-24T14:26:06.000Z</time>
      </trkpt>
      <trkpt lat="45.83944" lon="4.72165">
        <ele>269.74088</ele>
        <time>2022-09-24T14:26:07.000Z</time>
      </trkpt>
      <trkpt lat="45.83941" lon="4.72165">
        <ele>269.51251</ele>
        <time>2022-09-24T14:26:08.000Z</time>
      </trkpt>
      <trkpt lat="45.83939" lon="4.72166">
        <ele>269.31598</ele>
        <time>2022-09-24T14:26:09.000Z</time>
      </trkpt>
      <trkpt lat="45.83936" lon="4.72168">
        <ele>269.0787</ele>
        <time>2022-09-24T14:26:11.000Z</time>
      </trkpt>
      <trkpt lat="45.83935" lon="4.72171">
        <ele>269.01471</ele>
        <time>2022-09-24T14:26:12.000Z</time>
      </trkpt>
      <trkpt lat="45.83936" lon="4.72175">
        <ele>268.85898</ele>
        <time>2022-09-24T14:26:13.000Z</time>
      </trkpt>
      <trkpt lat="45.83937" lon="4.7218">
        <ele>268.63495</ele>
        <time>2022-09-24T14:26:14.000Z</time>
      </trkpt>
      <trkpt lat="45.83939" lon="4.72184">
        <ele>268.35132</ele>
        <time>2022-09-24T14:26:15.000Z</time>
      </trkpt>
      <trkpt lat="45.83942" lon="4.72188">
        <ele>268.04694</ele>
        <time>2022-09-24T14:26:16.000Z</time>
      </trkpt>
      <trkpt lat="45.83945" lon="4.72192">
        <ele>267.7196</ele>
        <time>2022-09-24T14:26:17.000Z</time>
      </trkpt>
      <trkpt lat="45.83948" lon="4.72196">
        <ele>267.43869</ele>
        <time>2022-09-24T14:26:18.000Z</time>
      </trkpt>
      <trkpt lat="45.83951" lon="4.72201">
        <ele>267.11444</ele>
        <time>2022-09-24T14:26:19.000Z</time>
      </trkpt>
      <trkpt lat="45.83953" lon="4.72205">
        <ele>266.75049</ele>
        <time>2022-09-24T14:26:20.000Z</time>
      </trkpt>
      <trkpt lat="45.83955" lon="4.7221">
        <ele>266.46216</ele>
        <time>2022-09-24T14:26:21.000Z</time>
      </trkpt>
      <trkpt lat="45.83958" lon="4.72215">
        <ele>266.13699</ele>
        <time>2022-09-24T14:26:22.000Z</time>
      </trkpt>
      <trkpt lat="45.83963" lon="4.72221">
        <ele>265.88177</ele>
        <time>2022-09-24T14:26:23.000Z</time>
      </trkpt>
      <trkpt lat="45.83965" lon="4.72226">
        <ele>265.61761</ele>
        <time>2022-09-24T14:26:24.000Z</time>
      </trkpt>
      <trkpt lat="45.83968" lon="4.7223">
        <ele>265.33932</ele>
        <time>2022-09-24T14:26:25.000Z</time>
      </trkpt>
      <trkpt lat="45.8397" lon="4.72234">
        <ele>265.08295</ele>
        <time>2022-09-24T14:26:26.000Z</time>
      </trkpt>
      <trkpt lat="45.83973" lon="4.72238">
        <ele>264.98566</ele>
        <time>2022-09-24T14:26:27.000Z</time>
      </trkpt>
      <trkpt lat="45.83976" lon="4.72244">
        <ele>264.92703</ele>
        <time>2022-09-24T14:26:28.000Z</time>
      </trkpt>
      <trkpt lat="45.83979" lon="4.7225">
        <ele>264.87485</ele>
        <time>2022-09-24T14:26:29.000Z</time>
      </trkpt>
      <trkpt lat="45.83982" lon="4.72254">
        <ele>264.78748</ele>
        <time>2022-09-24T14:26:30.000Z</time>
      </trkpt>
      <trkpt lat="45.83985" lon="4.72261">
        <ele>264.74854</ele>
        <time>2022-09-24T14:26:31.000Z</time>
      </trkpt>
      <trkpt lat="45.83988" lon="4.72266">
        <ele>264.77402</ele>
        <time>2022-09-24T14:26:32.000Z</time>
      </trkpt>
      <trkpt lat="45.8399" lon="4.72274">
        <ele>264.85162</ele>
        <time>2022-09-24T14:26:33.000Z</time>
      </trkpt>
      <trkpt lat="45.83992" lon="4.72279">
        <ele>264.95871</ele>
        <time>2022-09-24T14:26:34.000Z</time>
      </trkpt>
      <trkpt lat="45.83995" lon="4.72286">
        <ele>265.13254</ele>
        <time>2022-09-24T14:26:35.000Z</time>
      </trkpt>
      <trkpt lat="45.83999" lon="4.7229">
        <ele>265.30673</ele>
        <time>2022-09-24T14:26:36.000Z</time>
      </trkpt>
      <trkpt lat="45.84002" lon="4.72297">
        <ele>265.3638</ele>
        <time>2022-09-24T14:26:37.000Z</time>
      </trkpt>
      <trkpt lat="45.84005" lon="4.72303">
        <ele>265.35794</ele>
        <time>2022-09-24T14:26:38.000Z</time>
      </trkpt>
      <trkpt lat="45.84007" lon="4.72307">
        <ele>265.41214</ele>
        <time>2022-09-24T14:26:39.000Z</time>
      </trkpt>
      <trkpt lat="45.8401" lon="4.72309">
        <ele>265.50287</ele>
        <time>2022-09-24T14:26:40.000Z</time>
      </trkpt>
      <trkpt lat="45.84012" lon="4.72311">
        <ele>265.6109</ele>
        <time>2022-09-24T14:26:41.000Z</time>
      </trkpt>
      <trkpt lat="45.84011" lon="4.72315">
        <ele>265.87949</ele>
        <time>2022-09-24T14:26:42.000Z</time>
      </trkpt>
      <trkpt lat="45.84008" lon="4.72319">
        <ele>266.108</ele>
        <time>2022-09-24T14:26:43.000Z</time>
      </trkpt>
      <trkpt lat="45.84007" lon="4.72324">
        <ele>266.35468</ele>
        <time>2022-09-24T14:26:44.000Z</time>
      </trkpt>
      <trkpt lat="45.84003" lon="4.72328">
        <ele>266.63446</ele>
        <time>2022-09-24T14:26:45.000Z</time>
      </trkpt>
      <trkpt lat="45.84" lon="4.72332">
        <ele>266.86758</ele>
        <time>2022-09-24T14:26:46.000Z</time>
      </trkpt>
      <trkpt lat="45.83998" lon="4.72335">
        <ele>267.08624</ele>
        <time>2022-09-24T14:26:47.000Z</time>
      </trkpt>
      <trkpt lat="45.83994" lon="4.72341">
        <ele>267.33762</ele>
        <time>2022-09-24T14:26:48.000Z</time>
      </trkpt>
      <trkpt lat="45.8399" lon="4.72345">
        <ele>267.53448</ele>
        <time>2022-09-24T14:26:49.000Z</time>
      </trkpt>
      <trkpt lat="45.83986" lon="4.72348">
        <ele>267.66669</ele>
        <time>2022-09-24T14:26:50.000Z</time>
      </trkpt>
      <trkpt lat="45.83983" lon="4.72349">
        <ele>267.84259</ele>
        <time>2022-09-24T14:26:51.000Z</time>
      </trkpt>
      <trkpt lat="45.83979" lon="4.72352">
        <ele>267.77969</ele>
        <time>2022-09-24T14:26:52.000Z</time>
      </trkpt>
      <trkpt lat="45.83974" lon="4.72356">
        <ele>267.74405</ele>
        <time>2022-09-24T14:26:53.000Z</time>
      </trkpt>
      <trkpt lat="45.83969" lon="4.72359">
        <ele>267.67145</ele>
        <time>2022-09-24T14:26:54.000Z</time>
      </trkpt>
      <trkpt lat="45.83963" lon="4.72362">
        <ele>267.59467</ele>
        <time>2022-09-24T14:26:55.000Z</time>
      </trkpt>
      <trkpt lat="45.83957" lon="4.72364">
        <ele>267.5433</ele>
        <time>2022-09-24T14:26:56.000Z</time>
      </trkpt>
      <trkpt lat="45.83953" lon="4.72369">
        <ele>267.69489</ele>
        <time>2022-09-24T14:26:57.000Z</time>
      </trkpt>
      <trkpt lat="45.83946" lon="4.72373">
        <ele>267.7316</ele>
        <time>2022-09-24T14:26:58.000Z</time>
      </trkpt>
      <trkpt lat="45.83939" lon="4.72378">
        <ele>267.77411</ele>
        <time>2022-09-24T14:26:59.000Z</time>
      </trkpt>
      <trkpt lat="45.83931" lon="4.72383">
        <ele>267.81592</ele>
        <time>2022-09-24T14:27:00.000Z</time>
      </trkpt>
      <trkpt lat="45.83922" lon="4.72386">
        <ele>267.77682</ele>
        <time>2022-09-24T14:27:01.000Z</time>
      </trkpt>
      <trkpt lat="45.83915" lon="4.7239">
        <ele>267.69318</ele>
        <time>2022-09-24T14:27:02.000Z</time>
      </trkpt>
      <trkpt lat="45.83908" lon="4.72396">
        <ele>267.67267</ele>
        <time>2022-09-24T14:27:03.000Z</time>
      </trkpt>
      <trkpt lat="45.83898" lon="4.72397">
        <ele>267.4577</ele>
        <time>2022-09-24T14:27:04.000Z</time>
      </trkpt>
      <trkpt lat="45.83891" lon="4.72401">
        <ele>267.21664</ele>
        <time>2022-09-24T14:27:05.000Z</time>
      </trkpt>
      <trkpt lat="45.83883" lon="4.72405">
        <ele>266.94324</ele>
        <time>2022-09-24T14:27:06.000Z</time>
      </trkpt>
      <trkpt lat="45.83846" lon="4.72432">
        <ele>266.76569</ele>
        <time>2022-09-24T14:27:12.000Z</time>
      </trkpt>
      <trkpt lat="45.83841" lon="4.72441">
        <ele>266.57462</ele>
        <time>2022-09-24T14:27:13.000Z</time>
      </trkpt>
      <trkpt lat="45.83838" lon="4.72449">
        <ele>266.37378</ele>
        <time>2022-09-24T14:27:14.000Z</time>
      </trkpt>
      <trkpt lat="45.83837" lon="4.72457">
        <ele>266.18158</ele>
        <time>2022-09-24T14:27:15.000Z</time>
      </trkpt>
      <trkpt lat="45.83834" lon="4.72465">
        <ele>265.76233</ele>
        <time>2022-09-24T14:27:16.000Z</time>
      </trkpt>
      <trkpt lat="45.83833" lon="4.72474">
        <ele>265.34924</ele>
        <time>2022-09-24T14:27:17.000Z</time>
      </trkpt>
      <trkpt lat="45.83835" lon="4.7248">
        <ele>264.9704</ele>
        <time>2022-09-24T14:27:18.000Z</time>
      </trkpt>
      <trkpt lat="45.83836" lon="4.72489">
        <ele>264.57263</ele>
        <time>2022-09-24T14:27:19.000Z</time>
      </trkpt>
      <trkpt lat="45.83836" lon="4.72497">
        <ele>264.11664</ele>
        <time>2022-09-24T14:27:20.000Z</time>
      </trkpt>
      <trkpt lat="45.83837" lon="4.72503">
        <ele>263.63812</ele>
        <time>2022-09-24T14:27:21.000Z</time>
      </trkpt>
      <trkpt lat="45.83838" lon="4.7251">
        <ele>263.0882</ele>
        <time>2022-09-24T14:27:22.000Z</time>
      </trkpt>
      <trkpt lat="45.83837" lon="4.72518">
        <ele>262.67975</ele>
        <time>2022-09-24T14:27:23.000Z</time>
      </trkpt>
      <trkpt lat="45.83836" lon="4.72524">
        <ele>262.18011</ele>
        <time>2022-09-24T14:27:24.000Z</time>
      </trkpt>
      <trkpt lat="45.83834" lon="4.72531">
        <ele>261.73434</ele>
        <time>2022-09-24T14:27:25.000Z</time>
      </trkpt>
      <trkpt lat="45.83833" lon="4.72537">
        <ele>261.39154</ele>
        <time>2022-09-24T14:27:26.000Z</time>
      </trkpt>
      <trkpt lat="45.83832" lon="4.72542">
        <ele>261.06143</ele>
        <time>2022-09-24T14:27:27.000Z</time>
      </trkpt>
      <trkpt lat="45.83831" lon="4.7255">
        <ele>260.66257</ele>
        <time>2022-09-24T14:27:28.000Z</time>
      </trkpt>
      <trkpt lat="45.8383" lon="4.72556">
        <ele>260.42139</ele>
        <time>2022-09-24T14:27:29.000Z</time>
      </trkpt>
      <trkpt lat="45.83828" lon="4.72562">
        <ele>260.064</ele>
        <time>2022-09-24T14:27:30.000Z</time>
      </trkpt>
      <trkpt lat="45.83828" lon="4.72565">
        <ele>259.72977</ele>
        <time>2022-09-24T14:27:31.000Z</time>
      </trkpt>
      <trkpt lat="45.83828" lon="4.72569">
        <ele>259.25348</ele>
        <time>2022-09-24T14:27:32.000Z</time>
      </trkpt>
      <trkpt lat="45.83826" lon="4.72574">
        <ele>258.76813</ele>
        <time>2022-09-24T14:27:33.000Z</time>
      </trkpt>
      <trkpt lat="45.83825" lon="4.72578">
        <ele>258.41354</ele>
        <time>2022-09-24T14:27:34.000Z</time>
      </trkpt>
      <trkpt lat="45.83825" lon="4.72582">
        <ele>258.09833</ele>
        <time>2022-09-24T14:27:35.000Z</time>
      </trkpt>
      <trkpt lat="45.83824" lon="4.72586">
        <ele>257.93051</ele>
        <time>2022-09-24T14:27:36.000Z</time>
      </trkpt>
      <trkpt lat="45.83823" lon="4.72591">
        <ele>257.75842</ele>
        <time>2022-09-24T14:27:37.000Z</time>
      </trkpt>
      <trkpt lat="45.83822" lon="4.72595">
        <ele>257.64032</ele>
        <time>2022-09-24T14:27:38.000Z</time>
      </trkpt>
      <trkpt lat="45.8382" lon="4.72599">
        <ele>257.60657</ele>
        <time>2022-09-24T14:27:39.000Z</time>
      </trkpt>
      <trkpt lat="45.83818" lon="4.72603">
        <ele>257.63776</ele>
        <time>2022-09-24T14:27:40.000Z</time>
      </trkpt>
      <trkpt lat="45.83815" lon="4.72606">
        <ele>257.65125</ele>
        <time>2022-09-24T14:27:41.000Z</time>
      </trkpt>
      <trkpt lat="45.83813" lon="4.72609">
        <ele>257.64853</ele>
        <time>2022-09-24T14:27:42.000Z</time>
      </trkpt>
      <trkpt lat="45.83809" lon="4.72613">
        <ele>257.62384</ele>
        <time>2022-09-24T14:27:43.000Z</time>
      </trkpt>
      <trkpt lat="45.83806" lon="4.72614">
        <ele>257.64645</ele>
        <time>2022-09-24T14:27:44.000Z</time>
      </trkpt>
      <trkpt lat="45.83803" lon="4.72616">
        <ele>257.55011</ele>
        <time>2022-09-24T14:27:45.000Z</time>
      </trkpt>
      <trkpt lat="45.838" lon="4.72616">
        <ele>257.45947</ele>
        <time>2022-09-24T14:27:46.000Z</time>
      </trkpt>
      <trkpt lat="45.83796" lon="4.72616">
        <ele>257.34586</ele>
        <time>2022-09-24T14:27:47.000Z</time>
      </trkpt>
      <trkpt lat="45.83793" lon="4.72617">
        <ele>257.38751</ele>
        <time>2022-09-24T14:27:48.000Z</time>
      </trkpt>
      <trkpt lat="45.83789" lon="4.72618">
        <ele>257.45422</ele>
        <time>2022-09-24T14:27:49.000Z</time>
      </trkpt>
      <trkpt lat="45.83785" lon="4.72618">
        <ele>257.6109</ele>
        <time>2022-09-24T14:27:50.000Z</time>
      </trkpt>
      <trkpt lat="45.83781" lon="4.7262">
        <ele>257.68008</ele>
        <time>2022-09-24T14:27:51.000Z</time>
      </trkpt>
      <trkpt lat="45.83777" lon="4.7262">
        <ele>257.74814</ele>
        <time>2022-09-24T14:27:52.000Z</time>
      </trkpt>
      <trkpt lat="45.83774" lon="4.72621">
        <ele>257.90704</ele>
        <time>2022-09-24T14:27:53.000Z</time>
      </trkpt>
      <trkpt lat="45.8377" lon="4.72622">
        <ele>257.94861</ele>
        <time>2022-09-24T14:27:54.000Z</time>
      </trkpt>
      <trkpt lat="45.83767" lon="4.72623">
        <ele>257.98618</ele>
        <time>2022-09-24T14:27:55.000Z</time>
      </trkpt>
      <trkpt lat="45.83763" lon="4.72625">
        <ele>258.05316</ele>
        <time>2022-09-24T14:27:56.000Z</time>
      </trkpt>
      <trkpt lat="45.83759" lon="4.72626">
        <ele>258.18469</ele>
        <time>2022-09-24T14:27:57.000Z</time>
      </trkpt>
      <trkpt lat="45.83755" lon="4.72628">
        <ele>258.29053</ele>
        <time>2022-09-24T14:27:58.000Z</time>
      </trkpt>
      <trkpt lat="45.83751" lon="4.72629">
        <ele>258.4082</ele>
        <time>2022-09-24T14:27:59.000Z</time>
      </trkpt>
      <trkpt lat="45.83747" lon="4.7263">
        <ele>258.49017</ele>
        <time>2022-09-24T14:28:00.000Z</time>
      </trkpt>
      <trkpt lat="45.83743" lon="4.72631">
        <ele>258.6394</ele>
        <time>2022-09-24T14:28:01.000Z</time>
      </trkpt>
      <trkpt lat="45.83739" lon="4.72633">
        <ele>258.81244</ele>
        <time>2022-09-24T14:28:02.000Z</time>
      </trkpt>
      <trkpt lat="45.83735" lon="4.72634">
        <ele>259.03201</ele>
        <time>2022-09-24T14:28:03.000Z</time>
      </trkpt>
      <trkpt lat="45.83732" lon="4.72635">
        <ele>259.31012</ele>
        <time>2022-09-24T14:28:04.000Z</time>
      </trkpt>
      <trkpt lat="45.83729" lon="4.72636">
        <ele>259.65839</ele>
        <time>2022-09-24T14:28:05.000Z</time>
      </trkpt>
      <trkpt lat="45.83725" lon="4.72638">
        <ele>259.97397</ele>
        <time>2022-09-24T14:28:06.000Z</time>
      </trkpt>
      <trkpt lat="45.83721" lon="4.72641">
        <ele>260.2381</ele>
        <time>2022-09-24T14:28:07.000Z</time>
      </trkpt>
      <trkpt lat="45.83717" lon="4.72644">
        <ele>260.41309</ele>
        <time>2022-09-24T14:28:08.000Z</time>
      </trkpt>
      <trkpt lat="45.83714" lon="4.72647">
        <ele>260.52661</ele>
        <time>2022-09-24T14:28:09.000Z</time>
      </trkpt>
      <trkpt lat="45.8371" lon="4.72648">
        <ele>260.5903</ele>
        <time>2022-09-24T14:28:10.000Z</time>
      </trkpt>
      <trkpt lat="45.83707" lon="4.7265">
        <ele>260.76599</ele>
        <time>2022-09-24T14:28:11.000Z</time>
      </trkpt>
      <trkpt lat="45.83704" lon="4.72651">
        <ele>261.03357</ele>
        <time>2022-09-24T14:28:12.000Z</time>
      </trkpt>
      <trkpt lat="45.837" lon="4.72653">
        <ele>261.2132</ele>
        <time>2022-09-24T14:28:13.000Z</time>
      </trkpt>
      <trkpt lat="45.83696" lon="4.72654">
        <ele>261.46283</ele>
        <time>2022-09-24T14:28:14.000Z</time>
      </trkpt>
      <trkpt lat="45.83692" lon="4.72655">
        <ele>261.737</ele>
        <time>2022-09-24T14:28:15.000Z</time>
      </trkpt>
      <trkpt lat="45.83688" lon="4.72656">
        <ele>261.96362</ele>
        <time>2022-09-24T14:28:16.000Z</time>
      </trkpt>
      <trkpt lat="45.83684" lon="4.72656">
        <ele>262.1825</ele>
        <time>2022-09-24T14:28:17.000Z</time>
      </trkpt>
      <trkpt lat="45.83681" lon="4.72657">
        <ele>262.35211</ele>
        <time>2022-09-24T14:28:18.000Z</time>
      </trkpt>
      <trkpt lat="45.83677" lon="4.72659">
        <ele>262.48712</ele>
        <time>2022-09-24T14:28:19.000Z</time>
      </trkpt>
      <trkpt lat="45.83673" lon="4.72659">
        <ele>262.70776</ele>
        <time>2022-09-24T14:28:20.000Z</time>
      </trkpt>
      <trkpt lat="45.83671" lon="4.7266">
        <ele>262.87573</ele>
        <time>2022-09-24T14:28:21.000Z</time>
      </trkpt>
      <trkpt lat="45.83668" lon="4.7266">
        <ele>263.02814</ele>
        <time>2022-09-24T14:28:22.000Z</time>
      </trkpt>
      <trkpt lat="45.83664" lon="4.72662">
        <ele>263.15564</ele>
        <time>2022-09-24T14:28:23.000Z</time>
      </trkpt>
      <trkpt lat="45.83661" lon="4.72663">
        <ele>263.29413</ele>
        <time>2022-09-24T14:28:24.000Z</time>
      </trkpt>
      <trkpt lat="45.83657" lon="4.72666">
        <ele>263.32489</ele>
        <time>2022-09-24T14:28:25.000Z</time>
      </trkpt>
      <trkpt lat="45.83652" lon="4.72668">
        <ele>263.36823</ele>
        <time>2022-09-24T14:28:26.000Z</time>
      </trkpt>
      <trkpt lat="45.83648" lon="4.7267">
        <ele>263.44333</ele>
        <time>2022-09-24T14:28:27.000Z</time>
      </trkpt>
      <trkpt lat="45.83643" lon="4.72672">
        <ele>263.55942</ele>
        <time>2022-09-24T14:28:28.000Z</time>
      </trkpt>
      <trkpt lat="45.83639" lon="4.72675">
        <ele>263.68964</ele>
        <time>2022-09-24T14:28:29.000Z</time>
      </trkpt>
      <trkpt lat="45.83635" lon="4.72677">
        <ele>263.89059</ele>
        <time>2022-09-24T14:28:30.000Z</time>
      </trkpt>
      <trkpt lat="45.83632" lon="4.7268">
        <ele>264.09625</ele>
        <time>2022-09-24T14:28:31.000Z</time>
      </trkpt>
      <trkpt lat="45.83629" lon="4.72683">
        <ele>264.18808</ele>
        <time>2022-09-24T14:28:32.000Z</time>
      </trkpt>
      <trkpt lat="45.83625" lon="4.72686">
        <ele>264.29541</ele>
        <time>2022-09-24T14:28:33.000Z</time>
      </trkpt>
      <trkpt lat="45.83622" lon="4.7269">
        <ele>264.35693</ele>
        <time>2022-09-24T14:28:34.000Z</time>
      </trkpt>
      <trkpt lat="45.83619" lon="4.72693">
        <ele>264.37683</ele>
        <time>2022-09-24T14:28:35.000Z</time>
      </trkpt>
      <trkpt lat="45.83615" lon="4.72696">
        <ele>264.44333</ele>
        <time>2022-09-24T14:28:36.000Z</time>
      </trkpt>
      <trkpt lat="45.83612" lon="4.72699">
        <ele>264.48187</ele>
        <time>2022-09-24T14:28:37.000Z</time>
      </trkpt>
      <trkpt lat="45.83609" lon="4.72701">
        <ele>264.57034</ele>
        <time>2022-09-24T14:28:38.000Z</time>
      </trkpt>
      <trkpt lat="45.83606" lon="4.72703">
        <ele>264.69806</ele>
        <time>2022-09-24T14:28:39.000Z</time>
      </trkpt>
      <trkpt lat="45.83604" lon="4.72704">
        <ele>264.73071</ele>
        <time>2022-09-24T14:28:40.000Z</time>
      </trkpt>
      <trkpt lat="45.83601" lon="4.72706">
        <ele>264.78207</ele>
        <time>2022-09-24T14:28:41.000Z</time>
      </trkpt>
      <trkpt lat="45.83599" lon="4.72707">
        <ele>264.88943</ele>
        <time>2022-09-24T14:28:42.000Z</time>
      </trkpt>
      <trkpt lat="45.83595" lon="4.72708">
        <ele>264.91513</ele>
        <time>2022-09-24T14:28:43.000Z</time>
      </trkpt>
      <trkpt lat="45.83592" lon="4.72711">
        <ele>264.96661</ele>
        <time>2022-09-24T14:28:44.000Z</time>
      </trkpt>
      <trkpt lat="45.83589" lon="4.72714">
        <ele>265.06537</ele>
        <time>2022-09-24T14:28:45.000Z</time>
      </trkpt>
      <trkpt lat="45.83586" lon="4.72717">
        <ele>265.21896</ele>
        <time>2022-09-24T14:28:46.000Z</time>
      </trkpt>
      <trkpt lat="45.83582" lon="4.72721">
        <ele>265.42493</ele>
        <time>2022-09-24T14:28:47.000Z</time>
      </trkpt>
      <trkpt lat="45.83579" lon="4.72724">
        <ele>265.55695</ele>
        <time>2022-09-24T14:28:48.000Z</time>
      </trkpt>
      <trkpt lat="45.83576" lon="4.72728">
        <ele>265.7511</ele>
        <time>2022-09-24T14:28:49.000Z</time>
      </trkpt>
      <trkpt lat="45.83572" lon="4.72731">
        <ele>265.92545</ele>
        <time>2022-09-24T14:28:50.000Z</time>
      </trkpt>
      <trkpt lat="45.83568" lon="4.72733">
        <ele>266.11313</ele>
        <time>2022-09-24T14:28:51.000Z</time>
      </trkpt>
      <trkpt lat="45.83564" lon="4.72735">
        <ele>266.32065</ele>
        <time>2022-09-24T14:28:52.000Z</time>
      </trkpt>
      <trkpt lat="45.83559" lon="4.72737">
        <ele>266.49725</ele>
        <time>2022-09-24T14:28:53.000Z</time>
      </trkpt>
      <trkpt lat="45.83555" lon="4.72738">
        <ele>266.73712</ele>
        <time>2022-09-24T14:28:54.000Z</time>
      </trkpt>
      <trkpt lat="45.83551" lon="4.72739">
        <ele>267.01166</ele>
        <time>2022-09-24T14:28:55.000Z</time>
      </trkpt>
      <trkpt lat="45.83547" lon="4.72741">
        <ele>267.24756</ele>
        <time>2022-09-24T14:28:56.000Z</time>
      </trkpt>
      <trkpt lat="45.83543" lon="4.72743">
        <ele>267.43341</ele>
        <time>2022-09-24T14:28:57.000Z</time>
      </trkpt>
      <trkpt lat="45.83538" lon="4.72744">
        <ele>267.59698</ele>
        <time>2022-09-24T14:28:58.000Z</time>
      </trkpt>
      <trkpt lat="45.83534" lon="4.72746">
        <ele>267.69659</ele>
        <time>2022-09-24T14:28:59.000Z</time>
      </trkpt>
      <trkpt lat="45.83529" lon="4.72748">
        <ele>267.83942</ele>
        <time>2022-09-24T14:29:00.000Z</time>
      </trkpt>
      <trkpt lat="45.83525" lon="4.72749">
        <ele>267.94537</ele>
        <time>2022-09-24T14:29:01.000Z</time>
      </trkpt>
      <trkpt lat="45.83518" lon="4.7275">
        <ele>267.98804</ele>
        <time>2022-09-24T14:29:02.000Z</time>
      </trkpt>
      <trkpt lat="45.83513" lon="4.72751">
        <ele>268.08405</ele>
        <time>2022-09-24T14:29:03.000Z</time>
      </trkpt>
      <trkpt lat="45.83508" lon="4.72754">
        <ele>268.11221</ele>
        <time>2022-09-24T14:29:04.000Z</time>
      </trkpt>
      <trkpt lat="45.83505" lon="4.72756">
        <ele>268.26678</ele>
        <time>2022-09-24T14:29:05.000Z</time>
      </trkpt>
      <trkpt lat="45.835" lon="4.72759">
        <ele>268.33276</ele>
        <time>2022-09-24T14:29:06.000Z</time>
      </trkpt>
      <trkpt lat="45.83496" lon="4.72761">
        <ele>268.36584</ele>
        <time>2022-09-24T14:29:07.000Z</time>
      </trkpt>
      <trkpt lat="45.83491" lon="4.72762">
        <ele>268.34329</ele>
        <time>2022-09-24T14:29:08.000Z</time>
      </trkpt>
      <trkpt lat="45.83487" lon="4.72763">
        <ele>268.29236</ele>
        <time>2022-09-24T14:29:09.000Z</time>
      </trkpt>
      <trkpt lat="45.83481" lon="4.72763">
        <ele>268.2193</ele>
        <time>2022-09-24T14:29:10.000Z</time>
      </trkpt>
      <trkpt lat="45.83478" lon="4.72763">
        <ele>268.117</ele>
        <time>2022-09-24T14:29:11.000Z</time>
      </trkpt>
      <trkpt lat="45.83472" lon="4.72767">
        <ele>267.96329</ele>
        <time>2022-09-24T14:29:12.000Z</time>
      </trkpt>
      <trkpt lat="45.83468" lon="4.72769">
        <ele>267.82288</ele>
        <time>2022-09-24T14:29:13.000Z</time>
      </trkpt>
      <trkpt lat="45.83462" lon="4.7277">
        <ele>267.65948</ele>
        <time>2022-09-24T14:29:14.000Z</time>
      </trkpt>
      <trkpt lat="45.83458" lon="4.7277">
        <ele>267.5517</ele>
        <time>2022-09-24T14:29:15.000Z</time>
      </trkpt>
      <trkpt lat="45.83452" lon="4.72772">
        <ele>267.48608</ele>
        <time>2022-09-24T14:29:16.000Z</time>
      </trkpt>
      <trkpt lat="45.83446" lon="4.72773">
        <ele>267.42697</ele>
        <time>2022-09-24T14:29:17.000Z</time>
      </trkpt>
      <trkpt lat="45.83441" lon="4.72774">
        <ele>267.35129</ele>
        <time>2022-09-24T14:29:18.000Z</time>
      </trkpt>
      <trkpt lat="45.83436" lon="4.72775">
        <ele>267.3046</ele>
        <time>2022-09-24T14:29:19.000Z</time>
      </trkpt>
      <trkpt lat="45.83431" lon="4.72779">
        <ele>267.17542</ele>
        <time>2022-09-24T14:29:20.000Z</time>
      </trkpt>
      <trkpt lat="45.83427" lon="4.72783">
        <ele>267.01276</ele>
        <time>2022-09-24T14:29:21.000Z</time>
      </trkpt>
      <trkpt lat="45.83425" lon="4.72785">
        <ele>266.83838</ele>
        <time>2022-09-24T14:29:22.000Z</time>
      </trkpt>
      <trkpt lat="45.83424" lon="4.72793">
        <ele>266.67719</ele>
        <time>2022-09-24T14:29:23.000Z</time>
      </trkpt>
      <trkpt lat="45.83425" lon="4.728">
        <ele>266.45078</ele>
        <time>2022-09-24T14:29:24.000Z</time>
      </trkpt>
      <trkpt lat="45.83424" lon="4.72807">
        <ele>266.0816</ele>
        <time>2022-09-24T14:29:25.000Z</time>
      </trkpt>
      <trkpt lat="45.83424" lon="4.72814">
        <ele>265.81256</ele>
        <time>2022-09-24T14:29:26.000Z</time>
      </trkpt>
      <trkpt lat="45.83424" lon="4.72819">
        <ele>265.52585</ele>
        <time>2022-09-24T14:29:27.000Z</time>
      </trkpt>
      <trkpt lat="45.83424" lon="4.72824">
        <ele>265.37473</ele>
        <time>2022-09-24T14:29:28.000Z</time>
      </trkpt>
      <trkpt lat="45.83424" lon="4.72829">
        <ele>265.22321</ele>
        <time>2022-09-24T14:29:29.000Z</time>
      </trkpt>
      <trkpt lat="45.83424" lon="4.72833">
        <ele>265.05197</ele>
        <time>2022-09-24T14:29:30.000Z</time>
      </trkpt>
      <trkpt lat="45.83425" lon="4.72839">
        <ele>264.88528</ele>
        <time>2022-09-24T14:29:31.000Z</time>
      </trkpt>
      <trkpt lat="45.83426" lon="4.72844">
        <ele>264.8443</ele>
        <time>2022-09-24T14:29:32.000Z</time>
      </trkpt>
      <trkpt lat="45.83427" lon="4.72849">
        <ele>264.84921</ele>
        <time>2022-09-24T14:29:33.000Z</time>
      </trkpt>
      <trkpt lat="45.83428" lon="4.72853">
        <ele>264.82928</ele>
        <time>2022-09-24T14:29:34.000Z</time>
      </trkpt>
      <trkpt lat="45.83429" lon="4.72858">
        <ele>264.70383</ele>
        <time>2022-09-24T14:29:35.000Z</time>
      </trkpt>
      <trkpt lat="45.83431" lon="4.72864">
        <ele>264.59021</ele>
        <time>2022-09-24T14:29:36.000Z</time>
      </trkpt>
      <trkpt lat="45.83432" lon="4.72869">
        <ele>264.48465</ele>
        <time>2022-09-24T14:29:37.000Z</time>
      </trkpt>
      <trkpt lat="45.83433" lon="4.72874">
        <ele>264.34064</ele>
        <time>2022-09-24T14:29:38.000Z</time>
      </trkpt>
      <trkpt lat="45.83434" lon="4.72879">
        <ele>264.24179</ele>
        <time>2022-09-24T14:29:39.000Z</time>
      </trkpt>
      <trkpt lat="45.83435" lon="4.72884">
        <ele>264.2103</ele>
        <time>2022-09-24T14:29:40.000Z</time>
      </trkpt>
      <trkpt lat="45.83435" lon="4.72889">
        <ele>264.17975</ele>
        <time>2022-09-24T14:29:41.000Z</time>
      </trkpt>
      <trkpt lat="45.83436" lon="4.72894">
        <ele>264.23932</ele>
        <time>2022-09-24T14:29:42.000Z</time>
      </trkpt>
      <trkpt lat="45.83437" lon="4.72899">
        <ele>264.34229</ele>
        <time>2022-09-24T14:29:43.000Z</time>
      </trkpt>
      <trkpt lat="45.83438" lon="4.72905">
        <ele>264.65604</ele>
        <time>2022-09-24T14:29:44.000Z</time>
      </trkpt>
      <trkpt lat="45.83439" lon="4.7291">
        <ele>265.10724</ele>
        <time>2022-09-24T14:29:45.000Z</time>
      </trkpt>
      <trkpt lat="45.83441" lon="4.72915">
        <ele>265.50726</ele>
        <time>2022-09-24T14:29:46.000Z</time>
      </trkpt>
      <trkpt lat="45.83442" lon="4.72919">
        <ele>265.94684</ele>
        <time>2022-09-24T14:29:47.000Z</time>
      </trkpt>
      <trkpt lat="45.83444" lon="4.72924">
        <ele>266.30121</ele>
        <time>2022-09-24T14:29:48.000Z</time>
      </trkpt>
      <trkpt lat="45.83445" lon="4.72928">
        <ele>266.62189</ele>
        <time>2022-09-24T14:29:49.000Z</time>
      </trkpt>
      <trkpt lat="45.83447" lon="4.72932">
        <ele>266.99188</ele>
        <time>2022-09-24T14:29:50.000Z</time>
      </trkpt>
      <trkpt lat="45.83449" lon="4.72937">
        <ele>267.28253</ele>
        <time>2022-09-24T14:29:51.000Z</time>
      </trkpt>
      <trkpt lat="45.83451" lon="4.72942">
        <ele>267.45493</ele>
        <time>2022-09-24T14:29:52.000Z</time>
      </trkpt>
      <trkpt lat="45.83453" lon="4.72947">
        <ele>267.63092</ele>
        <time>2022-09-24T14:29:53.000Z</time>
      </trkpt>
      <trkpt lat="45.83455" lon="4.72951">
        <ele>267.81943</ele>
        <time>2022-09-24T14:29:54.000Z</time>
      </trkpt>
      <trkpt lat="45.83457" lon="4.72955">
        <ele>268.13348</ele>
        <time>2022-09-24T14:29:55.000Z</time>
      </trkpt>
      <trkpt lat="45.83459" lon="4.7296">
        <ele>268.41165</ele>
        <time>2022-09-24T14:29:56.000Z</time>
      </trkpt>
      <trkpt lat="45.83461" lon="4.72965">
        <ele>268.75885</ele>
        <time>2022-09-24T14:29:57.000Z</time>
      </trkpt>
      <trkpt lat="45.83462" lon="4.7297">
        <ele>269.05414</ele>
        <time>2022-09-24T14:29:58.000Z</time>
      </trkpt>
      <trkpt lat="45.83464" lon="4.72975">
        <ele>269.34848</ele>
        <time>2022-09-24T14:29:59.000Z</time>
      </trkpt>
      <trkpt lat="45.83465" lon="4.72979">
        <ele>269.63141</ele>
        <time>2022-09-24T14:30:00.000Z</time>
      </trkpt>
      <trkpt lat="45.83467" lon="4.72984">
        <ele>270.01068</ele>
        <time>2022-09-24T14:30:01.000Z</time>
      </trkpt>
      <trkpt lat="45.83468" lon="4.72989">
        <ele>270.3833</ele>
        <time>2022-09-24T14:30:02.000Z</time>
      </trkpt>
      <trkpt lat="45.83469" lon="4.72995">
        <ele>270.67462</ele>
        <time>2022-09-24T14:30:03.000Z</time>
      </trkpt>
      <trkpt lat="45.8347" lon="4.73001">
        <ele>270.83124</ele>
        <time>2022-09-24T14:30:04.000Z</time>
      </trkpt>
      <trkpt lat="45.83471" lon="4.73006">
        <ele>270.90845</ele>
        <time>2022-09-24T14:30:05.000Z</time>
      </trkpt>
      <trkpt lat="45.83473" lon="4.73011">
        <ele>270.98083</ele>
        <time>2022-09-24T14:30:06.000Z</time>
      </trkpt>
      <trkpt lat="45.83475" lon="4.73016">
        <ele>271.01529</ele>
        <time>2022-09-24T14:30:07.000Z</time>
      </trkpt>
      <trkpt lat="45.83478" lon="4.73021">
        <ele>271.12738</ele>
        <time>2022-09-24T14:30:08.000Z</time>
      </trkpt>
      <trkpt lat="45.83481" lon="4.73025">
        <ele>271.28067</ele>
        <time>2022-09-24T14:30:09.000Z</time>
      </trkpt>
      <trkpt lat="45.83484" lon="4.73029">
        <ele>271.62274</ele>
        <time>2022-09-24T14:30:10.000Z</time>
      </trkpt>
      <trkpt lat="45.83487" lon="4.73033">
        <ele>272.09723</ele>
        <time>2022-09-24T14:30:11.000Z</time>
      </trkpt>
      <trkpt lat="45.83491" lon="4.73037">
        <ele>272.57986</ele>
        <time>2022-09-24T14:30:12.000Z</time>
      </trkpt>
      <trkpt lat="45.83494" lon="4.7304">
        <ele>273.08783</ele>
        <time>2022-09-24T14:30:13.000Z</time>
      </trkpt>
      <trkpt lat="45.83498" lon="4.73044">
        <ele>273.56421</ele>
        <time>2022-09-24T14:30:14.000Z</time>
      </trkpt>
      <trkpt lat="45.83501" lon="4.73047">
        <ele>273.96539</ele>
        <time>2022-09-24T14:30:15.000Z</time>
      </trkpt>
      <trkpt lat="45.83505" lon="4.73052">
        <ele>274.38315</ele>
        <time>2022-09-24T14:30:16.000Z</time>
      </trkpt>
      <trkpt lat="45.83508" lon="4.73056">
        <ele>274.72559</ele>
        <time>2022-09-24T14:30:17.000Z</time>
      </trkpt>
      <trkpt lat="45.83511" lon="4.73059">
        <ele>275.12991</ele>
        <time>2022-09-24T14:30:18.000Z</time>
      </trkpt>
      <trkpt lat="45.83514" lon="4.73062">
        <ele>275.45132</ele>
        <time>2022-09-24T14:30:19.000Z</time>
      </trkpt>
      <trkpt lat="45.83518" lon="4.73065">
        <ele>275.75067</ele>
        <time>2022-09-24T14:30:20.000Z</time>
      </trkpt>
      <trkpt lat="45.83521" lon="4.73066">
        <ele>276.02521</ele>
        <time>2022-09-24T14:30:21.000Z</time>
      </trkpt>
      <trkpt lat="45.83524" lon="4.73068">
        <ele>276.28241</ele>
        <time>2022-09-24T14:30:22.000Z</time>
      </trkpt>
      <trkpt lat="45.83526" lon="4.73068">
        <ele>276.60974</ele>
        <time>2022-09-24T14:30:23.000Z</time>
      </trkpt>
      <trkpt lat="45.83529" lon="4.73067">
        <ele>276.90247</ele>
        <time>2022-09-24T14:30:24.000Z</time>
      </trkpt>
      <trkpt lat="45.83532" lon="4.73067">
        <ele>277.09796</ele>
        <time>2022-09-24T14:30:25.000Z</time>
      </trkpt>
      <trkpt lat="45.83536" lon="4.73067">
        <ele>277.27609</ele>
        <time>2022-09-24T14:30:26.000Z</time>
      </trkpt>
      <trkpt lat="45.83539" lon="4.73067">
        <ele>277.52045</ele>
        <time>2022-09-24T14:30:27.000Z</time>
      </trkpt>
      <trkpt lat="45.83543" lon="4.73066">
        <ele>277.7728</ele>
        <time>2022-09-24T14:30:28.000Z</time>
      </trkpt>
      <trkpt lat="45.83546" lon="4.73065">
        <ele>278.00418</ele>
        <time>2022-09-24T14:30:29.000Z</time>
      </trkpt>
      <trkpt lat="45.8355" lon="4.73063">
        <ele>278.07025</ele>
        <time>2022-09-24T14:30:30.000Z</time>
      </trkpt>
      <trkpt lat="45.83553" lon="4.73062">
        <ele>278.07791</ele>
        <time>2022-09-24T14:30:31.000Z</time>
      </trkpt>
      <trkpt lat="45.83557" lon="4.7306">
        <ele>278.12814</ele>
        <time>2022-09-24T14:30:32.000Z</time>
      </trkpt>
      <trkpt lat="45.83561" lon="4.73058">
        <ele>278.13983</ele>
        <time>2022-09-24T14:30:33.000Z</time>
      </trkpt>
      <trkpt lat="45.83565" lon="4.73057">
        <ele>278.1727</ele>
        <time>2022-09-24T14:30:34.000Z</time>
      </trkpt>
      <trkpt lat="45.83569" lon="4.73057">
        <ele>278.17072</ele>
        <time>2022-09-24T14:30:35.000Z</time>
      </trkpt>
      <trkpt lat="45.83574" lon="4.73056">
        <ele>278.20291</ele>
        <time>2022-09-24T14:30:36.000Z</time>
      </trkpt>
      <trkpt lat="45.83578" lon="4.73056">
        <ele>278.22552</ele>
        <time>2022-09-24T14:30:37.000Z</time>
      </trkpt>
      <trkpt lat="45.83582" lon="4.73055">
        <ele>278.27405</ele>
        <time>2022-09-24T14:30:38.000Z</time>
      </trkpt>
      <trkpt lat="45.83587" lon="4.73053">
        <ele>278.24725</ele>
        <time>2022-09-24T14:30:39.000Z</time>
      </trkpt>
      <trkpt lat="45.83592" lon="4.73052">
        <ele>278.28</ele>
        <time>2022-09-24T14:30:40.000Z</time>
      </trkpt>
      <trkpt lat="45.83596" lon="4.7305">
        <ele>278.20499</ele>
        <time>2022-09-24T14:30:41.000Z</time>
      </trkpt>
      <trkpt lat="45.83603" lon="4.73048">
        <ele>278.11371</ele>
        <time>2022-09-24T14:30:42.000Z</time>
      </trkpt>
      <trkpt lat="45.83607" lon="4.73046">
        <ele>278.01691</ele>
        <time>2022-09-24T14:30:43.000Z</time>
      </trkpt>
      <trkpt lat="45.83611" lon="4.73044">
        <ele>277.89682</ele>
        <time>2022-09-24T14:30:44.000Z</time>
      </trkpt>
      <trkpt lat="45.83616" lon="4.73042">
        <ele>277.8923</ele>
        <time>2022-09-24T14:30:45.000Z</time>
      </trkpt>
      <trkpt lat="45.83618" lon="4.7304">
        <ele>277.8768</ele>
        <time>2022-09-24T14:30:46.000Z</time>
      </trkpt>
      <trkpt lat="45.83622" lon="4.73039">
        <ele>277.80377</ele>
        <time>2022-09-24T14:30:47.000Z</time>
      </trkpt>
      <trkpt lat="45.83627" lon="4.73038">
        <ele>277.64926</ele>
        <time>2022-09-24T14:30:48.000Z</time>
      </trkpt>
      <trkpt lat="45.83634" lon="4.73036">
        <ele>277.46725</ele>
        <time>2022-09-24T14:30:49.000Z</time>
      </trkpt>
      <trkpt lat="45.8364" lon="4.73032">
        <ele>277.19482</ele>
        <time>2022-09-24T14:30:50.000Z</time>
      </trkpt>
      <trkpt lat="45.83646" lon="4.7303">
        <ele>276.87585</ele>
        <time>2022-09-24T14:30:51.000Z</time>
      </trkpt>
      <trkpt lat="45.83655" lon="4.73027">
        <ele>276.53293</ele>
        <time>2022-09-24T14:30:52.000Z</time>
      </trkpt>
      <trkpt lat="45.83663" lon="4.73027">
        <ele>276.12622</ele>
        <time>2022-09-24T14:30:53.000Z</time>
      </trkpt>
      <trkpt lat="45.83671" lon="4.73024">
        <ele>275.66086</ele>
        <time>2022-09-24T14:30:54.000Z</time>
      </trkpt>
      <trkpt lat="45.8368" lon="4.73023">
        <ele>275.07169</ele>
        <time>2022-09-24T14:30:55.000Z</time>
      </trkpt>
      <trkpt lat="45.83689" lon="4.73023">
        <ele>274.36823</ele>
        <time>2022-09-24T14:30:56.000Z</time>
      </trkpt>
      <trkpt lat="45.83698" lon="4.73023">
        <ele>273.69415</ele>
        <time>2022-09-24T14:30:57.000Z</time>
      </trkpt>
      <trkpt lat="45.83706" lon="4.7302">
        <ele>273.02216</ele>
        <time>2022-09-24T14:30:58.000Z</time>
      </trkpt>
      <trkpt lat="45.83715" lon="4.73015">
        <ele>272.40808</ele>
        <time>2022-09-24T14:30:59.000Z</time>
      </trkpt>
      <trkpt lat="45.83721" lon="4.73013">
        <ele>271.64188</ele>
        <time>2022-09-24T14:31:00.000Z</time>
      </trkpt>
      <trkpt lat="45.83725" lon="4.73014">
        <ele>270.94034</ele>
        <time>2022-09-24T14:31:01.000Z</time>
      </trkpt>
      <trkpt lat="45.83729" lon="4.73017">
        <ele>270.28918</ele>
        <time>2022-09-24T14:31:02.000Z</time>
      </trkpt>
      <trkpt lat="45.83733" lon="4.7302">
        <ele>269.62225</ele>
        <time>2022-09-24T14:31:03.000Z</time>
      </trkpt>
      <trkpt lat="45.83734" lon="4.73022">
        <ele>269.02029</ele>
        <time>2022-09-24T14:31:04.000Z</time>
      </trkpt>
      <trkpt lat="45.83737" lon="4.73025">
        <ele>268.39169</ele>
        <time>2022-09-24T14:31:05.000Z</time>
      </trkpt>
      <trkpt lat="45.83738" lon="4.73029">
        <ele>267.7919</ele>
        <time>2022-09-24T14:31:06.000Z</time>
      </trkpt>
      <trkpt lat="45.83739" lon="4.73032">
        <ele>267.14407</ele>
        <time>2022-09-24T14:31:07.000Z</time>
      </trkpt>
      <trkpt lat="45.83739" lon="4.73037">
        <ele>266.44965</ele>
        <time>2022-09-24T14:31:08.000Z</time>
      </trkpt>
      <trkpt lat="45.83741" lon="4.73042">
        <ele>265.83069</ele>
        <time>2022-09-24T14:31:09.000Z</time>
      </trkpt>
      <trkpt lat="45.83742" lon="4.73047">
        <ele>265.28107</ele>
        <time>2022-09-24T14:31:10.000Z</time>
      </trkpt>
      <trkpt lat="45.83743" lon="4.73053">
        <ele>264.72217</ele>
        <time>2022-09-24T14:31:11.000Z</time>
      </trkpt>
      <trkpt lat="45.83744" lon="4.73058">
        <ele>264.23932</ele>
        <time>2022-09-24T14:31:12.000Z</time>
      </trkpt>
      <trkpt lat="45.83744" lon="4.73063">
        <ele>263.77759</ele>
        <time>2022-09-24T14:31:13.000Z</time>
      </trkpt>
      <trkpt lat="45.83743" lon="4.73068">
        <ele>263.33569</ele>
        <time>2022-09-24T14:31:14.000Z</time>
      </trkpt>
      <trkpt lat="45.83742" lon="4.73072">
        <ele>263.00824</ele>
        <time>2022-09-24T14:31:15.000Z</time>
      </trkpt>
      <trkpt lat="45.83741" lon="4.73077">
        <ele>262.8042</ele>
        <time>2022-09-24T14:31:16.000Z</time>
      </trkpt>
      <trkpt lat="45.83741" lon="4.7308">
        <ele>262.70081</ele>
        <time>2022-09-24T14:31:17.000Z</time>
      </trkpt>
      <trkpt lat="45.83741" lon="4.73084">
        <ele>262.61945</ele>
        <time>2022-09-24T14:31:18.000Z</time>
      </trkpt>
      <trkpt lat="45.83742" lon="4.73087">
        <ele>262.53015</ele>
        <time>2022-09-24T14:31:19.000Z</time>
      </trkpt>
      <trkpt lat="45.83744" lon="4.73092">
        <ele>262.55023</ele>
        <time>2022-09-24T14:31:20.000Z</time>
      </trkpt>
      <trkpt lat="45.83747" lon="4.73097">
        <ele>262.59442</ele>
        <time>2022-09-24T14:31:21.000Z</time>
      </trkpt>
      <trkpt lat="45.83749" lon="4.73102">
        <ele>262.55246</ele>
        <time>2022-09-24T14:31:22.000Z</time>
      </trkpt>
      <trkpt lat="45.83751" lon="4.73106">
        <ele>262.52673</ele>
        <time>2022-09-24T14:31:23.000Z</time>
      </trkpt>
      <trkpt lat="45.83754" lon="4.73111">
        <ele>262.50708</ele>
        <time>2022-09-24T14:31:24.000Z</time>
      </trkpt>
      <trkpt lat="45.83756" lon="4.73114">
        <ele>262.53799</ele>
        <time>2022-09-24T14:31:25.000Z</time>
      </trkpt>
      <trkpt lat="45.83758" lon="4.73117">
        <ele>262.60852</ele>
        <time>2022-09-24T14:31:26.000Z</time>
      </trkpt>
      <trkpt lat="45.83761" lon="4.7312">
        <ele>262.79099</ele>
        <time>2022-09-24T14:31:27.000Z</time>
      </trkpt>
      <trkpt lat="45.83763" lon="4.73123">
        <ele>263.04807</ele>
        <time>2022-09-24T14:31:28.000Z</time>
      </trkpt>
      <trkpt lat="45.83765" lon="4.73126">
        <ele>263.16367</ele>
        <time>2022-09-24T14:31:29.000Z</time>
      </trkpt>
      <trkpt lat="45.83767" lon="4.73129">
        <ele>263.37085</ele>
        <time>2022-09-24T14:31:30.000Z</time>
      </trkpt>
      <trkpt lat="45.83768" lon="4.73133">
        <ele>263.5719</ele>
        <time>2022-09-24T14:31:31.000Z</time>
      </trkpt>
      <trkpt lat="45.83769" lon="4.73137">
        <ele>263.7518</ele>
        <time>2022-09-24T14:31:32.000Z</time>
      </trkpt>
      <trkpt lat="45.8377" lon="4.73141">
        <ele>264.00049</ele>
        <time>2022-09-24T14:31:33.000Z</time>
      </trkpt>
      <trkpt lat="45.83771" lon="4.73145">
        <ele>264.32013</ele>
        <time>2022-09-24T14:31:34.000Z</time>
      </trkpt>
      <trkpt lat="45.83773" lon="4.73149">
        <ele>264.75043</ele>
        <time>2022-09-24T14:31:35.000Z</time>
      </trkpt>
      <trkpt lat="45.83774" lon="4.73154">
        <ele>265.16574</ele>
        <time>2022-09-24T14:31:36.000Z</time>
      </trkpt>
      <trkpt lat="45.83775" lon="4.73159">
        <ele>265.48514</ele>
        <time>2022-09-24T14:31:37.000Z</time>
      </trkpt>
      <trkpt lat="45.83775" lon="4.73163">
        <ele>265.79529</ele>
        <time>2022-09-24T14:31:38.000Z</time>
      </trkpt>
      <trkpt lat="45.83776" lon="4.73166">
        <ele>266.20038</ele>
        <time>2022-09-24T14:31:39.000Z</time>
      </trkpt>
      <trkpt lat="45.83776" lon="4.7317">
        <ele>266.64828</ele>
        <time>2022-09-24T14:31:40.000Z</time>
      </trkpt>
      <trkpt lat="45.83777" lon="4.73174">
        <ele>267.15417</ele>
        <time>2022-09-24T14:31:41.000Z</time>
      </trkpt>
      <trkpt lat="45.83777" lon="4.73179">
        <ele>267.69989</ele>
        <time>2022-09-24T14:31:42.000Z</time>
      </trkpt>
      <trkpt lat="45.83777" lon="4.73183">
        <ele>268.1806</ele>
        <time>2022-09-24T14:31:43.000Z</time>
      </trkpt>
      <trkpt lat="45.83775" lon="4.73185">
        <ele>268.62851</ele>
        <time>2022-09-24T14:31:44.000Z</time>
      </trkpt>
      <trkpt lat="45.83773" lon="4.73188">
        <ele>269.01859</ele>
        <time>2022-09-24T14:31:45.000Z</time>
      </trkpt>
      <trkpt lat="45.8377" lon="4.7319">
        <ele>269.4021</ele>
        <time>2022-09-24T14:31:46.000Z</time>
      </trkpt>
      <trkpt lat="45.83768" lon="4.73192">
        <ele>269.79776</ele>
        <time>2022-09-24T14:31:47.000Z</time>
      </trkpt>
      <trkpt lat="45.83765" lon="4.73194">
        <ele>270.17093</ele>
        <time>2022-09-24T14:31:48.000Z</time>
      </trkpt>
      <trkpt lat="45.83762" lon="4.73197">
        <ele>270.64972</ele>
        <time>2022-09-24T14:31:49.000Z</time>
      </trkpt>
      <trkpt lat="45.83759" lon="4.732">
        <ele>271.03412</ele>
        <time>2022-09-24T14:31:50.000Z</time>
      </trkpt>
      <trkpt lat="45.83757" lon="4.73203">
        <ele>271.53842</ele>
        <time>2022-09-24T14:31:51.000Z</time>
      </trkpt>
      <trkpt lat="45.83754" lon="4.73205">
        <ele>272.05865</ele>
        <time>2022-09-24T14:31:52.000Z</time>
      </trkpt>
      <trkpt lat="45.83751" lon="4.73208">
        <ele>272.53476</ele>
        <time>2022-09-24T14:31:53.000Z</time>
      </trkpt>
      <trkpt lat="45.83748" lon="4.7321">
        <ele>272.98438</ele>
        <time>2022-09-24T14:31:54.000Z</time>
      </trkpt>
      <trkpt lat="45.83745" lon="4.73213">
        <ele>273.32098</ele>
        <time>2022-09-24T14:31:55.000Z</time>
      </trkpt>
      <trkpt lat="45.83741" lon="4.73216">
        <ele>273.62665</ele>
        <time>2022-09-24T14:31:56.000Z</time>
      </trkpt>
      <trkpt lat="45.83738" lon="4.73219">
        <ele>273.98752</ele>
        <time>2022-09-24T14:31:57.000Z</time>
      </trkpt>
      <trkpt lat="45.83735" lon="4.73223">
        <ele>274.33472</ele>
        <time>2022-09-24T14:31:58.000Z</time>
      </trkpt>
      <trkpt lat="45.83732" lon="4.73226">
        <ele>274.6499</ele>
        <time>2022-09-24T14:31:59.000Z</time>
      </trkpt>
      <trkpt lat="45.83729" lon="4.73229">
        <ele>274.91232</ele>
        <time>2022-09-24T14:32:00.000Z</time>
      </trkpt>
      <trkpt lat="45.83727" lon="4.73232">
        <ele>275.17099</ele>
        <time>2022-09-24T14:32:01.000Z</time>
      </trkpt>
      <trkpt lat="45.83724" lon="4.73234">
        <ele>275.45126</ele>
        <time>2022-09-24T14:32:02.000Z</time>
      </trkpt>
      <trkpt lat="45.83722" lon="4.73238">
        <ele>275.82382</ele>
        <time>2022-09-24T14:32:03.000Z</time>
      </trkpt>
      <trkpt lat="45.83719" lon="4.73241">
        <ele>276.21796</ele>
        <time>2022-09-24T14:32:04.000Z</time>
      </trkpt>
      <trkpt lat="45.83716" lon="4.73245">
        <ele>276.56192</ele>
        <time>2022-09-24T14:32:05.000Z</time>
      </trkpt>
      <trkpt lat="45.83714" lon="4.73249">
        <ele>276.84369</ele>
        <time>2022-09-24T14:32:06.000Z</time>
      </trkpt>
      <trkpt lat="45.83712" lon="4.73252">
        <ele>277.03976</ele>
        <time>2022-09-24T14:32:07.000Z</time>
      </trkpt>
      <trkpt lat="45.83709" lon="4.73255">
        <ele>277.28229</ele>
        <time>2022-09-24T14:32:08.000Z</time>
      </trkpt>
      <trkpt lat="45.83706" lon="4.73259">
        <ele>277.57916</ele>
        <time>2022-09-24T14:32:09.000Z</time>
      </trkpt>
      <trkpt lat="45.83703" lon="4.73264">
        <ele>277.89005</ele>
        <time>2022-09-24T14:32:10.000Z</time>
      </trkpt>
      <trkpt lat="45.837" lon="4.73267">
        <ele>278.14157</ele>
        <time>2022-09-24T14:32:11.000Z</time>
      </trkpt>
      <trkpt lat="45.83698" lon="4.7327">
        <ele>278.34735</ele>
        <time>2022-09-24T14:32:12.000Z</time>
      </trkpt>
      <trkpt lat="45.83695" lon="4.73272">
        <ele>278.57974</ele>
        <time>2022-09-24T14:32:13.000Z</time>
      </trkpt>
      <trkpt lat="45.83692" lon="4.73276">
        <ele>278.85214</ele>
        <time>2022-09-24T14:32:14.000Z</time>
      </trkpt>
      <trkpt lat="45.83689" lon="4.73279">
        <ele>279.10492</ele>
        <time>2022-09-24T14:32:15.000Z</time>
      </trkpt>
      <trkpt lat="45.83687" lon="4.73283">
        <ele>279.32291</ele>
        <time>2022-09-24T14:32:16.000Z</time>
      </trkpt>
      <trkpt lat="45.83684" lon="4.73287">
        <ele>279.5325</ele>
        <time>2022-09-24T14:32:17.000Z</time>
      </trkpt>
      <trkpt lat="45.83681" lon="4.73291">
        <ele>279.76385</ele>
        <time>2022-09-24T14:32:18.000Z</time>
      </trkpt>
      <trkpt lat="45.83679" lon="4.73296">
        <ele>279.99658</ele>
        <time>2022-09-24T14:32:19.000Z</time>
      </trkpt>
      <trkpt lat="45.83676" lon="4.733">
        <ele>280.25467</ele>
        <time>2022-09-24T14:32:20.000Z</time>
      </trkpt>
      <trkpt lat="45.83673" lon="4.73305">
        <ele>280.44727</ele>
        <time>2022-09-24T14:32:21.000Z</time>
      </trkpt>
      <trkpt lat="45.83671" lon="4.73309">
        <ele>280.57269</ele>
        <time>2022-09-24T14:32:22.000Z</time>
      </trkpt>
      <trkpt lat="45.83668" lon="4.73313">
        <ele>280.69128</ele>
        <time>2022-09-24T14:32:23.000Z</time>
      </trkpt>
      <trkpt lat="45.83666" lon="4.73318">
        <ele>280.75781</ele>
        <time>2022-09-24T14:32:24.000Z</time>
      </trkpt>
      <trkpt lat="45.83663" lon="4.73322">
        <ele>280.90753</ele>
        <time>2022-09-24T14:32:25.000Z</time>
      </trkpt>
      <trkpt lat="45.83661" lon="4.73327">
        <ele>281.12241</ele>
        <time>2022-09-24T14:32:26.000Z</time>
      </trkpt>
      <trkpt lat="45.83659" lon="4.73336">
        <ele>281.41217</ele>
        <time>2022-09-24T14:32:27.000Z</time>
      </trkpt>
      <trkpt lat="45.83656" lon="4.7334">
        <ele>281.71527</ele>
        <time>2022-09-24T14:32:28.000Z</time>
      </trkpt>
      <trkpt lat="45.83654" lon="4.73344">
        <ele>281.96817</ele>
        <time>2022-09-24T14:32:29.000Z</time>
      </trkpt>
      <trkpt lat="45.83652" lon="4.73349">
        <ele>282.22504</ele>
        <time>2022-09-24T14:32:30.000Z</time>
      </trkpt>
      <trkpt lat="45.8365" lon="4.73354">
        <ele>282.45517</ele>
        <time>2022-09-24T14:32:31.000Z</time>
      </trkpt>
      <trkpt lat="45.83648" lon="4.7336">
        <ele>282.67184</ele>
        <time>2022-09-24T14:32:32.000Z</time>
      </trkpt>
      <trkpt lat="45.83648" lon="4.73366">
        <ele>282.87897</ele>
        <time>2022-09-24T14:32:33.000Z</time>
      </trkpt>
      <trkpt lat="45.83647" lon="4.73373">
        <ele>283.00693</ele>
        <time>2022-09-24T14:32:34.000Z</time>
      </trkpt>
      <trkpt lat="45.83647" lon="4.73378">
        <ele>283.16074</ele>
        <time>2022-09-24T14:32:35.000Z</time>
      </trkpt>
      <trkpt lat="45.83647" lon="4.73385">
        <ele>283.31049</ele>
        <time>2022-09-24T14:32:36.000Z</time>
      </trkpt>
      <trkpt lat="45.83648" lon="4.73391">
        <ele>283.42725</ele>
        <time>2022-09-24T14:32:37.000Z</time>
      </trkpt>
      <trkpt lat="45.83648" lon="4.73396">
        <ele>283.58917</ele>
        <time>2022-09-24T14:32:38.000Z</time>
      </trkpt>
      <trkpt lat="45.83649" lon="4.73401">
        <ele>283.74454</ele>
        <time>2022-09-24T14:32:39.000Z</time>
      </trkpt>
      <trkpt lat="45.8365" lon="4.73407">
        <ele>283.86853</ele>
        <time>2022-09-24T14:32:40.000Z</time>
      </trkpt>
      <trkpt lat="45.83651" lon="4.73414">
        <ele>284.07077</ele>
        <time>2022-09-24T14:32:41.000Z</time>
      </trkpt>
      <trkpt lat="45.83653" lon="4.7342">
        <ele>284.30731</ele>
        <time>2022-09-24T14:32:42.000Z</time>
      </trkpt>
      <trkpt lat="45.83654" lon="4.73426">
        <ele>284.56393</ele>
        <time>2022-09-24T14:32:43.000Z</time>
      </trkpt>
      <trkpt lat="45.83656" lon="4.73431">
        <ele>284.8952</ele>
        <time>2022-09-24T14:32:44.000Z</time>
      </trkpt>
      <trkpt lat="45.83657" lon="4.73437">
        <ele>285.24506</ele>
        <time>2022-09-24T14:32:45.000Z</time>
      </trkpt>
      <trkpt lat="45.83658" lon="4.73443">
        <ele>285.52509</ele>
        <time>2022-09-24T14:32:46.000Z</time>
      </trkpt>
      <trkpt lat="45.83659" lon="4.73448">
        <ele>285.73361</ele>
        <time>2022-09-24T14:32:47.000Z</time>
      </trkpt>
      <trkpt lat="45.8366" lon="4.73454">
        <ele>285.90509</ele>
        <time>2022-09-24T14:32:48.000Z</time>
      </trkpt>
      <trkpt lat="45.83661" lon="4.73459">
        <ele>286.10175</ele>
        <time>2022-09-24T14:32:49.000Z</time>
      </trkpt>
      <trkpt lat="45.83662" lon="4.73465">
        <ele>286.30338</ele>
        <time>2022-09-24T14:32:50.000Z</time>
      </trkpt>
      <trkpt lat="45.83664" lon="4.7347">
        <ele>286.54279</ele>
        <time>2022-09-24T14:32:51.000Z</time>
      </trkpt>
      <trkpt lat="45.83666" lon="4.73475">
        <ele>286.80368</ele>
        <time>2022-09-24T14:32:52.000Z</time>
      </trkpt>
      <trkpt lat="45.83668" lon="4.7348">
        <ele>287.09253</ele>
        <time>2022-09-24T14:32:53.000Z</time>
      </trkpt>
      <trkpt lat="45.8367" lon="4.73485">
        <ele>287.41864</ele>
        <time>2022-09-24T14:32:54.000Z</time>
      </trkpt>
      <trkpt lat="45.83673" lon="4.73489">
        <ele>287.75409</ele>
        <time>2022-09-24T14:32:55.000Z</time>
      </trkpt>
      <trkpt lat="45.83675" lon="4.73494">
        <ele>288.12238</ele>
        <time>2022-09-24T14:32:56.000Z</time>
      </trkpt>
      <trkpt lat="45.83677" lon="4.73499">
        <ele>288.48212</ele>
        <time>2022-09-24T14:32:57.000Z</time>
      </trkpt>
      <trkpt lat="45.8368" lon="4.73504">
        <ele>288.76929</ele>
        <time>2022-09-24T14:32:58.000Z</time>
      </trkpt>
      <trkpt lat="45.83682" lon="4.73509">
        <ele>289.01678</ele>
        <time>2022-09-24T14:32:59.000Z</time>
      </trkpt>
      <trkpt lat="45.83685" lon="4.73514">
        <ele>289.3078</ele>
        <time>2022-09-24T14:33:00.000Z</time>
      </trkpt>
      <trkpt lat="45.83687" lon="4.73519">
        <ele>289.5119</ele>
        <time>2022-09-24T14:33:01.000Z</time>
      </trkpt>
      <trkpt lat="45.83689" lon="4.73524">
        <ele>289.68903</ele>
        <time>2022-09-24T14:33:02.000Z</time>
      </trkpt>
      <trkpt lat="45.83691" lon="4.73529">
        <ele>289.84274</ele>
        <time>2022-09-24T14:33:03.000Z</time>
      </trkpt>
      <trkpt lat="45.83693" lon="4.73534">
        <ele>289.9624</ele>
        <time>2022-09-24T14:33:04.000Z</time>
      </trkpt>
      <trkpt lat="45.83694" lon="4.73538">
        <ele>290.03043</ele>
        <time>2022-09-24T14:33:05.000Z</time>
      </trkpt>
      <trkpt lat="45.83696" lon="4.73543">
        <ele>290.11798</ele>
        <time>2022-09-24T14:33:06.000Z</time>
      </trkpt>
      <trkpt lat="45.83697" lon="4.73547">
        <ele>290.22391</ele>
        <time>2022-09-24T14:33:07.000Z</time>
      </trkpt>
      <trkpt lat="45.83699" lon="4.73552">
        <ele>290.33704</ele>
        <time>2022-09-24T14:33:08.000Z</time>
      </trkpt>
      <trkpt lat="45.837" lon="4.73556">
        <ele>290.42609</ele>
        <time>2022-09-24T14:33:09.000Z</time>
      </trkpt>
      <trkpt lat="45.83701" lon="4.7356">
        <ele>290.49252</ele>
        <time>2022-09-24T14:33:10.000Z</time>
      </trkpt>
      <trkpt lat="45.83703" lon="4.73565">
        <ele>290.5166</ele>
        <time>2022-09-24T14:33:11.000Z</time>
      </trkpt>
      <trkpt lat="45.83704" lon="4.73569">
        <ele>290.52496</ele>
        <time>2022-09-24T14:33:12.000Z</time>
      </trkpt>
      <trkpt lat="45.83705" lon="4.73572">
        <ele>290.47418</ele>
        <time>2022-09-24T14:33:13.000Z</time>
      </trkpt>
      <trkpt lat="45.83706" lon="4.73576">
        <ele>290.4455</ele>
        <time>2022-09-24T14:33:14.000Z</time>
      </trkpt>
      <trkpt lat="45.83707" lon="4.73578">
        <ele>290.47348</ele>
        <time>2022-09-24T14:33:15.000Z</time>
      </trkpt>
      <trkpt lat="45.83707" lon="4.73581">
        <ele>290.45139</ele>
        <time>2022-09-24T14:33:28.000Z</time>
      </trkpt>
      <trkpt lat="45.83707" lon="4.73585">
        <ele>290.34558</ele>
        <time>2022-09-24T14:34:01.000Z</time>
      </trkpt>
      <trkpt lat="45.83706" lon="4.73588">
        <ele>290.15637</ele>
        <time>2022-09-24T14:34:02.000Z</time>
      </trkpt>
      <trkpt lat="45.83704" lon="4.73591">
        <ele>290.07513</ele>
        <time>2022-09-24T14:34:03.000Z</time>
      </trkpt>
      <trkpt lat="45.83701" lon="4.73594">
        <ele>289.8931</ele>
        <time>2022-09-24T14:34:04.000Z</time>
      </trkpt>
      <trkpt lat="45.83698" lon="4.73595">
        <ele>289.72882</ele>
        <time>2022-09-24T14:34:05.000Z</time>
      </trkpt>
      <trkpt lat="45.83696" lon="4.73597">
        <ele>289.5694</ele>
        <time>2022-09-24T14:34:06.000Z</time>
      </trkpt>
      <trkpt lat="45.83693" lon="4.736">
        <ele>289.26544</ele>
        <time>2022-09-24T14:34:07.000Z</time>
      </trkpt>
      <trkpt lat="45.8369" lon="4.73602">
        <ele>288.8938</ele>
        <time>2022-09-24T14:34:08.000Z</time>
      </trkpt>
      <trkpt lat="45.83686" lon="4.73604">
        <ele>288.45227</ele>
        <time>2022-09-24T14:34:09.000Z</time>
      </trkpt>
      <trkpt lat="45.83682" lon="4.73606">
        <ele>288.03021</ele>
        <time>2022-09-24T14:34:10.000Z</time>
      </trkpt>
      <trkpt lat="45.83678" lon="4.73607">
        <ele>287.60733</ele>
        <time>2022-09-24T14:34:11.000Z</time>
      </trkpt>
      <trkpt lat="45.83674" lon="4.73609">
        <ele>287.1543</ele>
        <time>2022-09-24T14:34:12.000Z</time>
      </trkpt>
      <trkpt lat="45.83671" lon="4.7361">
        <ele>286.66998</ele>
        <time>2022-09-24T14:34:13.000Z</time>
      </trkpt>
      <trkpt lat="45.83668" lon="4.73611">
        <ele>286.1925</ele>
        <time>2022-09-24T14:34:14.000Z</time>
      </trkpt>
      <trkpt lat="45.83664" lon="4.73612">
        <ele>285.76642</ele>
        <time>2022-09-24T14:34:15.000Z</time>
      </trkpt>
      <trkpt lat="45.8366" lon="4.73612">
        <ele>285.36072</ele>
        <time>2022-09-24T14:34:16.000Z</time>
      </trkpt>
      <trkpt lat="45.83657" lon="4.73612">
        <ele>285.00739</ele>
        <time>2022-09-24T14:34:17.000Z</time>
      </trkpt>
      <trkpt lat="45.83653" lon="4.73613">
        <ele>284.70892</ele>
        <time>2022-09-24T14:34:18.000Z</time>
      </trkpt>
      <trkpt lat="45.83649" lon="4.73613">
        <ele>284.40448</ele>
        <time>2022-09-24T14:34:19.000Z</time>
      </trkpt>
      <trkpt lat="45.83644" lon="4.73614">
        <ele>284.17938</ele>
        <time>2022-09-24T14:34:20.000Z</time>
      </trkpt>
      <trkpt lat="45.8364" lon="4.73615">
        <ele>284.02335</ele>
        <time>2022-09-24T14:34:21.000Z</time>
      </trkpt>
      <trkpt lat="45.83637" lon="4.73616">
        <ele>283.84943</ele>
        <time>2022-09-24T14:34:22.000Z</time>
      </trkpt>
      <trkpt lat="45.83633" lon="4.73618">
        <ele>283.61923</ele>
        <time>2022-09-24T14:34:23.000Z</time>
      </trkpt>
      <trkpt lat="45.83629" lon="4.73619">
        <ele>283.57867</ele>
        <time>2022-09-24T14:34:24.000Z</time>
      </trkpt>
      <trkpt lat="45.83625" lon="4.7362">
        <ele>283.58063</ele>
        <time>2022-09-24T14:34:25.000Z</time>
      </trkpt>
      <trkpt lat="45.83622" lon="4.73621">
        <ele>283.60077</ele>
        <time>2022-09-24T14:34:26.000Z</time>
      </trkpt>
      <trkpt lat="45.83618" lon="4.73622">
        <ele>283.76154</ele>
        <time>2022-09-24T14:34:27.000Z</time>
      </trkpt>
      <trkpt lat="45.83614" lon="4.73624">
        <ele>284.03622</ele>
        <time>2022-09-24T14:34:28.000Z</time>
      </trkpt>
      <trkpt lat="45.83611" lon="4.73626">
        <ele>284.38873</ele>
        <time>2022-09-24T14:34:29.000Z</time>
      </trkpt>
      <trkpt lat="45.83607" lon="4.73629">
        <ele>284.71216</ele>
        <time>2022-09-24T14:34:30.000Z</time>
      </trkpt>
      <trkpt lat="45.83604" lon="4.73631">
        <ele>285.10764</ele>
        <time>2022-09-24T14:34:31.000Z</time>
      </trkpt>
      <trkpt lat="45.836" lon="4.73633">
        <ele>285.50641</ele>
        <time>2022-09-24T14:34:32.000Z</time>
      </trkpt>
      <trkpt lat="45.83597" lon="4.73635">
        <ele>285.96411</ele>
        <time>2022-09-24T14:34:33.000Z</time>
      </trkpt>
      <trkpt lat="45.83593" lon="4.73637">
        <ele>286.4437</ele>
        <time>2022-09-24T14:34:34.000Z</time>
      </trkpt>
      <trkpt lat="45.83589" lon="4.73639">
        <ele>286.9552</ele>
        <time>2022-09-24T14:34:35.000Z</time>
      </trkpt>
      <trkpt lat="45.83585" lon="4.73641">
        <ele>287.44</ele>
        <time>2022-09-24T14:34:36.000Z</time>
      </trkpt>
      <trkpt lat="45.83581" lon="4.73642">
        <ele>287.92804</ele>
        <time>2022-09-24T14:34:37.000Z</time>
      </trkpt>
      <trkpt lat="45.83577" lon="4.73644">
        <ele>288.25485</ele>
        <time>2022-09-24T14:34:38.000Z</time>
      </trkpt>
      <trkpt lat="45.83573" lon="4.73646">
        <ele>288.54596</ele>
        <time>2022-09-24T14:34:39.000Z</time>
      </trkpt>
      <trkpt lat="45.83569" lon="4.73649">
        <ele>288.82288</ele>
        <time>2022-09-24T14:34:40.000Z</time>
      </trkpt>
      <trkpt lat="45.83565" lon="4.73652">
        <ele>289.15573</ele>
        <time>2022-09-24T14:34:41.000Z</time>
      </trkpt>
      <trkpt lat="45.83562" lon="4.73655">
        <ele>289.51178</ele>
        <time>2022-09-24T14:34:42.000Z</time>
      </trkpt>
      <trkpt lat="45.83558" lon="4.73659">
        <ele>289.86536</ele>
        <time>2022-09-24T14:34:43.000Z</time>
      </trkpt>
      <trkpt lat="45.83556" lon="4.73664">
        <ele>290.19928</ele>
        <time>2022-09-24T14:34:44.000Z</time>
      </trkpt>
      <trkpt lat="45.83553" lon="4.73669">
        <ele>290.59784</ele>
        <time>2022-09-24T14:34:45.000Z</time>
      </trkpt>
      <trkpt lat="45.8355" lon="4.73673">
        <ele>290.94931</ele>
        <time>2022-09-24T14:34:46.000Z</time>
      </trkpt>
      <trkpt lat="45.83547" lon="4.73678">
        <ele>291.26315</ele>
        <time>2022-09-24T14:34:47.000Z</time>
      </trkpt>
      <trkpt lat="45.83544" lon="4.73683">
        <ele>291.52963</ele>
        <time>2022-09-24T14:34:48.000Z</time>
      </trkpt>
      <trkpt lat="45.83541" lon="4.73687">
        <ele>291.7583</ele>
        <time>2022-09-24T14:34:49.000Z</time>
      </trkpt>
      <trkpt lat="45.83538" lon="4.73691">
        <ele>291.94058</ele>
        <time>2022-09-24T14:34:50.000Z</time>
      </trkpt>
      <trkpt lat="45.83532" lon="4.73696">
        <ele>292.06802</ele>
        <time>2022-09-24T14:34:51.000Z</time>
      </trkpt>
      <trkpt lat="45.83526" lon="4.73697">
        <ele>292.09186</ele>
        <time>2022-09-24T14:34:52.000Z</time>
      </trkpt>
      <trkpt lat="45.83523" lon="4.73701">
        <ele>292.09689</ele>
        <time>2022-09-24T14:34:53.000Z</time>
      </trkpt>
      <trkpt lat="45.83518" lon="4.73703">
        <ele>292.00244</ele>
        <time>2022-09-24T14:34:54.000Z</time>
      </trkpt>
      <trkpt lat="45.83515" lon="4.73707">
        <ele>291.75842</ele>
        <time>2022-09-24T14:34:55.000Z</time>
      </trkpt>
      <trkpt lat="45.83511" lon="4.73709">
        <ele>291.57858</ele>
        <time>2022-09-24T14:34:56.000Z</time>
      </trkpt>
      <trkpt lat="45.83509" lon="4.7371">
        <ele>291.37677</ele>
        <time>2022-09-24T14:34:57.000Z</time>
      </trkpt>
      <trkpt lat="45.83506" lon="4.7371">
        <ele>291.20425</ele>
        <time>2022-09-24T14:34:58.000Z</time>
      </trkpt>
      <trkpt lat="45.83504" lon="4.73711">
        <ele>291.03232</ele>
        <time>2022-09-24T14:34:59.000Z</time>
      </trkpt>
      <trkpt lat="45.83501" lon="4.73711">
        <ele>290.84625</ele>
        <time>2022-09-24T14:35:01.000Z</time>
      </trkpt>
      <trkpt lat="45.83502" lon="4.73714">
        <ele>290.58533</ele>
        <time>2022-09-24T14:35:04.000Z</time>
      </trkpt>
      <trkpt lat="45.83502" lon="4.73717">
        <ele>290.46786</ele>
        <time>2022-09-24T14:35:16.000Z</time>
      </trkpt>
      <trkpt lat="45.83502" lon="4.73719">
        <ele>290.29498</ele>
        <time>2022-09-24T14:35:24.000Z</time>
      </trkpt>
      <trkpt lat="45.83501" lon="4.73722">
        <ele>290.06708</ele>
        <time>2022-09-24T14:35:30.000Z</time>
      </trkpt>
      <trkpt lat="45.83501" lon="4.73724">
        <ele>289.60052</ele>
        <time>2022-09-24T14:35:37.000Z</time>
      </trkpt>
      <trkpt lat="45.83503" lon="4.73726">
        <ele>289.27289</ele>
        <time>2022-09-24T14:35:46.000Z</time>
      </trkpt>
      <trkpt lat="45.83504" lon="4.73729">
        <ele>288.96808</ele>
        <time>2022-09-24T14:35:52.000Z</time>
      </trkpt>
      <trkpt lat="45.83505" lon="4.73729">
        <ele>288.62717</ele>
        <time>2022-09-24T14:36:04.000Z</time>
      </trkpt>
      <trkpt lat="45.83505" lon="4.73732">
        <ele>288.21039</ele>
        <time>2022-09-24T14:36:15.000Z</time>
      </trkpt>
      <trkpt lat="45.83504" lon="4.7373">
        <ele>287.97684</ele>
        <time>2022-09-24T14:36:22.000Z</time>
      </trkpt>
      <trkpt lat="45.83504" lon="4.73728">
        <ele>287.7464</ele>
        <time>2022-09-24T14:36:38.000Z</time>
      </trkpt>
      <trkpt lat="45.83503" lon="4.73725">
        <ele>287.56372</ele>
        <time>2022-09-24T14:37:03.000Z</time>
      </trkpt>
      <trkpt lat="45.83502" lon="4.73723">
        <ele>287.40033</ele>
        <time>2022-09-24T14:37:17.000Z</time>
      </trkpt>
      <trkpt lat="45.83501" lon="4.73721">
        <ele>287.38348</ele>
        <time>2022-09-24T14:37:24.000Z</time>
      </trkpt>
      <trkpt lat="45.83499" lon="4.73722">
        <ele>287.80878</ele>
        <time>2022-09-24T14:38:17.000Z</time>
      </trkpt>
      <trkpt lat="45.83495" lon="4.73723">
        <ele>288.2453</ele>
        <time>2022-09-24T14:38:19.000Z</time>
      </trkpt>
      <trkpt lat="45.83493" lon="4.73723">
        <ele>288.63589</ele>
        <time>2022-09-24T14:38:20.000Z</time>
      </trkpt>
      <trkpt lat="45.8349" lon="4.73724">
        <ele>289.06302</ele>
        <time>2022-09-24T14:38:21.000Z</time>
      </trkpt>
      <trkpt lat="45.83488" lon="4.73724">
        <ele>289.49481</ele>
        <time>2022-09-24T14:38:22.000Z</time>
      </trkpt>
      <trkpt lat="45.83485" lon="4.73725">
        <ele>289.93253</ele>
        <time>2022-09-24T14:38:23.000Z</time>
      </trkpt>
      <trkpt lat="45.83483" lon="4.73726">
        <ele>290.40979</ele>
        <time>2022-09-24T14:38:24.000Z</time>
      </trkpt>
      <trkpt lat="45.8348" lon="4.73726">
        <ele>290.83255</ele>
        <time>2022-09-24T14:38:25.000Z</time>
      </trkpt>
      <trkpt lat="45.83477" lon="4.73727">
        <ele>291.34131</ele>
        <time>2022-09-24T14:38:26.000Z</time>
      </trkpt>
      <trkpt lat="45.83475" lon="4.73726">
        <ele>291.80466</ele>
        <time>2022-09-24T14:38:27.000Z</time>
      </trkpt>
      <trkpt lat="45.83472" lon="4.73726">
        <ele>292.44977</ele>
        <time>2022-09-24T14:38:28.000Z</time>
      </trkpt>
      <trkpt lat="45.8347" lon="4.73725">
        <ele>293.10629</ele>
        <time>2022-09-24T14:38:29.000Z</time>
      </trkpt>
      <trkpt lat="45.83468" lon="4.73726">
        <ele>293.70096</ele>
        <time>2022-09-24T14:38:30.000Z</time>
      </trkpt>
      <trkpt lat="45.83465" lon="4.73727">
        <ele>294.33749</ele>
        <time>2022-09-24T14:38:31.000Z</time>
      </trkpt>
      <trkpt lat="45.83462" lon="4.73728">
        <ele>295.07272</ele>
        <time>2022-09-24T14:38:32.000Z</time>
      </trkpt>
      <trkpt lat="45.83459" lon="4.73729">
        <ele>295.68115</ele>
        <time>2022-09-24T14:38:33.000Z</time>
      </trkpt>
      <trkpt lat="45.83456" lon="4.73729">
        <ele>296.16071</ele>
        <time>2022-09-24T14:38:34.000Z</time>
      </trkpt>
      <trkpt lat="45.83453" lon="4.73729">
        <ele>296.65057</ele>
        <time>2022-09-24T14:38:35.000Z</time>
      </trkpt>
      <trkpt lat="45.8345" lon="4.73729">
        <ele>297.11435</ele>
        <time>2022-09-24T14:38:36.000Z</time>
      </trkpt>
      <trkpt lat="45.83446" lon="4.73729">
        <ele>297.51688</ele>
        <time>2022-09-24T14:38:37.000Z</time>
      </trkpt>
      <trkpt lat="45.83443" lon="4.7373">
        <ele>297.62286</ele>
        <time>2022-09-24T14:38:38.000Z</time>
      </trkpt>
      <trkpt lat="45.8344" lon="4.7373">
        <ele>297.61612</ele>
        <time>2022-09-24T14:38:39.000Z</time>
      </trkpt>
      <trkpt lat="45.83436" lon="4.7373">
        <ele>297.64017</ele>
        <time>2022-09-24T14:38:40.000Z</time>
      </trkpt>
      <trkpt lat="45.83433" lon="4.73731">
        <ele>297.66788</ele>
        <time>2022-09-24T14:38:41.000Z</time>
      </trkpt>
      <trkpt lat="45.8343" lon="4.73731">
        <ele>297.69232</ele>
        <time>2022-09-24T14:38:42.000Z</time>
      </trkpt>
      <trkpt lat="45.83426" lon="4.73732">
        <ele>297.7088</ele>
        <time>2022-09-24T14:38:43.000Z</time>
      </trkpt>
      <trkpt lat="45.83423" lon="4.73732">
        <ele>297.68414</ele>
        <time>2022-09-24T14:38:44.000Z</time>
      </trkpt>
      <trkpt lat="45.8342" lon="4.73732">
        <ele>297.64093</ele>
        <time>2022-09-24T14:38:45.000Z</time>
      </trkpt>
      <trkpt lat="45.83416" lon="4.73732">
        <ele>297.53656</ele>
        <time>2022-09-24T14:38:46.000Z</time>
      </trkpt>
      <trkpt lat="45.83413" lon="4.73733">
        <ele>297.45447</ele>
        <time>2022-09-24T14:38:47.000Z</time>
      </trkpt>
      <trkpt lat="45.83409" lon="4.73733">
        <ele>297.34613</ele>
        <time>2022-09-24T14:38:48.000Z</time>
      </trkpt>
      <trkpt lat="45.83406" lon="4.73734">
        <ele>297.09088</ele>
        <time>2022-09-24T14:38:49.000Z</time>
      </trkpt>
      <trkpt lat="45.83402" lon="4.73735">
        <ele>296.89343</ele>
        <time>2022-09-24T14:38:50.000Z</time>
      </trkpt>
      <trkpt lat="45.83399" lon="4.73736">
        <ele>296.67239</ele>
        <time>2022-09-24T14:38:51.000Z</time>
      </trkpt>
      <trkpt lat="45.83395" lon="4.73738">
        <ele>296.38138</ele>
        <time>2022-09-24T14:38:52.000Z</time>
      </trkpt>
      <trkpt lat="45.83391" lon="4.73739">
        <ele>296.1156</ele>
        <time>2022-09-24T14:38:53.000Z</time>
      </trkpt>
      <trkpt lat="45.83387" lon="4.73739">
        <ele>295.9527</ele>
        <time>2022-09-24T14:38:54.000Z</time>
      </trkpt>
      <trkpt lat="45.83383" lon="4.7374">
        <ele>295.87576</ele>
        <time>2022-09-24T14:38:55.000Z</time>
      </trkpt>
      <trkpt lat="45.83379" lon="4.7374">
        <ele>295.77631</ele>
        <time>2022-09-24T14:38:56.000Z</time>
      </trkpt>
      <trkpt lat="45.83375" lon="4.73741">
        <ele>295.68906</ele>
        <time>2022-09-24T14:38:57.000Z</time>
      </trkpt>
      <trkpt lat="45.83371" lon="4.73741">
        <ele>295.54047</ele>
        <time>2022-09-24T14:38:58.000Z</time>
      </trkpt>
      <trkpt lat="45.83367" lon="4.73741">
        <ele>295.43344</ele>
        <time>2022-09-24T14:38:59.000Z</time>
      </trkpt>
      <trkpt lat="45.83362" lon="4.7374">
        <ele>295.29266</ele>
        <time>2022-09-24T14:39:00.000Z</time>
      </trkpt>
      <trkpt lat="45.83358" lon="4.7374">
        <ele>295.14584</ele>
        <time>2022-09-24T14:39:01.000Z</time>
      </trkpt>
      <trkpt lat="45.83354" lon="4.73739">
        <ele>295.01743</ele>
        <time>2022-09-24T14:39:02.000Z</time>
      </trkpt>
      <trkpt lat="45.83349" lon="4.73739">
        <ele>294.86081</ele>
        <time>2022-09-24T14:39:03.000Z</time>
      </trkpt>
      <trkpt lat="45.83345" lon="4.73738">
        <ele>294.76178</ele>
        <time>2022-09-24T14:39:04.000Z</time>
      </trkpt>
      <trkpt lat="45.83339" lon="4.73736">
        <ele>294.68866</ele>
        <time>2022-09-24T14:39:05.000Z</time>
      </trkpt>
      <trkpt lat="45.83334" lon="4.73737">
        <ele>294.62283</ele>
        <time>2022-09-24T14:39:06.000Z</time>
      </trkpt>
      <trkpt lat="45.8333" lon="4.73739">
        <ele>294.59894</ele>
        <time>2022-09-24T14:39:07.000Z</time>
      </trkpt>
      <trkpt lat="45.83326" lon="4.73741">
        <ele>294.5545</ele>
        <time>2022-09-24T14:39:08.000Z</time>
      </trkpt>
      <trkpt lat="45.83321" lon="4.73741">
        <ele>294.54153</ele>
        <time>2022-09-24T14:39:09.000Z</time>
      </trkpt>
      <trkpt lat="45.83317" lon="4.73741">
        <ele>294.5311</ele>
        <time>2022-09-24T14:39:10.000Z</time>
      </trkpt>
      <trkpt lat="45.83314" lon="4.7374">
        <ele>294.61115</ele>
        <time>2022-09-24T14:39:11.000Z</time>
      </trkpt>
      <trkpt lat="45.83309" lon="4.7374">
        <ele>294.74445</ele>
        <time>2022-09-24T14:39:12.000Z</time>
      </trkpt>
      <trkpt lat="45.83305" lon="4.7374">
        <ele>294.8681</ele>
        <time>2022-09-24T14:39:13.000Z</time>
      </trkpt>
      <trkpt lat="45.83301" lon="4.73743">
        <ele>295.00449</ele>
        <time>2022-09-24T14:39:14.000Z</time>
      </trkpt>
      <trkpt lat="45.83298" lon="4.73744">
        <ele>295.13406</ele>
        <time>2022-09-24T14:39:15.000Z</time>
      </trkpt>
      <trkpt lat="45.83293" lon="4.73744">
        <ele>295.24664</ele>
        <time>2022-09-24T14:39:16.000Z</time>
      </trkpt>
      <trkpt lat="45.83289" lon="4.73744">
        <ele>295.28165</ele>
        <time>2022-09-24T14:39:17.000Z</time>
      </trkpt>
      <trkpt lat="45.83285" lon="4.73746">
        <ele>295.35236</ele>
        <time>2022-09-24T14:39:18.000Z</time>
      </trkpt>
      <trkpt lat="45.83279" lon="4.73745">
        <ele>295.45914</ele>
        <time>2022-09-24T14:39:19.000Z</time>
      </trkpt>
      <trkpt lat="45.83275" lon="4.73745">
        <ele>295.60474</ele>
        <time>2022-09-24T14:39:20.000Z</time>
      </trkpt>
      <trkpt lat="45.8327" lon="4.73745">
        <ele>295.75018</ele>
        <time>2022-09-24T14:39:21.000Z</time>
      </trkpt>
      <trkpt lat="45.83266" lon="4.73745">
        <ele>295.90009</ele>
        <time>2022-09-24T14:39:22.000Z</time>
      </trkpt>
      <trkpt lat="45.83261" lon="4.73745">
        <ele>296.1066</ele>
        <time>2022-09-24T14:39:23.000Z</time>
      </trkpt>
      <trkpt lat="45.83257" lon="4.73745">
        <ele>296.27802</ele>
        <time>2022-09-24T14:39:24.000Z</time>
      </trkpt>
      <trkpt lat="45.83253" lon="4.73745">
        <ele>296.43582</ele>
        <time>2022-09-24T14:39:25.000Z</time>
      </trkpt>
      <trkpt lat="45.83249" lon="4.73745">
        <ele>296.63129</ele>
        <time>2022-09-24T14:39:26.000Z</time>
      </trkpt>
      <trkpt lat="45.83245" lon="4.73744">
        <ele>296.72726</ele>
        <time>2022-09-24T14:39:27.000Z</time>
      </trkpt>
      <trkpt lat="45.83241" lon="4.73744">
        <ele>296.86432</ele>
        <time>2022-09-24T14:39:28.000Z</time>
      </trkpt>
      <trkpt lat="45.83237" lon="4.73743">
        <ele>296.99426</ele>
        <time>2022-09-24T14:39:29.000Z</time>
      </trkpt>
      <trkpt lat="45.83234" lon="4.73742">
        <ele>297.08292</ele>
        <time>2022-09-24T14:39:30.000Z</time>
      </trkpt>
      <trkpt lat="45.8323" lon="4.73741">
        <ele>297.02393</ele>
        <time>2022-09-24T14:39:31.000Z</time>
      </trkpt>
      <trkpt lat="45.83226" lon="4.73741">
        <ele>296.99838</ele>
        <time>2022-09-24T14:39:32.000Z</time>
      </trkpt>
      <trkpt lat="45.83222" lon="4.73741">
        <ele>296.95953</ele>
        <time>2022-09-24T14:39:33.000Z</time>
      </trkpt>
      <trkpt lat="45.83218" lon="4.7374">
        <ele>296.88791</ele>
        <time>2022-09-24T14:39:34.000Z</time>
      </trkpt>
      <trkpt lat="45.83214" lon="4.7374">
        <ele>296.8526</ele>
        <time>2022-09-24T14:39:35.000Z</time>
      </trkpt>
      <trkpt lat="45.8321" lon="4.7374">
        <ele>296.867</ele>
        <time>2022-09-24T14:39:36.000Z</time>
      </trkpt>
      <trkpt lat="45.83206" lon="4.7374">
        <ele>296.97354</ele>
        <time>2022-09-24T14:39:37.000Z</time>
      </trkpt>
      <trkpt lat="45.83201" lon="4.7374">
        <ele>297.03061</ele>
        <time>2022-09-24T14:39:38.000Z</time>
      </trkpt>
      <trkpt lat="45.83197" lon="4.7374">
        <ele>297.00278</ele>
        <time>2022-09-24T14:39:39.000Z</time>
      </trkpt>
      <trkpt lat="45.83193" lon="4.73741">
        <ele>296.95511</ele>
        <time>2022-09-24T14:39:40.000Z</time>
      </trkpt>
      <trkpt lat="45.83188" lon="4.73741">
        <ele>296.89169</ele>
        <time>2022-09-24T14:39:41.000Z</time>
      </trkpt>
      <trkpt lat="45.83184" lon="4.73741">
        <ele>296.80206</ele>
        <time>2022-09-24T14:39:42.000Z</time>
      </trkpt>
      <trkpt lat="45.8318" lon="4.73741">
        <ele>296.72513</ele>
        <time>2022-09-24T14:39:43.000Z</time>
      </trkpt>
      <trkpt lat="45.83176" lon="4.73742">
        <ele>296.61893</ele>
        <time>2022-09-24T14:39:44.000Z</time>
      </trkpt>
      <trkpt lat="45.83171" lon="4.73742">
        <ele>296.52325</ele>
        <time>2022-09-24T14:39:45.000Z</time>
      </trkpt>
      <trkpt lat="45.83167" lon="4.73743">
        <ele>296.39478</ele>
        <time>2022-09-24T14:39:46.000Z</time>
      </trkpt>
      <trkpt lat="45.83163" lon="4.73741">
        <ele>296.37265</ele>
        <time>2022-09-24T14:39:47.000Z</time>
      </trkpt>
      <trkpt lat="45.83159" lon="4.73741">
        <ele>296.34448</ele>
        <time>2022-09-24T14:39:48.000Z</time>
      </trkpt>
      <trkpt lat="45.83154" lon="4.7374">
        <ele>296.35422</ele>
        <time>2022-09-24T14:39:49.000Z</time>
      </trkpt>
      <trkpt lat="45.83149" lon="4.7374">
        <ele>296.42059</ele>
        <time>2022-09-24T14:39:50.000Z</time>
      </trkpt>
      <trkpt lat="45.83145" lon="4.73739">
        <ele>296.57104</ele>
        <time>2022-09-24T14:39:51.000Z</time>
      </trkpt>
      <trkpt lat="45.83141" lon="4.73739">
        <ele>296.7377</ele>
        <time>2022-09-24T14:39:52.000Z</time>
      </trkpt>
      <trkpt lat="45.83138" lon="4.73741">
        <ele>296.83038</ele>
        <time>2022-09-24T14:39:53.000Z</time>
      </trkpt>
      <trkpt lat="45.83134" lon="4.73739">
        <ele>296.9942</ele>
        <time>2022-09-24T14:39:54.000Z</time>
      </trkpt>
      <trkpt lat="45.83131" lon="4.73739">
        <ele>297.20853</ele>
        <time>2022-09-24T14:39:55.000Z</time>
      </trkpt>
      <trkpt lat="45.83127" lon="4.73738">
        <ele>297.41718</ele>
        <time>2022-09-24T14:39:56.000Z</time>
      </trkpt>
      <trkpt lat="45.83122" lon="4.73739">
        <ele>297.60077</ele>
        <time>2022-09-24T14:39:57.000Z</time>
      </trkpt>
      <trkpt lat="45.83116" lon="4.73739">
        <ele>297.83307</ele>
        <time>2022-09-24T14:39:58.000Z</time>
      </trkpt>
      <trkpt lat="45.83113" lon="4.73739">
        <ele>298.0412</ele>
        <time>2022-09-24T14:39:59.000Z</time>
      </trkpt>
      <trkpt lat="45.83108" lon="4.7374">
        <ele>298.34479</ele>
        <time>2022-09-24T14:40:00.000Z</time>
      </trkpt>
      <trkpt lat="45.83104" lon="4.73741">
        <ele>298.6463</ele>
        <time>2022-09-24T14:40:01.000Z</time>
      </trkpt>
      <trkpt lat="45.83099" lon="4.73741">
        <ele>299.00125</ele>
        <time>2022-09-24T14:40:02.000Z</time>
      </trkpt>
      <trkpt lat="45.83096" lon="4.73741">
        <ele>299.3009</ele>
        <time>2022-09-24T14:40:03.000Z</time>
      </trkpt>
      <trkpt lat="45.83092" lon="4.73741">
        <ele>299.64667</ele>
        <time>2022-09-24T14:40:04.000Z</time>
      </trkpt>
      <trkpt lat="45.83088" lon="4.73741">
        <ele>300.0015</ele>
        <time>2022-09-24T14:40:05.000Z</time>
      </trkpt>
      <trkpt lat="45.83084" lon="4.73741">
        <ele>300.3895</ele>
        <time>2022-09-24T14:40:06.000Z</time>
      </trkpt>
      <trkpt lat="45.83081" lon="4.7374">
        <ele>300.74982</ele>
        <time>2022-09-24T14:40:07.000Z</time>
      </trkpt>
      <trkpt lat="45.83076" lon="4.7374">
        <ele>301.08344</ele>
        <time>2022-09-24T14:40:08.000Z</time>
      </trkpt>
      <trkpt lat="45.83072" lon="4.73739">
        <ele>301.42053</ele>
        <time>2022-09-24T14:40:09.000Z</time>
      </trkpt>
      <trkpt lat="45.83067" lon="4.73739">
        <ele>301.73053</ele>
        <time>2022-09-24T14:40:10.000Z</time>
      </trkpt>
      <trkpt lat="45.83062" lon="4.73739">
        <ele>302.04474</ele>
        <time>2022-09-24T14:40:11.000Z</time>
      </trkpt>
      <trkpt lat="45.83059" lon="4.73738">
        <ele>302.3309</ele>
        <time>2022-09-24T14:40:12.000Z</time>
      </trkpt>
      <trkpt lat="45.83055" lon="4.73738">
        <ele>302.69342</ele>
        <time>2022-09-24T14:40:13.000Z</time>
      </trkpt>
      <trkpt lat="45.83052" lon="4.73739">
        <ele>302.91821</ele>
        <time>2022-09-24T14:40:14.000Z</time>
      </trkpt>
      <trkpt lat="45.83047" lon="4.73741">
        <ele>303.03519</ele>
        <time>2022-09-24T14:40:15.000Z</time>
      </trkpt>
      <trkpt lat="45.83041" lon="4.73744">
        <ele>303.05487</ele>
        <time>2022-09-24T14:40:16.000Z</time>
      </trkpt>
      <trkpt lat="45.83036" lon="4.73744">
        <ele>303.00699</ele>
        <time>2022-09-24T14:40:17.000Z</time>
      </trkpt>
      <trkpt lat="45.83032" lon="4.73742">
        <ele>302.94186</ele>
        <time>2022-09-24T14:40:18.000Z</time>
      </trkpt>
      <trkpt lat="45.83028" lon="4.73742">
        <ele>302.98141</ele>
        <time>2022-09-24T14:40:19.000Z</time>
      </trkpt>
      <trkpt lat="45.83021" lon="4.7374">
        <ele>302.91541</ele>
        <time>2022-09-24T14:40:20.000Z</time>
      </trkpt>
      <trkpt lat="45.83017" lon="4.7374">
        <ele>302.93555</ele>
        <time>2022-09-24T14:40:21.000Z</time>
      </trkpt>
      <trkpt lat="45.83013" lon="4.73739">
        <ele>302.91858</ele>
        <time>2022-09-24T14:40:22.000Z</time>
      </trkpt>
      <trkpt lat="45.83009" lon="4.73739">
        <ele>302.94659</ele>
        <time>2022-09-24T14:40:23.000Z</time>
      </trkpt>
      <trkpt lat="45.83004" lon="4.73739">
        <ele>302.92453</ele>
        <time>2022-09-24T14:40:24.000Z</time>
      </trkpt>
      <trkpt lat="45.83" lon="4.73736">
        <ele>302.91095</ele>
        <time>2022-09-24T14:40:25.000Z</time>
      </trkpt>
      <trkpt lat="45.82997" lon="4.73741">
        <ele>302.84296</ele>
        <time>2022-09-24T14:40:26.000Z</time>
      </trkpt>
      <trkpt lat="45.82992" lon="4.7374">
        <ele>302.79996</ele>
        <time>2022-09-24T14:40:27.000Z</time>
      </trkpt>
      <trkpt lat="45.82988" lon="4.73738">
        <ele>302.85315</ele>
        <time>2022-09-24T14:40:28.000Z</time>
      </trkpt>
      <trkpt lat="45.82983" lon="4.73737">
        <ele>302.93408</ele>
        <time>2022-09-24T14:40:29.000Z</time>
      </trkpt>
      <trkpt lat="45.82978" lon="4.73736">
        <ele>303.03326</ele>
        <time>2022-09-24T14:40:30.000Z</time>
      </trkpt>
      <trkpt lat="45.82974" lon="4.73735">
        <ele>303.13882</ele>
        <time>2022-09-24T14:40:31.000Z</time>
      </trkpt>
      <trkpt lat="45.82969" lon="4.73735">
        <ele>303.31396</ele>
        <time>2022-09-24T14:40:32.000Z</time>
      </trkpt>
      <trkpt lat="45.82965" lon="4.73734">
        <ele>303.5043</ele>
        <time>2022-09-24T14:40:33.000Z</time>
      </trkpt>
      <trkpt lat="45.8296" lon="4.73733">
        <ele>303.87549</ele>
        <time>2022-09-24T14:40:34.000Z</time>
      </trkpt>
      <trkpt lat="45.82955" lon="4.73731">
        <ele>304.33023</ele>
        <time>2022-09-24T14:40:35.000Z</time>
      </trkpt>
      <trkpt lat="45.8295" lon="4.73731">
        <ele>304.87613</ele>
        <time>2022-09-24T14:40:36.000Z</time>
      </trkpt>
      <trkpt lat="45.82946" lon="4.73733">
        <ele>305.44543</ele>
        <time>2022-09-24T14:40:37.000Z</time>
      </trkpt>
      <trkpt lat="45.82941" lon="4.73732">
        <ele>306.06155</ele>
        <time>2022-09-24T14:40:38.000Z</time>
      </trkpt>
      <trkpt lat="45.82936" lon="4.7373">
        <ele>306.65591</ele>
        <time>2022-09-24T14:40:39.000Z</time>
      </trkpt>
      <trkpt lat="45.82931" lon="4.7373">
        <ele>307.25806</ele>
        <time>2022-09-24T14:40:40.000Z</time>
      </trkpt>
      <trkpt lat="45.82926" lon="4.7373">
        <ele>307.82233</ele>
        <time>2022-09-24T14:40:41.000Z</time>
      </trkpt>
      <trkpt lat="45.82921" lon="4.73732">
        <ele>308.35541</ele>
        <time>2022-09-24T14:40:42.000Z</time>
      </trkpt>
      <trkpt lat="45.82916" lon="4.73731">
        <ele>308.84924</ele>
        <time>2022-09-24T14:40:43.000Z</time>
      </trkpt>
      <trkpt lat="45.82911" lon="4.73731">
        <ele>309.41827</ele>
        <time>2022-09-24T14:40:44.000Z</time>
      </trkpt>
      <trkpt lat="45.82905" lon="4.73731">
        <ele>310.01022</ele>
        <time>2022-09-24T14:40:45.000Z</time>
      </trkpt>
      <trkpt lat="45.829" lon="4.73729">
        <ele>310.58228</ele>
        <time>2022-09-24T14:40:46.000Z</time>
      </trkpt>
      <trkpt lat="45.82895" lon="4.7373">
        <ele>311.10825</ele>
        <time>2022-09-24T14:40:47.000Z</time>
      </trkpt>
      <trkpt lat="45.8289" lon="4.73729">
        <ele>311.52631</ele>
        <time>2022-09-24T14:40:48.000Z</time>
      </trkpt>
      <trkpt lat="45.82887" lon="4.73728">
        <ele>311.90436</ele>
        <time>2022-09-24T14:40:49.000Z</time>
      </trkpt>
      <trkpt lat="45.82882" lon="4.73728">
        <ele>312.32059</ele>
        <time>2022-09-24T14:40:50.000Z</time>
      </trkpt>
      <trkpt lat="45.82878" lon="4.73729">
        <ele>312.74652</ele>
        <time>2022-09-24T14:40:51.000Z</time>
      </trkpt>
      <trkpt lat="45.82873" lon="4.73729">
        <ele>313.10175</ele>
        <time>2022-09-24T14:40:52.000Z</time>
      </trkpt>
      <trkpt lat="45.82869" lon="4.73728">
        <ele>313.43414</ele>
        <time>2022-09-24T14:40:53.000Z</time>
      </trkpt>
      <trkpt lat="45.82864" lon="4.73728">
        <ele>313.6582</ele>
        <time>2022-09-24T14:40:54.000Z</time>
      </trkpt>
      <trkpt lat="45.82859" lon="4.73728">
        <ele>313.91058</ele>
        <time>2022-09-24T14:40:55.000Z</time>
      </trkpt>
      <trkpt lat="45.82854" lon="4.73728">
        <ele>314.13315</ele>
        <time>2022-09-24T14:40:56.000Z</time>
      </trkpt>
      <trkpt lat="45.8285" lon="4.7373">
        <ele>314.36102</ele>
        <time>2022-09-24T14:40:57.000Z</time>
      </trkpt>
      <trkpt lat="45.82846" lon="4.73729">
        <ele>314.54968</ele>
        <time>2022-09-24T14:40:58.000Z</time>
      </trkpt>
      <trkpt lat="45.82841" lon="4.73727">
        <ele>314.72357</ele>
        <time>2022-09-24T14:40:59.000Z</time>
      </trkpt>
      <trkpt lat="45.82835" lon="4.73726">
        <ele>314.9953</ele>
        <time>2022-09-24T14:41:00.000Z</time>
      </trkpt>
      <trkpt lat="45.82831" lon="4.73725">
        <ele>315.24042</ele>
        <time>2022-09-24T14:41:01.000Z</time>
      </trkpt>
      <trkpt lat="45.82826" lon="4.73725">
        <ele>315.53375</ele>
        <time>2022-09-24T14:41:02.000Z</time>
      </trkpt>
      <trkpt lat="45.82821" lon="4.73724">
        <ele>315.84253</ele>
        <time>2022-09-24T14:41:03.000Z</time>
      </trkpt>
      <trkpt lat="45.82817" lon="4.73725">
        <ele>316.12302</ele>
        <time>2022-09-24T14:41:04.000Z</time>
      </trkpt>
      <trkpt lat="45.82813" lon="4.73725">
        <ele>316.40884</ele>
        <time>2022-09-24T14:41:05.000Z</time>
      </trkpt>
      <trkpt lat="45.82808" lon="4.73724">
        <ele>316.83087</ele>
        <time>2022-09-24T14:41:06.000Z</time>
      </trkpt>
      <trkpt lat="45.82804" lon="4.73722">
        <ele>317.26105</ele>
        <time>2022-09-24T14:41:07.000Z</time>
      </trkpt>
      <trkpt lat="45.828" lon="4.73722">
        <ele>317.78183</ele>
        <time>2022-09-24T14:41:08.000Z</time>
      </trkpt>
      <trkpt lat="45.82796" lon="4.73722">
        <ele>318.31586</ele>
        <time>2022-09-24T14:41:09.000Z</time>
      </trkpt>
      <trkpt lat="45.82792" lon="4.73722">
        <ele>318.80798</ele>
        <time>2022-09-24T14:41:10.000Z</time>
      </trkpt>
      <trkpt lat="45.82788" lon="4.73722">
        <ele>319.27179</ele>
        <time>2022-09-24T14:41:11.000Z</time>
      </trkpt>
      <trkpt lat="45.82783" lon="4.73722">
        <ele>319.72299</ele>
        <time>2022-09-24T14:41:12.000Z</time>
      </trkpt>
      <trkpt lat="45.82779" lon="4.73722">
        <ele>320.19516</ele>
        <time>2022-09-24T14:41:13.000Z</time>
      </trkpt>
      <trkpt lat="45.82775" lon="4.73722">
        <ele>320.59607</ele>
        <time>2022-09-24T14:41:14.000Z</time>
      </trkpt>
      <trkpt lat="45.82769" lon="4.7372">
        <ele>320.86545</ele>
        <time>2022-09-24T14:41:15.000Z</time>
      </trkpt>
      <trkpt lat="45.82764" lon="4.73719">
        <ele>321.16055</ele>
        <time>2022-09-24T14:41:16.000Z</time>
      </trkpt>
      <trkpt lat="45.8276" lon="4.73719">
        <ele>321.47955</ele>
        <time>2022-09-24T14:41:17.000Z</time>
      </trkpt>
      <trkpt lat="45.82756" lon="4.7372">
        <ele>321.81342</ele>
        <time>2022-09-24T14:41:18.000Z</time>
      </trkpt>
      <trkpt lat="45.82752" lon="4.73719">
        <ele>322.1445</ele>
        <time>2022-09-24T14:41:19.000Z</time>
      </trkpt>
      <trkpt lat="45.82747" lon="4.7372">
        <ele>322.42914</ele>
        <time>2022-09-24T14:41:20.000Z</time>
      </trkpt>
      <trkpt lat="45.82744" lon="4.73719">
        <ele>322.71808</ele>
        <time>2022-09-24T14:41:21.000Z</time>
      </trkpt>
      <trkpt lat="45.82739" lon="4.7372">
        <ele>323.01074</ele>
        <time>2022-09-24T14:41:22.000Z</time>
      </trkpt>
      <trkpt lat="45.82734" lon="4.7372">
        <ele>323.29205</ele>
        <time>2022-09-24T14:41:23.000Z</time>
      </trkpt>
      <trkpt lat="45.82708" lon="4.73722">
        <ele>323.62466</ele>
        <time>2022-09-24T14:41:29.000Z</time>
      </trkpt>
      <trkpt lat="45.82704" lon="4.73722">
        <ele>323.97476</ele>
        <time>2022-09-24T14:41:30.000Z</time>
      </trkpt>
      <trkpt lat="45.827" lon="4.73721">
        <ele>324.24582</ele>
        <time>2022-09-24T14:41:31.000Z</time>
      </trkpt>
      <trkpt lat="45.82696" lon="4.73721">
        <ele>324.51212</ele>
        <time>2022-09-24T14:41:32.000Z</time>
      </trkpt>
      <trkpt lat="45.82692" lon="4.73721">
        <ele>324.68933</ele>
        <time>2022-09-24T14:41:33.000Z</time>
      </trkpt>
      <trkpt lat="45.82688" lon="4.73721">
        <ele>324.85162</ele>
        <time>2022-09-24T14:41:34.000Z</time>
      </trkpt>
      <trkpt lat="45.82685" lon="4.73721">
        <ele>325.02435</ele>
        <time>2022-09-24T14:41:35.000Z</time>
      </trkpt>
      <trkpt lat="45.82681" lon="4.73722">
        <ele>325.23181</ele>
        <time>2022-09-24T14:41:36.000Z</time>
      </trkpt>
      <trkpt lat="45.82677" lon="4.73722">
        <ele>325.47968</ele>
        <time>2022-09-24T14:41:37.000Z</time>
      </trkpt>
      <trkpt lat="45.82674" lon="4.73721">
        <ele>325.72601</ele>
        <time>2022-09-24T14:41:38.000Z</time>
      </trkpt>
      <trkpt lat="45.82671" lon="4.73721">
        <ele>326.0593</ele>
        <time>2022-09-24T14:41:39.000Z</time>
      </trkpt>
      <trkpt lat="45.82668" lon="4.7372">
        <ele>326.42819</ele>
        <time>2022-09-24T14:41:40.000Z</time>
      </trkpt>
      <trkpt lat="45.82665" lon="4.73719">
        <ele>326.8136</ele>
        <time>2022-09-24T14:41:41.000Z</time>
      </trkpt>
      <trkpt lat="45.82664" lon="4.73716">
        <ele>327.18805</ele>
        <time>2022-09-24T14:41:42.000Z</time>
      </trkpt>
      <trkpt lat="45.82664" lon="4.73713">
        <ele>327.55594</ele>
        <time>2022-09-24T14:41:43.000Z</time>
      </trkpt>
      <trkpt lat="45.82666" lon="4.7371">
        <ele>328.01346</ele>
        <time>2022-09-24T14:41:44.000Z</time>
      </trkpt>
      <trkpt lat="45.82668" lon="4.73709">
        <ele>328.44421</ele>
        <time>2022-09-24T14:41:45.000Z</time>
      </trkpt>
      <trkpt lat="45.82671" lon="4.73708">
        <ele>328.97745</ele>
        <time>2022-09-24T14:41:46.000Z</time>
      </trkpt>
      <trkpt lat="45.82673" lon="4.73707">
        <ele>329.49469</ele>
        <time>2022-09-24T14:41:47.000Z</time>
      </trkpt>
      <trkpt lat="45.82675" lon="4.73705">
        <ele>329.97812</ele>
        <time>2022-09-24T14:41:48.000Z</time>
      </trkpt>
      <trkpt lat="45.82678" lon="4.73703">
        <ele>330.37738</ele>
        <time>2022-09-24T14:41:49.000Z</time>
      </trkpt>
      <trkpt lat="45.8268" lon="4.73701">
        <ele>330.71469</ele>
        <time>2022-09-24T14:41:50.000Z</time>
      </trkpt>
      <trkpt lat="45.82682" lon="4.73699">
        <ele>331.06491</ele>
        <time>2022-09-24T14:41:51.000Z</time>
      </trkpt>
      <trkpt lat="45.82685" lon="4.73697">
        <ele>331.41351</ele>
        <time>2022-09-24T14:41:52.000Z</time>
      </trkpt>
      <trkpt lat="45.82687" lon="4.73695">
        <ele>331.83545</ele>
        <time>2022-09-24T14:41:53.000Z</time>
      </trkpt>
      <trkpt lat="45.8269" lon="4.73693">
        <ele>332.24823</ele>
        <time>2022-09-24T14:41:54.000Z</time>
      </trkpt>
      <trkpt lat="45.82692" lon="4.73691">
        <ele>332.62381</ele>
        <time>2022-09-24T14:41:55.000Z</time>
      </trkpt>
      <trkpt lat="45.82695" lon="4.73689">
        <ele>332.91861</ele>
        <time>2022-09-24T14:41:56.000Z</time>
      </trkpt>
      <trkpt lat="45.82698" lon="4.73687">
        <ele>333.20111</ele>
        <time>2022-09-24T14:41:57.000Z</time>
      </trkpt>
      <trkpt lat="45.82701" lon="4.73685">
        <ele>333.46814</ele>
        <time>2022-09-24T14:41:58.000Z</time>
      </trkpt>
      <trkpt lat="45.82704" lon="4.73683">
        <ele>333.76459</ele>
        <time>2022-09-24T14:41:59.000Z</time>
      </trkpt>
      <trkpt lat="45.82707" lon="4.7368">
        <ele>334.07892</ele>
        <time>2022-09-24T14:42:00.000Z</time>
      </trkpt>
      <trkpt lat="45.8271" lon="4.73678">
        <ele>334.38849</ele>
        <time>2022-09-24T14:42:01.000Z</time>
      </trkpt>
      <trkpt lat="45.82713" lon="4.73675">
        <ele>334.6994</ele>
        <time>2022-09-24T14:42:02.000Z</time>
      </trkpt>
      <trkpt lat="45.82715" lon="4.73672">
        <ele>334.97388</ele>
        <time>2022-09-24T14:42:03.000Z</time>
      </trkpt>
      <trkpt lat="45.82718" lon="4.73669">
        <ele>335.20587</ele>
        <time>2022-09-24T14:42:04.000Z</time>
      </trkpt>
      <trkpt lat="45.82721" lon="4.73666">
        <ele>335.43185</ele>
        <time>2022-09-24T14:42:05.000Z</time>
      </trkpt>
      <trkpt lat="45.82725" lon="4.73662">
        <ele>335.50726</ele>
        <time>2022-09-24T14:42:06.000Z</time>
      </trkpt>
      <trkpt lat="45.82728" lon="4.73658">
        <ele>335.51483</ele>
        <time>2022-09-24T14:42:07.000Z</time>
      </trkpt>
      <trkpt lat="45.82731" lon="4.73655">
        <ele>335.59247</ele>
        <time>2022-09-24T14:42:08.000Z</time>
      </trkpt>
      <trkpt lat="45.82735" lon="4.73651">
        <ele>335.69754</ele>
        <time>2022-09-24T14:42:09.000Z</time>
      </trkpt>
      <trkpt lat="45.82738" lon="4.73648">
        <ele>335.80167</ele>
        <time>2022-09-24T14:42:10.000Z</time>
      </trkpt>
      <trkpt lat="45.82742" lon="4.73644">
        <ele>335.79254</ele>
        <time>2022-09-24T14:42:11.000Z</time>
      </trkpt>
      <trkpt lat="45.82745" lon="4.7364">
        <ele>335.89191</ele>
        <time>2022-09-24T14:42:12.000Z</time>
      </trkpt>
      <trkpt lat="45.82748" lon="4.73637">
        <ele>335.83051</ele>
        <time>2022-09-24T14:42:13.000Z</time>
      </trkpt>
      <trkpt lat="45.82751" lon="4.73634">
        <ele>335.76218</ele>
        <time>2022-09-24T14:42:14.000Z</time>
      </trkpt>
      <trkpt lat="45.82754" lon="4.73631">
        <ele>335.6929</ele>
        <time>2022-09-24T14:42:15.000Z</time>
      </trkpt>
      <trkpt lat="45.82757" lon="4.73628">
        <ele>335.64825</ele>
        <time>2022-09-24T14:42:16.000Z</time>
      </trkpt>
      <trkpt lat="45.82762" lon="4.73624">
        <ele>335.61731</ele>
        <time>2022-09-24T14:42:17.000Z</time>
      </trkpt>
      <trkpt lat="45.82766" lon="4.7362">
        <ele>335.56598</ele>
        <time>2022-09-24T14:42:18.000Z</time>
      </trkpt>
      <trkpt lat="45.82769" lon="4.73615">
        <ele>335.43872</ele>
        <time>2022-09-24T14:42:19.000Z</time>
      </trkpt>
      <trkpt lat="45.82773" lon="4.73611">
        <ele>335.3338</ele>
        <time>2022-09-24T14:42:20.000Z</time>
      </trkpt>
      <trkpt lat="45.82776" lon="4.73606">
        <ele>335.15204</ele>
        <time>2022-09-24T14:42:21.000Z</time>
      </trkpt>
      <trkpt lat="45.82779" lon="4.73603">
        <ele>334.95898</ele>
        <time>2022-09-24T14:42:22.000Z</time>
      </trkpt>
      <trkpt lat="45.82783" lon="4.73599">
        <ele>334.74408</ele>
        <time>2022-09-24T14:42:23.000Z</time>
      </trkpt>
      <trkpt lat="45.82787" lon="4.73593">
        <ele>334.44867</ele>
        <time>2022-09-24T14:42:24.000Z</time>
      </trkpt>
      <trkpt lat="45.8279" lon="4.73588">
        <ele>334.13193</ele>
        <time>2022-09-24T14:42:25.000Z</time>
      </trkpt>
      <trkpt lat="45.82793" lon="4.73584">
        <ele>333.8826</ele>
        <time>2022-09-24T14:42:26.000Z</time>
      </trkpt>
      <trkpt lat="45.82797" lon="4.73579">
        <ele>333.72189</ele>
        <time>2022-09-24T14:42:27.000Z</time>
      </trkpt>
      <trkpt lat="45.828" lon="4.73575">
        <ele>333.53589</ele>
        <time>2022-09-24T14:42:28.000Z</time>
      </trkpt>
      <trkpt lat="45.82805" lon="4.73572">
        <ele>333.34299</ele>
        <time>2022-09-24T14:42:29.000Z</time>
      </trkpt>
      <trkpt lat="45.82809" lon="4.73566">
        <ele>333.09106</ele>
        <time>2022-09-24T14:42:30.000Z</time>
      </trkpt>
      <trkpt lat="45.82813" lon="4.73561">
        <ele>332.91492</ele>
        <time>2022-09-24T14:42:31.000Z</time>
      </trkpt>
      <trkpt lat="45.82818" lon="4.73558">
        <ele>332.62869</ele>
        <time>2022-09-24T14:42:32.000Z</time>
      </trkpt>
      <trkpt lat="45.82823" lon="4.73555">
        <ele>332.46039</ele>
        <time>2022-09-24T14:42:33.000Z</time>
      </trkpt>
      <trkpt lat="45.82827" lon="4.73551">
        <ele>332.26773</ele>
        <time>2022-09-24T14:42:34.000Z</time>
      </trkpt>
      <trkpt lat="45.82831" lon="4.73546">
        <ele>332.06329</ele>
        <time>2022-09-24T14:42:35.000Z</time>
      </trkpt>
      <trkpt lat="45.82833" lon="4.73538">
        <ele>331.88959</ele>
        <time>2022-09-24T14:42:36.000Z</time>
      </trkpt>
      <trkpt lat="45.82838" lon="4.73533">
        <ele>331.7688</ele>
        <time>2022-09-24T14:42:37.000Z</time>
      </trkpt>
      <trkpt lat="45.82845" lon="4.73526">
        <ele>331.60712</ele>
        <time>2022-09-24T14:42:38.000Z</time>
      </trkpt>
      <trkpt lat="45.8285" lon="4.73522">
        <ele>331.40237</ele>
        <time>2022-09-24T14:42:39.000Z</time>
      </trkpt>
      <trkpt lat="45.82855" lon="4.73517">
        <ele>331.09647</ele>
        <time>2022-09-24T14:42:40.000Z</time>
      </trkpt>
      <trkpt lat="45.82862" lon="4.7351">
        <ele>330.95407</ele>
        <time>2022-09-24T14:42:41.000Z</time>
      </trkpt>
      <trkpt lat="45.82866" lon="4.73504">
        <ele>330.74396</ele>
        <time>2022-09-24T14:42:42.000Z</time>
      </trkpt>
      <trkpt lat="45.8287" lon="4.73499">
        <ele>330.50623</ele>
        <time>2022-09-24T14:42:43.000Z</time>
      </trkpt>
      <trkpt lat="45.82876" lon="4.73494">
        <ele>330.21106</ele>
        <time>2022-09-24T14:42:44.000Z</time>
      </trkpt>
      <trkpt lat="45.82882" lon="4.73488">
        <ele>329.81833</ele>
        <time>2022-09-24T14:42:45.000Z</time>
      </trkpt>
      <trkpt lat="45.82886" lon="4.73481">
        <ele>329.43817</ele>
        <time>2022-09-24T14:42:46.000Z</time>
      </trkpt>
      <trkpt lat="45.82889" lon="4.73475">
        <ele>328.99042</ele>
        <time>2022-09-24T14:42:47.000Z</time>
      </trkpt>
      <trkpt lat="45.82894" lon="4.73469">
        <ele>328.51373</ele>
        <time>2022-09-24T14:42:48.000Z</time>
      </trkpt>
      <trkpt lat="45.82897" lon="4.73466">
        <ele>327.92255</ele>
        <time>2022-09-24T14:42:49.000Z</time>
      </trkpt>
      <trkpt lat="45.82901" lon="4.73462">
        <ele>327.40778</ele>
        <time>2022-09-24T14:42:50.000Z</time>
      </trkpt>
      <trkpt lat="45.82905" lon="4.73456">
        <ele>326.87057</ele>
        <time>2022-09-24T14:42:51.000Z</time>
      </trkpt>
      <trkpt lat="45.82912" lon="4.73453">
        <ele>326.35394</ele>
        <time>2022-09-24T14:42:52.000Z</time>
      </trkpt>
      <trkpt lat="45.82917" lon="4.73447">
        <ele>325.78421</ele>
        <time>2022-09-24T14:42:53.000Z</time>
      </trkpt>
      <trkpt lat="45.82922" lon="4.73442">
        <ele>325.32486</ele>
        <time>2022-09-24T14:42:54.000Z</time>
      </trkpt>
      <trkpt lat="45.82929" lon="4.73436">
        <ele>324.93066</ele>
        <time>2022-09-24T14:42:55.000Z</time>
      </trkpt>
      <trkpt lat="45.82935" lon="4.73431">
        <ele>324.55511</ele>
        <time>2022-09-24T14:42:56.000Z</time>
      </trkpt>
      <trkpt lat="45.82942" lon="4.73427">
        <ele>324.11691</ele>
        <time>2022-09-24T14:42:57.000Z</time>
      </trkpt>
      <trkpt lat="45.82947" lon="4.73421">
        <ele>323.72415</ele>
        <time>2022-09-24T14:42:58.000Z</time>
      </trkpt>
      <trkpt lat="45.82952" lon="4.73417">
        <ele>323.40237</ele>
        <time>2022-09-24T14:42:59.000Z</time>
      </trkpt>
      <trkpt lat="45.82956" lon="4.73412">
        <ele>323.0939</ele>
        <time>2022-09-24T14:43:00.000Z</time>
      </trkpt>
      <trkpt lat="45.82961" lon="4.73408">
        <ele>322.59894</ele>
        <time>2022-09-24T14:43:01.000Z</time>
      </trkpt>
      <trkpt lat="45.82966" lon="4.73406">
        <ele>322.10019</ele>
        <time>2022-09-24T14:43:02.000Z</time>
      </trkpt>
      <trkpt lat="45.8297" lon="4.73404">
        <ele>321.59561</ele>
        <time>2022-09-24T14:43:03.000Z</time>
      </trkpt>
      <trkpt lat="45.82972" lon="4.73402">
        <ele>321.22571</ele>
        <time>2022-09-24T14:43:04.000Z</time>
      </trkpt>
      <trkpt lat="45.82974" lon="4.73402">
        <ele>320.98785</ele>
        <time>2022-09-24T14:43:05.000Z</time>
      </trkpt>
      <trkpt lat="45.82976" lon="4.734">
        <ele>320.69635</ele>
        <time>2022-09-24T14:43:10.000Z</time>
      </trkpt>
      <trkpt lat="45.82978" lon="4.73397">
        <ele>320.3407</ele>
        <time>2022-09-24T14:43:46.000Z</time>
      </trkpt>
      <trkpt lat="45.8298" lon="4.73395">
        <ele>319.92014</ele>
        <time>2022-09-24T14:43:49.000Z</time>
      </trkpt>
      <trkpt lat="45.82982" lon="4.73395">
        <ele>319.48285</ele>
        <time>2022-09-24T14:43:54.000Z</time>
      </trkpt>
      <trkpt lat="45.82984" lon="4.73393">
        <ele>318.95425</ele>
        <time>2022-09-24T14:43:55.000Z</time>
      </trkpt>
      <trkpt lat="45.82987" lon="4.7339">
        <ele>318.46634</ele>
        <time>2022-09-24T14:43:56.000Z</time>
      </trkpt>
      <trkpt lat="45.82991" lon="4.73387">
        <ele>317.98196</ele>
        <time>2022-09-24T14:43:57.000Z</time>
      </trkpt>
      <trkpt lat="45.82994" lon="4.73384">
        <ele>317.49243</ele>
        <time>2022-09-24T14:43:58.000Z</time>
      </trkpt>
      <trkpt lat="45.82997" lon="4.73381">
        <ele>316.92883</ele>
        <time>2022-09-24T14:43:59.000Z</time>
      </trkpt>
      <trkpt lat="45.83001" lon="4.73379">
        <ele>316.30014</ele>
        <time>2022-09-24T14:44:00.000Z</time>
      </trkpt>
      <trkpt lat="45.83005" lon="4.73376">
        <ele>315.57086</ele>
        <time>2022-09-24T14:44:01.000Z</time>
      </trkpt>
      <trkpt lat="45.8301" lon="4.73378">
        <ele>314.75308</ele>
        <time>2022-09-24T14:44:02.000Z</time>
      </trkpt>
      <trkpt lat="45.83013" lon="4.7337">
        <ele>313.9761</ele>
        <time>2022-09-24T14:44:03.000Z</time>
      </trkpt>
      <trkpt lat="45.83018" lon="4.73367">
        <ele>313.24533</ele>
        <time>2022-09-24T14:44:04.000Z</time>
      </trkpt>
      <trkpt lat="45.83021" lon="4.73365">
        <ele>312.51404</ele>
        <time>2022-09-24T14:44:05.000Z</time>
      </trkpt>
      <trkpt lat="45.83023" lon="4.7336">
        <ele>311.82233</ele>
        <time>2022-09-24T14:44:06.000Z</time>
      </trkpt>
      <trkpt lat="45.83026" lon="4.73356">
        <ele>311.19177</ele>
        <time>2022-09-24T14:44:07.000Z</time>
      </trkpt>
      <trkpt lat="45.83029" lon="4.73352">
        <ele>310.58127</ele>
        <time>2022-09-24T14:44:08.000Z</time>
      </trkpt>
      <trkpt lat="45.83033" lon="4.73349">
        <ele>309.86942</ele>
        <time>2022-09-24T14:44:09.000Z</time>
      </trkpt>
      <trkpt lat="45.83037" lon="4.73345">
        <ele>309.19696</ele>
        <time>2022-09-24T14:44:10.000Z</time>
      </trkpt>
      <trkpt lat="45.83042" lon="4.73341">
        <ele>308.45419</ele>
        <time>2022-09-24T14:44:11.000Z</time>
      </trkpt>
      <trkpt lat="45.83046" lon="4.73337">
        <ele>307.80859</ele>
        <time>2022-09-24T14:44:12.000Z</time>
      </trkpt>
      <trkpt lat="45.8305" lon="4.73332">
        <ele>307.15463</ele>
        <time>2022-09-24T14:44:13.000Z</time>
      </trkpt>
      <trkpt lat="45.83054" lon="4.73328">
        <ele>306.63855</ele>
        <time>2022-09-24T14:44:14.000Z</time>
      </trkpt>
      <trkpt lat="45.83059" lon="4.73324">
        <ele>306.20047</ele>
        <time>2022-09-24T14:44:15.000Z</time>
      </trkpt>
      <trkpt lat="45.83063" lon="4.73319">
        <ele>305.74808</ele>
        <time>2022-09-24T14:44:16.000Z</time>
      </trkpt>
      <trkpt lat="45.83066" lon="4.73316">
        <ele>305.23349</ele>
        <time>2022-09-24T14:44:17.000Z</time>
      </trkpt>
      <trkpt lat="45.8307" lon="4.73312">
        <ele>304.73135</ele>
        <time>2022-09-24T14:44:18.000Z</time>
      </trkpt>
      <trkpt lat="45.83073" lon="4.73307">
        <ele>304.31342</ele>
        <time>2022-09-24T14:44:19.000Z</time>
      </trkpt>
      <trkpt lat="45.83076" lon="4.73304">
        <ele>303.87775</ele>
        <time>2022-09-24T14:44:20.000Z</time>
      </trkpt>
      <trkpt lat="45.83079" lon="4.733">
        <ele>303.51483</ele>
        <time>2022-09-24T14:44:21.000Z</time>
      </trkpt>
      <trkpt lat="45.83084" lon="4.73295">
        <ele>303.24878</ele>
        <time>2022-09-24T14:44:22.000Z</time>
      </trkpt>
      <trkpt lat="45.83089" lon="4.73292">
        <ele>302.8912</ele>
        <time>2022-09-24T14:44:23.000Z</time>
      </trkpt>
      <trkpt lat="45.83094" lon="4.73287">
        <ele>302.46344</ele>
        <time>2022-09-24T14:44:24.000Z</time>
      </trkpt>
      <trkpt lat="45.83098" lon="4.73282">
        <ele>302.04977</ele>
        <time>2022-09-24T14:44:25.000Z</time>
      </trkpt>
      <trkpt lat="45.83103" lon="4.73278">
        <ele>301.6701</ele>
        <time>2022-09-24T14:44:26.000Z</time>
      </trkpt>
      <trkpt lat="45.83108" lon="4.73275">
        <ele>301.23233</ele>
        <time>2022-09-24T14:44:27.000Z</time>
      </trkpt>
      <trkpt lat="45.83111" lon="4.73271">
        <ele>300.78253</ele>
        <time>2022-09-24T14:44:28.000Z</time>
      </trkpt>
      <trkpt lat="45.83114" lon="4.73264">
        <ele>300.35333</ele>
        <time>2022-09-24T14:44:29.000Z</time>
      </trkpt>
      <trkpt lat="45.8312" lon="4.73259">
        <ele>299.96436</ele>
        <time>2022-09-24T14:44:30.000Z</time>
      </trkpt>
      <trkpt lat="45.83123" lon="4.73255">
        <ele>299.64001</ele>
        <time>2022-09-24T14:44:31.000Z</time>
      </trkpt>
      <trkpt lat="45.83125" lon="4.73251">
        <ele>299.34244</ele>
        <time>2022-09-24T14:44:32.000Z</time>
      </trkpt>
      <trkpt lat="45.83127" lon="4.73251">
        <ele>299.20248</ele>
        <time>2022-09-24T14:44:33.000Z</time>
      </trkpt>
      <trkpt lat="45.83129" lon="4.7325">
        <ele>299.07611</ele>
        <time>2022-09-24T14:44:34.000Z</time>
      </trkpt>
      <trkpt lat="45.83132" lon="4.73246">
        <ele>298.95309</ele>
        <time>2022-09-24T14:44:35.000Z</time>
      </trkpt>
      <trkpt lat="45.83135" lon="4.73245">
        <ele>298.83875</ele>
        <time>2022-09-24T14:44:36.000Z</time>
      </trkpt>
      <trkpt lat="45.83138" lon="4.73243">
        <ele>298.76736</ele>
        <time>2022-09-24T14:44:37.000Z</time>
      </trkpt>
      <trkpt lat="45.83141" lon="4.73242">
        <ele>298.66452</ele>
        <time>2022-09-24T14:44:38.000Z</time>
      </trkpt>
      <trkpt lat="45.83144" lon="4.73239">
        <ele>298.50061</ele>
        <time>2022-09-24T14:44:39.000Z</time>
      </trkpt>
      <trkpt lat="45.83146" lon="4.73235">
        <ele>298.30746</ele>
        <time>2022-09-24T14:44:41.000Z</time>
      </trkpt>
      <trkpt lat="45.83147" lon="4.73232">
        <ele>298.08017</ele>
        <time>2022-09-24T14:44:42.000Z</time>
      </trkpt>
      <trkpt lat="45.8315" lon="4.73229">
        <ele>297.83774</ele>
        <time>2022-09-24T14:44:43.000Z</time>
      </trkpt>
      <trkpt lat="45.83153" lon="4.73225">
        <ele>297.62646</ele>
        <time>2022-09-24T14:44:44.000Z</time>
      </trkpt>
      <trkpt lat="45.83159" lon="4.73222">
        <ele>297.46384</ele>
        <time>2022-09-24T14:44:45.000Z</time>
      </trkpt>
      <trkpt lat="45.83163" lon="4.73219">
        <ele>297.33942</ele>
        <time>2022-09-24T14:44:46.000Z</time>
      </trkpt>
      <trkpt lat="45.83168" lon="4.73215">
        <ele>297.19318</ele>
        <time>2022-09-24T14:44:47.000Z</time>
      </trkpt>
      <trkpt lat="45.83172" lon="4.73212">
        <ele>297.12131</ele>
        <time>2022-09-24T14:44:48.000Z</time>
      </trkpt>
      <trkpt lat="45.83177" lon="4.73207">
        <ele>297.08005</ele>
        <time>2022-09-24T14:44:49.000Z</time>
      </trkpt>
      <trkpt lat="45.83182" lon="4.73203">
        <ele>297.05798</ele>
        <time>2022-09-24T14:44:50.000Z</time>
      </trkpt>
      <trkpt lat="45.83185" lon="4.73197">
        <ele>296.97961</ele>
        <time>2022-09-24T14:44:51.000Z</time>
      </trkpt>
      <trkpt lat="45.83188" lon="4.73193">
        <ele>296.97247</ele>
        <time>2022-09-24T14:44:52.000Z</time>
      </trkpt>
      <trkpt lat="45.83191" lon="4.73189">
        <ele>296.94293</ele>
        <time>2022-09-24T14:44:53.000Z</time>
      </trkpt>
      <trkpt lat="45.83193" lon="4.73185">
        <ele>296.86172</ele>
        <time>2022-09-24T14:44:54.000Z</time>
      </trkpt>
      <trkpt lat="45.83197" lon="4.73179">
        <ele>296.70071</ele>
        <time>2022-09-24T14:44:55.000Z</time>
      </trkpt>
      <trkpt lat="45.83199" lon="4.73174">
        <ele>296.54791</ele>
        <time>2022-09-24T14:44:56.000Z</time>
      </trkpt>
      <trkpt lat="45.83199" lon="4.7317">
        <ele>296.38388</ele>
        <time>2022-09-24T14:44:57.000Z</time>
      </trkpt>
      <trkpt lat="45.83201" lon="4.73166">
        <ele>296.22174</ele>
        <time>2022-09-24T14:44:58.000Z</time>
      </trkpt>
      <trkpt lat="45.83203" lon="4.73161">
        <ele>296.12158</ele>
        <time>2022-09-24T14:44:59.000Z</time>
      </trkpt>
      <trkpt lat="45.83204" lon="4.73153">
        <ele>295.95129</ele>
        <time>2022-09-24T14:45:00.000Z</time>
      </trkpt>
      <trkpt lat="45.83204" lon="4.73145">
        <ele>295.82013</ele>
        <time>2022-09-24T14:45:01.000Z</time>
      </trkpt>
      <trkpt lat="45.83205" lon="4.7314">
        <ele>295.69476</ele>
        <time>2022-09-24T14:45:02.000Z</time>
      </trkpt>
      <trkpt lat="45.83206" lon="4.73132">
        <ele>295.60834</ele>
        <time>2022-09-24T14:45:03.000Z</time>
      </trkpt>
      <trkpt lat="45.83206" lon="4.73124">
        <ele>295.53372</ele>
        <time>2022-09-24T14:45:04.000Z</time>
      </trkpt>
      <trkpt lat="45.83207" lon="4.73117">
        <ele>295.44366</ele>
        <time>2022-09-24T14:45:05.000Z</time>
      </trkpt>
      <trkpt lat="45.83208" lon="4.73108">
        <ele>295.32629</ele>
        <time>2022-09-24T14:45:06.000Z</time>
      </trkpt>
      <trkpt lat="45.8321" lon="4.73101">
        <ele>295.19275</ele>
        <time>2022-09-24T14:45:07.000Z</time>
      </trkpt>
      <trkpt lat="45.83214" lon="4.73096">
        <ele>295.13531</ele>
        <time>2022-09-24T14:45:08.000Z</time>
      </trkpt>
      <trkpt lat="45.83216" lon="4.73089">
        <ele>295.0665</ele>
        <time>2022-09-24T14:45:09.000Z</time>
      </trkpt>
      <trkpt lat="45.83219" lon="4.73081">
        <ele>295.0083</ele>
        <time>2022-09-24T14:45:10.000Z</time>
      </trkpt>
      <trkpt lat="45.83225" lon="4.73078">
        <ele>294.8912</ele>
        <time>2022-09-24T14:45:11.000Z</time>
      </trkpt>
      <trkpt lat="45.8323" lon="4.73072">
        <ele>294.71667</ele>
        <time>2022-09-24T14:45:12.000Z</time>
      </trkpt>
      <trkpt lat="45.83233" lon="4.73066">
        <ele>294.51929</ele>
        <time>2022-09-24T14:45:13.000Z</time>
      </trkpt>
      <trkpt lat="45.83235" lon="4.73057">
        <ele>294.28961</ele>
        <time>2022-09-24T14:45:14.000Z</time>
      </trkpt>
      <trkpt lat="45.83236" lon="4.7305">
        <ele>294.0715</ele>
        <time>2022-09-24T14:45:15.000Z</time>
      </trkpt>
      <trkpt lat="45.8324" lon="4.73043">
        <ele>293.79636</ele>
        <time>2022-09-24T14:45:16.000Z</time>
      </trkpt>
      <trkpt lat="45.83242" lon="4.73037">
        <ele>293.51227</ele>
        <time>2022-09-24T14:45:17.000Z</time>
      </trkpt>
      <trkpt lat="45.83245" lon="4.7303">
        <ele>293.18271</ele>
        <time>2022-09-24T14:45:18.000Z</time>
      </trkpt>
      <trkpt lat="45.83247" lon="4.73024">
        <ele>292.82816</ele>
        <time>2022-09-24T14:45:19.000Z</time>
      </trkpt>
      <trkpt lat="45.83249" lon="4.73017">
        <ele>292.49261</ele>
        <time>2022-09-24T14:45:20.000Z</time>
      </trkpt>
      <trkpt lat="45.8325" lon="4.73011">
        <ele>292.13678</ele>
        <time>2022-09-24T14:45:21.000Z</time>
      </trkpt>
      <trkpt lat="45.83253" lon="4.73005">
        <ele>291.79794</ele>
        <time>2022-09-24T14:45:22.000Z</time>
      </trkpt>
      <trkpt lat="45.83255" lon="4.73001">
        <ele>291.33093</ele>
        <time>2022-09-24T14:45:23.000Z</time>
      </trkpt>
      <trkpt lat="45.83258" lon="4.72997">
        <ele>290.86615</ele>
        <time>2022-09-24T14:45:24.000Z</time>
      </trkpt>
      <trkpt lat="45.8326" lon="4.72991">
        <ele>290.39343</ele>
        <time>2022-09-24T14:45:25.000Z</time>
      </trkpt>
      <trkpt lat="45.83262" lon="4.72987">
        <ele>289.90305</ele>
        <time>2022-09-24T14:45:26.000Z</time>
      </trkpt>
      <trkpt lat="45.83266" lon="4.72982">
        <ele>289.4505</ele>
        <time>2022-09-24T14:45:27.000Z</time>
      </trkpt>
      <trkpt lat="45.83268" lon="4.72976">
        <ele>288.83502</ele>
        <time>2022-09-24T14:45:28.000Z</time>
      </trkpt>
      <trkpt lat="45.83273" lon="4.7297">
        <ele>288.25745</ele>
        <time>2022-09-24T14:45:29.000Z</time>
      </trkpt>
      <trkpt lat="45.83276" lon="4.72962">
        <ele>287.64865</ele>
        <time>2022-09-24T14:45:30.000Z</time>
      </trkpt>
      <trkpt lat="45.83277" lon="4.72956">
        <ele>287.06866</ele>
        <time>2022-09-24T14:45:31.000Z</time>
      </trkpt>
      <trkpt lat="45.83278" lon="4.72949">
        <ele>286.44739</ele>
        <time>2022-09-24T14:45:32.000Z</time>
      </trkpt>
      <trkpt lat="45.8328" lon="4.72944">
        <ele>285.93735</ele>
        <time>2022-09-24T14:45:33.000Z</time>
      </trkpt>
      <trkpt lat="45.83281" lon="4.72939">
        <ele>285.4761</ele>
        <time>2022-09-24T14:45:34.000Z</time>
      </trkpt>
      <trkpt lat="45.83282" lon="4.72933">
        <ele>285.07797</ele>
        <time>2022-09-24T14:45:35.000Z</time>
      </trkpt>
      <trkpt lat="45.83283" lon="4.72931">
        <ele>284.69739</ele>
        <time>2022-09-24T14:45:36.000Z</time>
      </trkpt>
      <trkpt lat="45.83284" lon="4.72928">
        <ele>284.36786</ele>
        <time>2022-09-24T14:45:37.000Z</time>
      </trkpt>
      <trkpt lat="45.83285" lon="4.72925">
        <ele>284.02814</ele>
        <time>2022-09-24T14:45:38.000Z</time>
      </trkpt>
      <trkpt lat="45.83286" lon="4.72921">
        <ele>283.68011</ele>
        <time>2022-09-24T14:45:39.000Z</time>
      </trkpt>
      <trkpt lat="45.83289" lon="4.72918">
        <ele>283.34531</ele>
        <time>2022-09-24T14:45:40.000Z</time>
      </trkpt>
      <trkpt lat="45.83291" lon="4.72913">
        <ele>283.08847</ele>
        <time>2022-09-24T14:45:41.000Z</time>
      </trkpt>
      <trkpt lat="45.83294" lon="4.72908">
        <ele>282.75006</ele>
        <time>2022-09-24T14:45:42.000Z</time>
      </trkpt>
      <trkpt lat="45.83295" lon="4.72904">
        <ele>282.59674</ele>
        <time>2022-09-24T14:45:43.000Z</time>
      </trkpt>
      <trkpt lat="45.83297" lon="4.729">
        <ele>282.45636</ele>
        <time>2022-09-24T14:45:44.000Z</time>
      </trkpt>
      <trkpt lat="45.83298" lon="4.72897">
        <ele>282.32843</ele>
        <time>2022-09-24T14:45:45.000Z</time>
      </trkpt>
      <trkpt lat="45.83299" lon="4.72895">
        <ele>282.2868</ele>
        <time>2022-09-24T14:45:46.000Z</time>
      </trkpt>
      <trkpt lat="45.833" lon="4.72892">
        <ele>282.21948</ele>
        <time>2022-09-24T14:45:47.000Z</time>
      </trkpt>
      <trkpt lat="45.83301" lon="4.72889">
        <ele>282.22699</ele>
        <time>2022-09-24T14:45:49.000Z</time>
      </trkpt>
      <trkpt lat="45.833" lon="4.72887">
        <ele>282.11646</ele>
        <time>2022-09-24T14:46:00.000Z</time>
      </trkpt>
      <trkpt lat="45.83299" lon="4.72883">
        <ele>282.01126</ele>
        <time>2022-09-24T14:46:26.000Z</time>
      </trkpt>
      <trkpt lat="45.83297" lon="4.7288">
        <ele>281.83273</ele>
        <time>2022-09-24T14:46:28.000Z</time>
      </trkpt>
      <trkpt lat="45.83294" lon="4.72878">
        <ele>281.64752</ele>
        <time>2022-09-24T14:46:31.000Z</time>
      </trkpt>
      <trkpt lat="45.83293" lon="4.72876">
        <ele>281.34033</ele>
        <time>2022-09-24T14:46:32.000Z</time>
      </trkpt>
      <trkpt lat="45.83291" lon="4.72872">
        <ele>281.04889</ele>
        <time>2022-09-24T14:46:34.000Z</time>
      </trkpt>
      <trkpt lat="45.83289" lon="4.72869">
        <ele>280.71097</ele>
        <time>2022-09-24T14:46:35.000Z</time>
      </trkpt>
      <trkpt lat="45.83288" lon="4.72867">
        <ele>280.45941</ele>
        <time>2022-09-24T14:46:36.000Z</time>
      </trkpt>
      <trkpt lat="45.83287" lon="4.72865">
        <ele>280.11609</ele>
        <time>2022-09-24T14:46:37.000Z</time>
      </trkpt>
      <trkpt lat="45.83286" lon="4.72863">
        <ele>279.70142</ele>
        <time>2022-09-24T14:46:38.000Z</time>
      </trkpt>
      <trkpt lat="45.83284" lon="4.72861">
        <ele>279.28287</ele>
        <time>2022-09-24T14:46:39.000Z</time>
      </trkpt>
      <trkpt lat="45.83282" lon="4.72859">
        <ele>278.84851</ele>
        <time>2022-09-24T14:46:40.000Z</time>
      </trkpt>
      <trkpt lat="45.8328" lon="4.72857">
        <ele>278.33844</ele>
        <time>2022-09-24T14:46:41.000Z</time>
      </trkpt>
      <trkpt lat="45.83278" lon="4.72854">
        <ele>277.88947</ele>
        <time>2022-09-24T14:46:42.000Z</time>
      </trkpt>
      <trkpt lat="45.83276" lon="4.72852">
        <ele>277.33295</ele>
        <time>2022-09-24T14:46:43.000Z</time>
      </trkpt>
      <trkpt lat="45.83274" lon="4.72851">
        <ele>276.72229</ele>
        <time>2022-09-24T14:46:44.000Z</time>
      </trkpt>
      <trkpt lat="45.83272" lon="4.7285">
        <ele>276.05887</ele>
        <time>2022-09-24T14:46:45.000Z</time>
      </trkpt>
      <trkpt lat="45.8327" lon="4.72848">
        <ele>275.33167</ele>
        <time>2022-09-24T14:46:46.000Z</time>
      </trkpt>
      <trkpt lat="45.83268" lon="4.72847">
        <ele>274.70618</ele>
        <time>2022-09-24T14:46:47.000Z</time>
      </trkpt>
      <trkpt lat="45.83265" lon="4.72847">
        <ele>274.0246</ele>
        <time>2022-09-24T14:46:48.000Z</time>
      </trkpt>
      <trkpt lat="45.83262" lon="4.72846">
        <ele>273.46399</ele>
        <time>2022-09-24T14:46:49.000Z</time>
      </trkpt>
      <trkpt lat="45.83259" lon="4.72846">
        <ele>272.92206</ele>
        <time>2022-09-24T14:46:50.000Z</time>
      </trkpt>
      <trkpt lat="45.83256" lon="4.72845">
        <ele>272.47324</ele>
        <time>2022-09-24T14:46:51.000Z</time>
      </trkpt>
      <trkpt lat="45.83252" lon="4.72844">
        <ele>272.04019</ele>
        <time>2022-09-24T14:46:52.000Z</time>
      </trkpt>
      <trkpt lat="45.83248" lon="4.72842">
        <ele>271.66534</ele>
        <time>2022-09-24T14:46:53.000Z</time>
      </trkpt>
      <trkpt lat="45.83243" lon="4.72841">
        <ele>271.24466</ele>
        <time>2022-09-24T14:46:54.000Z</time>
      </trkpt>
      <trkpt lat="45.83238" lon="4.72839">
        <ele>270.80743</ele>
        <time>2022-09-24T14:46:55.000Z</time>
      </trkpt>
      <trkpt lat="45.83234" lon="4.72837">
        <ele>270.30524</ele>
        <time>2022-09-24T14:46:56.000Z</time>
      </trkpt>
      <trkpt lat="45.83229" lon="4.72836">
        <ele>269.85764</ele>
        <time>2022-09-24T14:46:57.000Z</time>
      </trkpt>
      <trkpt lat="45.83226" lon="4.72833">
        <ele>269.56885</ele>
        <time>2022-09-24T14:46:58.000Z</time>
      </trkpt>
      <trkpt lat="45.83224" lon="4.7283">
        <ele>269.32428</ele>
        <time>2022-09-24T14:46:59.000Z</time>
      </trkpt>
      <trkpt lat="45.83221" lon="4.72828">
        <ele>269.14496</ele>
        <time>2022-09-24T14:47:00.000Z</time>
      </trkpt>
      <trkpt lat="45.83216" lon="4.72826">
        <ele>269.00046</ele>
        <time>2022-09-24T14:47:01.000Z</time>
      </trkpt>
      <trkpt lat="45.83214" lon="4.72823">
        <ele>268.84366</ele>
        <time>2022-09-24T14:47:02.000Z</time>
      </trkpt>
      <trkpt lat="45.83214" lon="4.7282">
        <ele>268.63989</ele>
        <time>2022-09-24T14:47:03.000Z</time>
      </trkpt>
      <trkpt lat="45.83214" lon="4.72813">
        <ele>268.57947</ele>
        <time>2022-09-24T14:47:04.000Z</time>
      </trkpt>
      <trkpt lat="45.83214" lon="4.72808">
        <ele>268.55075</ele>
        <time>2022-09-24T14:47:05.000Z</time>
      </trkpt>
      <trkpt lat="45.83215" lon="4.72803">
        <ele>268.44952</ele>
        <time>2022-09-24T14:47:06.000Z</time>
      </trkpt>
      <trkpt lat="45.83216" lon="4.72797">
        <ele>268.30182</ele>
        <time>2022-09-24T14:47:07.000Z</time>
      </trkpt>
      <trkpt lat="45.83217" lon="4.72791">
        <ele>268.26074</ele>
        <time>2022-09-24T14:47:08.000Z</time>
      </trkpt>
      <trkpt lat="45.83219" lon="4.72786">
        <ele>268.20413</ele>
        <time>2022-09-24T14:47:09.000Z</time>
      </trkpt>
      <trkpt lat="45.8322" lon="4.72781">
        <ele>268.17722</ele>
        <time>2022-09-24T14:47:10.000Z</time>
      </trkpt>
      <trkpt lat="45.83221" lon="4.72776">
        <ele>268.09961</ele>
        <time>2022-09-24T14:47:11.000Z</time>
      </trkpt>
      <trkpt lat="45.83223" lon="4.72771">
        <ele>268.19162</ele>
        <time>2022-09-24T14:47:12.000Z</time>
      </trkpt>
      <trkpt lat="45.83224" lon="4.72766">
        <ele>268.22614</ele>
        <time>2022-09-24T14:47:13.000Z</time>
      </trkpt>
      <trkpt lat="45.83226" lon="4.7276">
        <ele>268.34299</ele>
        <time>2022-09-24T14:47:14.000Z</time>
      </trkpt>
      <trkpt lat="45.83228" lon="4.72755">
        <ele>268.65652</ele>
        <time>2022-09-24T14:47:15.000Z</time>
      </trkpt>
      <trkpt lat="45.83231" lon="4.7275">
        <ele>268.98212</ele>
        <time>2022-09-24T14:47:16.000Z</time>
      </trkpt>
      <trkpt lat="45.83234" lon="4.72746">
        <ele>269.31415</ele>
        <time>2022-09-24T14:47:17.000Z</time>
      </trkpt>
      <trkpt lat="45.83238" lon="4.72743">
        <ele>269.60522</ele>
        <time>2022-09-24T14:47:18.000Z</time>
      </trkpt>
      <trkpt lat="45.83242" lon="4.7274">
        <ele>269.95178</ele>
        <time>2022-09-24T14:47:19.000Z</time>
      </trkpt>
      <trkpt lat="45.83246" lon="4.72738">
        <ele>270.31708</ele>
        <time>2022-09-24T14:47:20.000Z</time>
      </trkpt>
      <trkpt lat="45.83249" lon="4.72737">
        <ele>270.74423</ele>
        <time>2022-09-24T14:47:21.000Z</time>
      </trkpt>
      <trkpt lat="45.83253" lon="4.72737">
        <ele>271.17786</ele>
        <time>2022-09-24T14:47:22.000Z</time>
      </trkpt>
      <trkpt lat="45.83256" lon="4.72736">
        <ele>271.55453</ele>
        <time>2022-09-24T14:47:24.000Z</time>
      </trkpt>
      <trkpt lat="45.83256" lon="4.72732">
        <ele>271.89774</ele>
        <time>2022-09-24T14:47:26.000Z</time>
      </trkpt>
      <trkpt lat="45.83254" lon="4.72731">
        <ele>272.27518</ele>
        <time>2022-09-24T14:47:27.000Z</time>
      </trkpt>
      <trkpt lat="45.83251" lon="4.7273">
        <ele>272.68683</ele>
        <time>2022-09-24T14:47:28.000Z</time>
      </trkpt>
      <trkpt lat="45.83247" lon="4.7273">
        <ele>273.13641</ele>
        <time>2022-09-24T14:47:29.000Z</time>
      </trkpt>
      <trkpt lat="45.83244" lon="4.7273">
        <ele>273.57983</ele>
        <time>2022-09-24T14:47:30.000Z</time>
      </trkpt>
      <trkpt lat="45.83241" lon="4.7273">
        <ele>274.02344</ele>
        <time>2022-09-24T14:47:31.000Z</time>
      </trkpt>
      <trkpt lat="45.83239" lon="4.72731">
        <ele>274.51898</ele>
        <time>2022-09-24T14:47:32.000Z</time>
      </trkpt>
      <trkpt lat="45.83236" lon="4.72732">
        <ele>274.98187</ele>
        <time>2022-09-24T14:47:33.000Z</time>
      </trkpt>
      <trkpt lat="45.83234" lon="4.72733">
        <ele>275.36255</ele>
        <time>2022-09-24T14:47:34.000Z</time>
      </trkpt>
      <trkpt lat="45.83232" lon="4.72734">
        <ele>275.76544</ele>
        <time>2022-09-24T14:47:35.000Z</time>
      </trkpt>
      <trkpt lat="45.83229" lon="4.72735">
        <ele>276.0986</ele>
        <time>2022-09-24T14:47:36.000Z</time>
      </trkpt>
      <trkpt lat="45.83226" lon="4.72735">
        <ele>276.27792</ele>
        <time>2022-09-24T14:47:37.000Z</time>
      </trkpt>
      <trkpt lat="45.83223" lon="4.72734">
        <ele>276.43536</ele>
        <time>2022-09-24T14:47:38.000Z</time>
      </trkpt>
      <trkpt lat="45.8322" lon="4.72734">
        <ele>276.56345</ele>
        <time>2022-09-24T14:47:39.000Z</time>
      </trkpt>
      <trkpt lat="45.83217" lon="4.72734">
        <ele>276.70804</ele>
        <time>2022-09-24T14:47:40.000Z</time>
      </trkpt>
      <trkpt lat="45.83214" lon="4.72733">
        <ele>276.80182</ele>
        <time>2022-09-24T14:47:41.000Z</time>
      </trkpt>
      <trkpt lat="45.83211" lon="4.72732">
        <ele>276.82632</ele>
        <time>2022-09-24T14:47:42.000Z</time>
      </trkpt>
      <trkpt lat="45.83209" lon="4.7273">
        <ele>276.82657</ele>
        <time>2022-09-24T14:47:43.000Z</time>
      </trkpt>
      <trkpt lat="45.83207" lon="4.72728">
        <ele>276.87457</ele>
        <time>2022-09-24T14:47:44.000Z</time>
      </trkpt>
      <trkpt lat="45.83205" lon="4.72726">
        <ele>277.02075</ele>
        <time>2022-09-24T14:47:45.000Z</time>
      </trkpt>
      <trkpt lat="45.83204" lon="4.72723">
        <ele>277.05136</ele>
        <time>2022-09-24T14:47:46.000Z</time>
      </trkpt>
      <trkpt lat="45.83203" lon="4.72719">
        <ele>277.10834</ele>
        <time>2022-09-24T14:47:47.000Z</time>
      </trkpt>
      <trkpt lat="45.83204" lon="4.72714">
        <ele>277.31039</ele>
        <time>2022-09-24T14:47:48.000Z</time>
      </trkpt>
      <trkpt lat="45.83205" lon="4.72709">
        <ele>277.38535</ele>
        <time>2022-09-24T14:47:49.000Z</time>
      </trkpt>
      <trkpt lat="45.83206" lon="4.72705">
        <ele>277.5112</ele>
        <time>2022-09-24T14:47:50.000Z</time>
      </trkpt>
      <trkpt lat="45.83206" lon="4.727">
        <ele>277.69031</ele>
        <time>2022-09-24T14:47:51.000Z</time>
      </trkpt>
      <trkpt lat="45.83206" lon="4.72696">
        <ele>277.80954</ele>
        <time>2022-09-24T14:47:52.000Z</time>
      </trkpt>
      <trkpt lat="45.83207" lon="4.72691">
        <ele>277.92786</ele>
        <time>2022-09-24T14:47:53.000Z</time>
      </trkpt>
      <trkpt lat="45.83207" lon="4.72687">
        <ele>278.16632</ele>
        <time>2022-09-24T14:47:54.000Z</time>
      </trkpt>
      <trkpt lat="45.83208" lon="4.72683">
        <ele>278.33081</ele>
        <time>2022-09-24T14:47:55.000Z</time>
      </trkpt>
      <trkpt lat="45.83209" lon="4.72678">
        <ele>278.49057</ele>
        <time>2022-09-24T14:47:56.000Z</time>
      </trkpt>
      <trkpt lat="45.8321" lon="4.72674">
        <ele>278.63605</ele>
        <time>2022-09-24T14:47:57.000Z</time>
      </trkpt>
      <trkpt lat="45.8321" lon="4.7267">
        <ele>278.7464</ele>
        <time>2022-09-24T14:47:58.000Z</time>
      </trkpt>
      <trkpt lat="45.8321" lon="4.72666">
        <ele>278.95572</ele>
        <time>2022-09-24T14:47:59.000Z</time>
      </trkpt>
      <trkpt lat="45.83211" lon="4.72661">
        <ele>279.12506</ele>
        <time>2022-09-24T14:48:01.000Z</time>
      </trkpt>
      <trkpt lat="45.83213" lon="4.72657">
        <ele>279.25226</ele>
        <time>2022-09-24T14:48:03.000Z</time>
      </trkpt>
      <trkpt lat="45.83214" lon="4.72654">
        <ele>279.38824</ele>
        <time>2022-09-24T14:48:04.000Z</time>
      </trkpt>
      <trkpt lat="45.83215" lon="4.72651">
        <ele>279.51508</ele>
        <time>2022-09-24T14:48:05.000Z</time>
      </trkpt>
      <trkpt lat="45.83215" lon="4.72647">
        <ele>279.60339</ele>
        <time>2022-09-24T14:48:06.000Z</time>
      </trkpt>
      <trkpt lat="45.83215" lon="4.72644">
        <ele>279.71011</ele>
        <time>2022-09-24T14:48:07.000Z</time>
      </trkpt>
      <trkpt lat="45.83216" lon="4.72639">
        <ele>279.85336</ele>
        <time>2022-09-24T14:48:08.000Z</time>
      </trkpt>
      <trkpt lat="45.83216" lon="4.72635">
        <ele>280.03003</ele>
        <time>2022-09-24T14:48:09.000Z</time>
      </trkpt>
      <trkpt lat="45.83216" lon="4.7263">
        <ele>280.12592</ele>
        <time>2022-09-24T14:48:10.000Z</time>
      </trkpt>
      <trkpt lat="45.83217" lon="4.72624">
        <ele>280.4642</ele>
        <time>2022-09-24T14:48:11.000Z</time>
      </trkpt>
      <trkpt lat="45.83217" lon="4.72618">
        <ele>280.7207</ele>
        <time>2022-09-24T14:48:12.000Z</time>
      </trkpt>
      <trkpt lat="45.83218" lon="4.72612">
        <ele>280.91156</ele>
        <time>2022-09-24T14:48:13.000Z</time>
      </trkpt>
      <trkpt lat="45.83219" lon="4.72606">
        <ele>280.99091</ele>
        <time>2022-09-24T14:48:14.000Z</time>
      </trkpt>
      <trkpt lat="45.83219" lon="4.726">
        <ele>281.12625</ele>
        <time>2022-09-24T14:48:15.000Z</time>
      </trkpt>
      <trkpt lat="45.83221" lon="4.72592">
        <ele>280.97635</ele>
        <time>2022-09-24T14:48:16.000Z</time>
      </trkpt>
      <trkpt lat="45.83222" lon="4.72585">
        <ele>280.88196</ele>
        <time>2022-09-24T14:48:17.000Z</time>
      </trkpt>
      <trkpt lat="45.83223" lon="4.72578">
        <ele>280.80756</ele>
        <time>2022-09-24T14:48:18.000Z</time>
      </trkpt>
      <trkpt lat="45.83224" lon="4.7257">
        <ele>280.69382</ele>
        <time>2022-09-24T14:48:19.000Z</time>
      </trkpt>
      <trkpt lat="45.83225" lon="4.72564">
        <ele>280.54678</ele>
        <time>2022-09-24T14:48:20.000Z</time>
      </trkpt>
      <trkpt lat="45.83224" lon="4.72557">
        <ele>280.20157</ele>
        <time>2022-09-24T14:48:21.000Z</time>
      </trkpt>
      <trkpt lat="45.83227" lon="4.72548">
        <ele>279.83871</ele>
        <time>2022-09-24T14:48:22.000Z</time>
      </trkpt>
      <trkpt lat="45.83229" lon="4.72541">
        <ele>279.43591</ele>
        <time>2022-09-24T14:48:23.000Z</time>
      </trkpt>
      <trkpt lat="45.8323" lon="4.72531">
        <ele>279.02127</ele>
        <time>2022-09-24T14:48:24.000Z</time>
      </trkpt>
      <trkpt lat="45.83233" lon="4.72521">
        <ele>278.61139</ele>
        <time>2022-09-24T14:48:25.000Z</time>
      </trkpt>
      <trkpt lat="45.83234" lon="4.72512">
        <ele>278.16541</ele>
        <time>2022-09-24T14:48:26.000Z</time>
      </trkpt>
      <trkpt lat="45.83235" lon="4.72501">
        <ele>277.72882</ele>
        <time>2022-09-24T14:48:27.000Z</time>
      </trkpt>
      <trkpt lat="45.83237" lon="4.7249">
        <ele>277.31995</ele>
        <time>2022-09-24T14:48:28.000Z</time>
      </trkpt>
      <trkpt lat="45.83237" lon="4.72481">
        <ele>276.92682</ele>
        <time>2022-09-24T14:48:29.000Z</time>
      </trkpt>
      <trkpt lat="45.83236" lon="4.72473">
        <ele>276.53049</ele>
        <time>2022-09-24T14:48:30.000Z</time>
      </trkpt>
      <trkpt lat="45.83236" lon="4.72466">
        <ele>275.95297</ele>
        <time>2022-09-24T14:48:31.000Z</time>
      </trkpt>
      <trkpt lat="45.83235" lon="4.72458">
        <ele>275.35641</ele>
        <time>2022-09-24T14:48:32.000Z</time>
      </trkpt>
      <trkpt lat="45.83235" lon="4.72449">
        <ele>274.77792</ele>
        <time>2022-09-24T14:48:33.000Z</time>
      </trkpt>
      <trkpt lat="45.83234" lon="4.72441">
        <ele>274.59308</ele>
        <time>2022-09-24T14:48:34.000Z</time>
      </trkpt>
      <trkpt lat="45.83229" lon="4.72396">
        <ele>274.37515</ele>
        <time>2022-09-24T14:48:40.000Z</time>
      </trkpt>
      <trkpt lat="45.83227" lon="4.72389">
        <ele>274.27023</ele>
        <time>2022-09-24T14:48:41.000Z</time>
      </trkpt>
      <trkpt lat="45.83226" lon="4.72381">
        <ele>274.17343</ele>
        <time>2022-09-24T14:48:42.000Z</time>
      </trkpt>
      <trkpt lat="45.83225" lon="4.72372">
        <ele>274.0412</ele>
        <time>2022-09-24T14:48:43.000Z</time>
      </trkpt>
      <trkpt lat="45.83224" lon="4.72364">
        <ele>273.98364</ele>
        <time>2022-09-24T14:48:44.000Z</time>
      </trkpt>
      <trkpt lat="45.83223" lon="4.72355">
        <ele>274.05771</ele>
        <time>2022-09-24T14:48:45.000Z</time>
      </trkpt>
      <trkpt lat="45.83222" lon="4.72347">
        <ele>274.26309</ele>
        <time>2022-09-24T14:48:46.000Z</time>
      </trkpt>
      <trkpt lat="45.83219" lon="4.72338">
        <ele>274.59778</ele>
        <time>2022-09-24T14:48:47.000Z</time>
      </trkpt>
      <trkpt lat="45.83217" lon="4.72331">
        <ele>275.06244</ele>
        <time>2022-09-24T14:48:48.000Z</time>
      </trkpt>
      <trkpt lat="45.83216" lon="4.72325">
        <ele>275.57419</ele>
        <time>2022-09-24T14:48:49.000Z</time>
      </trkpt>
      <trkpt lat="45.83216" lon="4.7232">
        <ele>276.04788</ele>
        <time>2022-09-24T14:48:50.000Z</time>
      </trkpt>
      <trkpt lat="45.83216" lon="4.72314">
        <ele>276.58707</ele>
        <time>2022-09-24T14:48:51.000Z</time>
      </trkpt>
      <trkpt lat="45.83217" lon="4.72311">
        <ele>277.1611</ele>
        <time>2022-09-24T14:48:52.000Z</time>
      </trkpt>
      <trkpt lat="45.83219" lon="4.72307">
        <ele>277.73923</ele>
        <time>2022-09-24T14:48:53.000Z</time>
      </trkpt>
      <trkpt lat="45.83223" lon="4.72304">
        <ele>278.42398</ele>
        <time>2022-09-24T14:48:54.000Z</time>
      </trkpt>
      <trkpt lat="45.83226" lon="4.72302">
        <ele>279.04303</ele>
        <time>2022-09-24T14:48:55.000Z</time>
      </trkpt>
      <trkpt lat="45.83229" lon="4.72301">
        <ele>279.65631</ele>
        <time>2022-09-24T14:48:56.000Z</time>
      </trkpt>
      <trkpt lat="45.83232" lon="4.72297">
        <ele>280.24991</ele>
        <time>2022-09-24T14:48:57.000Z</time>
      </trkpt>
      <trkpt lat="45.83235" lon="4.72295">
        <ele>280.81808</ele>
        <time>2022-09-24T14:48:58.000Z</time>
      </trkpt>
      <trkpt lat="45.83238" lon="4.72294">
        <ele>281.08844</ele>
        <time>2022-09-24T14:48:59.000Z</time>
      </trkpt>
      <trkpt lat="45.83242" lon="4.72292">
        <ele>281.35739</ele>
        <time>2022-09-24T14:49:00.000Z</time>
      </trkpt>
      <trkpt lat="45.83245" lon="4.7229">
        <ele>281.65439</ele>
        <time>2022-09-24T14:49:01.000Z</time>
      </trkpt>
      <trkpt lat="45.83248" lon="4.72287">
        <ele>281.94907</ele>
        <time>2022-09-24T14:49:02.000Z</time>
      </trkpt>
      <trkpt lat="45.83252" lon="4.72284">
        <ele>282.14755</ele>
        <time>2022-09-24T14:49:03.000Z</time>
      </trkpt>
      <trkpt lat="45.83255" lon="4.72281">
        <ele>282.3382</ele>
        <time>2022-09-24T14:49:04.000Z</time>
      </trkpt>
      <trkpt lat="45.83259" lon="4.72278">
        <ele>282.46262</ele>
        <time>2022-09-24T14:49:05.000Z</time>
      </trkpt>
      <trkpt lat="45.83263" lon="4.72275">
        <ele>282.59348</ele>
        <time>2022-09-24T14:49:06.000Z</time>
      </trkpt>
      <trkpt lat="45.83267" lon="4.72272">
        <ele>282.66205</ele>
        <time>2022-09-24T14:49:07.000Z</time>
      </trkpt>
      <trkpt lat="45.83271" lon="4.72268">
        <ele>282.69757</ele>
        <time>2022-09-24T14:49:08.000Z</time>
      </trkpt>
      <trkpt lat="45.83275" lon="4.72265">
        <ele>282.66437</ele>
        <time>2022-09-24T14:49:09.000Z</time>
      </trkpt>
      <trkpt lat="45.8328" lon="4.7226">
        <ele>282.6972</ele>
        <time>2022-09-24T14:49:10.000Z</time>
      </trkpt>
      <trkpt lat="45.83283" lon="4.72256">
        <ele>282.71173</ele>
        <time>2022-09-24T14:49:11.000Z</time>
      </trkpt>
      <trkpt lat="45.83288" lon="4.72253">
        <ele>282.63293</ele>
        <time>2022-09-24T14:49:12.000Z</time>
      </trkpt>
      <trkpt lat="45.83292" lon="4.72248">
        <ele>282.59283</ele>
        <time>2022-09-24T14:49:13.000Z</time>
      </trkpt>
      <trkpt lat="45.83296" lon="4.72245">
        <ele>282.40747</ele>
        <time>2022-09-24T14:49:14.000Z</time>
      </trkpt>
      <trkpt lat="45.83301" lon="4.72243">
        <ele>282.21411</ele>
        <time>2022-09-24T14:49:15.000Z</time>
      </trkpt>
      <trkpt lat="45.83306" lon="4.72237">
        <ele>281.97067</ele>
        <time>2022-09-24T14:49:16.000Z</time>
      </trkpt>
      <trkpt lat="45.8331" lon="4.72232">
        <ele>281.75934</ele>
        <time>2022-09-24T14:49:17.000Z</time>
      </trkpt>
      <trkpt lat="45.83314" lon="4.72229">
        <ele>281.53659</ele>
        <time>2022-09-24T14:49:18.000Z</time>
      </trkpt>
      <trkpt lat="45.83319" lon="4.72225">
        <ele>281.30554</ele>
        <time>2022-09-24T14:49:19.000Z</time>
      </trkpt>
      <trkpt lat="45.83324" lon="4.72219">
        <ele>281.08722</ele>
        <time>2022-09-24T14:49:20.000Z</time>
      </trkpt>
      <trkpt lat="45.83328" lon="4.72214">
        <ele>280.85156</ele>
        <time>2022-09-24T14:49:21.000Z</time>
      </trkpt>
      <trkpt lat="45.83333" lon="4.72208">
        <ele>280.60614</ele>
        <time>2022-09-24T14:49:22.000Z</time>
      </trkpt>
      <trkpt lat="45.83338" lon="4.72202">
        <ele>280.40262</ele>
        <time>2022-09-24T14:49:23.000Z</time>
      </trkpt>
      <trkpt lat="45.83343" lon="4.72198">
        <ele>280.22858</ele>
        <time>2022-09-24T14:49:24.000Z</time>
      </trkpt>
      <trkpt lat="45.83348" lon="4.72193">
        <ele>280.10727</ele>
        <time>2022-09-24T14:49:25.000Z</time>
      </trkpt>
      <trkpt lat="45.83353" lon="4.72189">
        <ele>279.97205</ele>
        <time>2022-09-24T14:49:26.000Z</time>
      </trkpt>
      <trkpt lat="45.83359" lon="4.72186">
        <ele>279.77911</ele>
        <time>2022-09-24T14:49:27.000Z</time>
      </trkpt>
      <trkpt lat="45.83364" lon="4.72183">
        <ele>279.59335</ele>
        <time>2022-09-24T14:49:28.000Z</time>
      </trkpt>
      <trkpt lat="45.8337" lon="4.72179">
        <ele>279.39923</ele>
        <time>2022-09-24T14:49:29.000Z</time>
      </trkpt>
      <trkpt lat="45.83376" lon="4.72175">
        <ele>279.1665</ele>
        <time>2022-09-24T14:49:30.000Z</time>
      </trkpt>
      <trkpt lat="45.83381" lon="4.72172">
        <ele>278.91061</ele>
        <time>2022-09-24T14:49:31.000Z</time>
      </trkpt>
      <trkpt lat="45.83387" lon="4.72168">
        <ele>278.67279</ele>
        <time>2022-09-24T14:49:32.000Z</time>
      </trkpt>
      <trkpt lat="45.83392" lon="4.72164">
        <ele>278.40512</ele>
        <time>2022-09-24T14:49:33.000Z</time>
      </trkpt>
      <trkpt lat="45.83397" lon="4.72159">
        <ele>278.11249</ele>
        <time>2022-09-24T14:49:34.000Z</time>
      </trkpt>
      <trkpt lat="45.83403" lon="4.72155">
        <ele>277.84113</ele>
        <time>2022-09-24T14:49:35.000Z</time>
      </trkpt>
      <trkpt lat="45.83408" lon="4.72149">
        <ele>277.62726</ele>
        <time>2022-09-24T14:49:36.000Z</time>
      </trkpt>
      <trkpt lat="45.83414" lon="4.72142">
        <ele>277.30573</ele>
        <time>2022-09-24T14:49:37.000Z</time>
      </trkpt>
      <trkpt lat="45.83417" lon="4.72135">
        <ele>277.06805</ele>
        <time>2022-09-24T14:49:38.000Z</time>
      </trkpt>
      <trkpt lat="45.83418" lon="4.72127">
        <ele>276.8938</ele>
        <time>2022-09-24T14:49:39.000Z</time>
      </trkpt>
      <trkpt lat="45.83422" lon="4.72119">
        <ele>276.65106</ele>
        <time>2022-09-24T14:49:40.000Z</time>
      </trkpt>
      <trkpt lat="45.83424" lon="4.7211">
        <ele>276.46402</ele>
        <time>2022-09-24T14:49:41.000Z</time>
      </trkpt>
      <trkpt lat="45.83426" lon="4.72101">
        <ele>276.2923</ele>
        <time>2022-09-24T14:49:42.000Z</time>
      </trkpt>
      <trkpt lat="45.83429" lon="4.72093">
        <ele>276.16327</ele>
        <time>2022-09-24T14:49:43.000Z</time>
      </trkpt>
      <trkpt lat="45.8343" lon="4.72087">
        <ele>276.02975</ele>
        <time>2022-09-24T14:49:44.000Z</time>
      </trkpt>
      <trkpt lat="45.83433" lon="4.72081">
        <ele>275.88788</ele>
        <time>2022-09-24T14:49:45.000Z</time>
      </trkpt>
      <trkpt lat="45.83434" lon="4.72075">
        <ele>275.79361</ele>
        <time>2022-09-24T14:49:46.000Z</time>
      </trkpt>
      <trkpt lat="45.83435" lon="4.7207">
        <ele>275.6734</ele>
        <time>2022-09-24T14:49:47.000Z</time>
      </trkpt>
      <trkpt lat="45.83438" lon="4.72066">
        <ele>275.53015</ele>
        <time>2022-09-24T14:49:48.000Z</time>
      </trkpt>
      <trkpt lat="45.8344" lon="4.72062">
        <ele>275.44785</ele>
        <time>2022-09-24T14:49:49.000Z</time>
      </trkpt>
      <trkpt lat="45.83443" lon="4.7206">
        <ele>275.21133</ele>
        <time>2022-09-24T14:49:51.000Z</time>
      </trkpt>
      <trkpt lat="45.83446" lon="4.7206">
        <ele>275.0293</ele>
        <time>2022-09-24T14:49:52.000Z</time>
      </trkpt>
      <trkpt lat="45.83448" lon="4.7206">
        <ele>274.85339</ele>
        <time>2022-09-24T14:49:53.000Z</time>
      </trkpt>
      <trkpt lat="45.83451" lon="4.7206">
        <ele>274.71857</ele>
        <time>2022-09-24T14:49:54.000Z</time>
      </trkpt>
      <trkpt lat="45.83453" lon="4.72062">
        <ele>274.56171</ele>
        <time>2022-09-24T14:49:55.000Z</time>
      </trkpt>
      <trkpt lat="45.83457" lon="4.72064">
        <ele>274.42838</ele>
        <time>2022-09-24T14:49:56.000Z</time>
      </trkpt>
      <trkpt lat="45.8346" lon="4.72066">
        <ele>274.3331</ele>
        <time>2022-09-24T14:49:57.000Z</time>
      </trkpt>
      <trkpt lat="45.83464" lon="4.72067">
        <ele>274.35678</ele>
        <time>2022-09-24T14:49:58.000Z</time>
      </trkpt>
      <trkpt lat="45.83468" lon="4.72068">
        <ele>274.25287</ele>
        <time>2022-09-24T14:49:59.000Z</time>
      </trkpt>
      <trkpt lat="45.83472" lon="4.72069">
        <ele>274.12592</ele>
        <time>2022-09-24T14:50:00.000Z</time>
      </trkpt>
      <trkpt lat="45.83477" lon="4.72069">
        <ele>273.95392</ele>
        <time>2022-09-24T14:50:01.000Z</time>
      </trkpt>
      <trkpt lat="45.83481" lon="4.7207">
        <ele>273.71075</ele>
        <time>2022-09-24T14:50:02.000Z</time>
      </trkpt>
      <trkpt lat="45.83486" lon="4.72071">
        <ele>273.44241</ele>
        <time>2022-09-24T14:50:03.000Z</time>
      </trkpt>
      <trkpt lat="45.83492" lon="4.72071">
        <ele>273.11188</ele>
        <time>2022-09-24T14:50:04.000Z</time>
      </trkpt>
      <trkpt lat="45.83497" lon="4.7207">
        <ele>272.77588</ele>
        <time>2022-09-24T14:50:05.000Z</time>
      </trkpt>
      <trkpt lat="45.83502" lon="4.72069">
        <ele>272.37054</ele>
        <time>2022-09-24T14:50:06.000Z</time>
      </trkpt>
      <trkpt lat="45.83507" lon="4.72069">
        <ele>271.92795</ele>
        <time>2022-09-24T14:50:07.000Z</time>
      </trkpt>
      <trkpt lat="45.83512" lon="4.72069">
        <ele>271.55304</ele>
        <time>2022-09-24T14:50:08.000Z</time>
      </trkpt>
      <trkpt lat="45.83517" lon="4.72068">
        <ele>271.21521</ele>
        <time>2022-09-24T14:50:09.000Z</time>
      </trkpt>
      <trkpt lat="45.83521" lon="4.72069">
        <ele>270.77521</ele>
        <time>2022-09-24T14:50:10.000Z</time>
      </trkpt>
      <trkpt lat="45.83526" lon="4.72068">
        <ele>270.5148</ele>
        <time>2022-09-24T14:50:11.000Z</time>
      </trkpt>
      <trkpt lat="45.83531" lon="4.72066">
        <ele>270.25702</ele>
        <time>2022-09-24T14:50:12.000Z</time>
      </trkpt>
      <trkpt lat="45.83537" lon="4.72065">
        <ele>269.99353</ele>
        <time>2022-09-24T14:50:13.000Z</time>
      </trkpt>
      <trkpt lat="45.83543" lon="4.72063">
        <ele>269.6524</ele>
        <time>2022-09-24T14:50:14.000Z</time>
      </trkpt>
      <trkpt lat="45.83549" lon="4.72062">
        <ele>269.31152</ele>
        <time>2022-09-24T14:50:15.000Z</time>
      </trkpt>
      <trkpt lat="45.83554" lon="4.72061">
        <ele>268.92328</ele>
        <time>2022-09-24T14:50:16.000Z</time>
      </trkpt>
      <trkpt lat="45.83559" lon="4.7206">
        <ele>268.52277</ele>
        <time>2022-09-24T14:50:17.000Z</time>
      </trkpt>
      <trkpt lat="45.83565" lon="4.72058">
        <ele>268.14853</ele>
        <time>2022-09-24T14:50:18.000Z</time>
      </trkpt>
      <trkpt lat="45.83571" lon="4.72058">
        <ele>267.87537</ele>
        <time>2022-09-24T14:50:19.000Z</time>
      </trkpt>
      <trkpt lat="45.83578" lon="4.72057">
        <ele>267.56116</ele>
        <time>2022-09-24T14:50:20.000Z</time>
      </trkpt>
      <trkpt lat="45.83583" lon="4.72056">
        <ele>267.39246</ele>
        <time>2022-09-24T14:50:21.000Z</time>
      </trkpt>
      <trkpt lat="45.83589" lon="4.72054">
        <ele>267.23264</ele>
        <time>2022-09-24T14:50:22.000Z</time>
      </trkpt>
      <trkpt lat="45.83594" lon="4.72055">
        <ele>266.99945</ele>
        <time>2022-09-24T14:50:23.000Z</time>
      </trkpt>
      <trkpt lat="45.836" lon="4.72055">
        <ele>266.86993</ele>
        <time>2022-09-24T14:50:24.000Z</time>
      </trkpt>
      <trkpt lat="45.83606" lon="4.72054">
        <ele>266.62796</ele>
        <time>2022-09-24T14:50:25.000Z</time>
      </trkpt>
      <trkpt lat="45.83611" lon="4.72053">
        <ele>266.43118</ele>
        <time>2022-09-24T14:50:26.000Z</time>
      </trkpt>
      <trkpt lat="45.83617" lon="4.72052">
        <ele>266.25571</ele>
        <time>2022-09-24T14:50:27.000Z</time>
      </trkpt>
      <trkpt lat="45.83624" lon="4.72054">
        <ele>265.95966</ele>
        <time>2022-09-24T14:50:28.000Z</time>
      </trkpt>
      <trkpt lat="45.8363" lon="4.72053">
        <ele>265.60153</ele>
        <time>2022-09-24T14:50:29.000Z</time>
      </trkpt>
      <trkpt lat="45.83635" lon="4.72052">
        <ele>265.32446</ele>
        <time>2022-09-24T14:50:30.000Z</time>
      </trkpt>
      <trkpt lat="45.8364" lon="4.7205">
        <ele>265.01794</ele>
        <time>2022-09-24T14:50:31.000Z</time>
      </trkpt>
      <trkpt lat="45.83643" lon="4.7205">
        <ele>264.66718</ele>
        <time>2022-09-24T14:50:32.000Z</time>
      </trkpt>
      <trkpt lat="45.83647" lon="4.72048">
        <ele>264.32144</ele>
        <time>2022-09-24T14:50:33.000Z</time>
      </trkpt>
      <trkpt lat="45.83651" lon="4.72046">
        <ele>264.05939</ele>
        <time>2022-09-24T14:50:34.000Z</time>
      </trkpt>
      <trkpt lat="45.83653" lon="4.7204">
        <ele>263.80267</ele>
        <time>2022-09-24T14:50:35.000Z</time>
      </trkpt>
      <trkpt lat="45.83655" lon="4.72035">
        <ele>263.61542</ele>
        <time>2022-09-24T14:50:36.000Z</time>
      </trkpt>
      <trkpt lat="45.83656" lon="4.7203">
        <ele>263.40009</ele>
        <time>2022-09-24T14:50:37.000Z</time>
      </trkpt>
      <trkpt lat="45.83657" lon="4.72025">
        <ele>263.11664</ele>
        <time>2022-09-24T14:50:38.000Z</time>
      </trkpt>
      <trkpt lat="45.83658" lon="4.7202">
        <ele>262.83072</ele>
        <time>2022-09-24T14:50:39.000Z</time>
      </trkpt>
      <trkpt lat="45.83658" lon="4.72014">
        <ele>262.58737</ele>
        <time>2022-09-24T14:50:40.000Z</time>
      </trkpt>
      <trkpt lat="45.83659" lon="4.7201">
        <ele>262.29669</ele>
        <time>2022-09-24T14:50:41.000Z</time>
      </trkpt>
      <trkpt lat="45.83658" lon="4.72005">
        <ele>262.00977</ele>
        <time>2022-09-24T14:50:42.000Z</time>
      </trkpt>
      <trkpt lat="45.83658" lon="4.72">
        <ele>261.85858</ele>
        <time>2022-09-24T14:50:43.000Z</time>
      </trkpt>
      <trkpt lat="45.83658" lon="4.71996">
        <ele>261.69574</ele>
        <time>2022-09-24T14:50:44.000Z</time>
      </trkpt>
      <trkpt lat="45.83658" lon="4.71991">
        <ele>261.6333</ele>
        <time>2022-09-24T14:50:45.000Z</time>
      </trkpt>
      <trkpt lat="45.83658" lon="4.71986">
        <ele>261.59555</ele>
        <time>2022-09-24T14:50:46.000Z</time>
      </trkpt>
      <trkpt lat="45.83658" lon="4.71981">
        <ele>261.56131</ele>
        <time>2022-09-24T14:50:47.000Z</time>
      </trkpt>
      <trkpt lat="45.83657" lon="4.71975">
        <ele>261.69443</ele>
        <time>2022-09-24T14:50:48.000Z</time>
      </trkpt>
      <trkpt lat="45.83657" lon="4.7197">
        <ele>261.80316</ele>
        <time>2022-09-24T14:50:49.000Z</time>
      </trkpt>
      <trkpt lat="45.83657" lon="4.71965">
        <ele>261.93719</ele>
        <time>2022-09-24T14:50:50.000Z</time>
      </trkpt>
      <trkpt lat="45.83656" lon="4.7196">
        <ele>262.09332</ele>
        <time>2022-09-24T14:50:51.000Z</time>
      </trkpt>
      <trkpt lat="45.83655" lon="4.71954">
        <ele>262.4209</ele>
        <time>2022-09-24T14:50:52.000Z</time>
      </trkpt>
      <trkpt lat="45.83655" lon="4.71948">
        <ele>262.73065</ele>
        <time>2022-09-24T14:50:53.000Z</time>
      </trkpt>
      <trkpt lat="45.83656" lon="4.71943">
        <ele>263.02744</ele>
        <time>2022-09-24T14:50:54.000Z</time>
      </trkpt>
      <trkpt lat="45.83655" lon="4.71937">
        <ele>263.31204</ele>
        <time>2022-09-24T14:50:55.000Z</time>
      </trkpt>
      <trkpt lat="45.83655" lon="4.71932">
        <ele>263.62375</ele>
        <time>2022-09-24T14:50:56.000Z</time>
      </trkpt>
      <trkpt lat="45.83655" lon="4.71928">
        <ele>263.94696</ele>
        <time>2022-09-24T14:50:57.000Z</time>
      </trkpt>
      <trkpt lat="45.83656" lon="4.71923">
        <ele>264.32019</ele>
        <time>2022-09-24T14:50:58.000Z</time>
      </trkpt>
      <trkpt lat="45.83656" lon="4.71919">
        <ele>264.62064</ele>
        <time>2022-09-24T14:50:59.000Z</time>
      </trkpt>
      <trkpt lat="45.83656" lon="4.71914">
        <ele>264.94562</ele>
        <time>2022-09-24T14:51:00.000Z</time>
      </trkpt>
      <trkpt lat="45.83656" lon="4.7191">
        <ele>265.30902</ele>
        <time>2022-09-24T14:51:01.000Z</time>
      </trkpt>
      <trkpt lat="45.83656" lon="4.71905">
        <ele>265.68738</ele>
        <time>2022-09-24T14:51:02.000Z</time>
      </trkpt>
      <trkpt lat="45.83656" lon="4.719">
        <ele>266.06094</ele>
        <time>2022-09-24T14:51:03.000Z</time>
      </trkpt>
      <trkpt lat="45.83656" lon="4.71895">
        <ele>266.42038</ele>
        <time>2022-09-24T14:51:04.000Z</time>
      </trkpt>
      <trkpt lat="45.83656" lon="4.71891">
        <ele>266.89835</ele>
        <time>2022-09-24T14:51:05.000Z</time>
      </trkpt>
      <trkpt lat="45.83656" lon="4.71886">
        <ele>267.336</ele>
        <time>2022-09-24T14:51:06.000Z</time>
      </trkpt>
      <trkpt lat="45.83656" lon="4.71882">
        <ele>267.798</ele>
        <time>2022-09-24T14:51:07.000Z</time>
      </trkpt>
      <trkpt lat="45.83656" lon="4.71878">
        <ele>268.18768</ele>
        <time>2022-09-24T14:51:08.000Z</time>
      </trkpt>
      <trkpt lat="45.83655" lon="4.71875">
        <ele>268.62299</ele>
        <time>2022-09-24T14:51:09.000Z</time>
      </trkpt>
      <trkpt lat="45.83653" lon="4.71871">
        <ele>269.04074</ele>
        <time>2022-09-24T14:51:10.000Z</time>
      </trkpt>
      <trkpt lat="45.83651" lon="4.71868">
        <ele>269.25055</ele>
        <time>2022-09-24T14:51:11.000Z</time>
      </trkpt>
      <trkpt lat="45.83649" lon="4.71865">
        <ele>269.28638</ele>
        <time>2022-09-24T14:51:12.000Z</time>
      </trkpt>
      <trkpt lat="45.83646" lon="4.71862">
        <ele>269.34604</ele>
        <time>2022-09-24T14:51:13.000Z</time>
      </trkpt>
      <trkpt lat="45.83642" lon="4.71859">
        <ele>269.41107</ele>
        <time>2022-09-24T14:51:14.000Z</time>
      </trkpt>
      <trkpt lat="45.83639" lon="4.71856">
        <ele>269.49493</ele>
        <time>2022-09-24T14:51:15.000Z</time>
      </trkpt>
      <trkpt lat="45.83636" lon="4.71853">
        <ele>269.52582</ele>
        <time>2022-09-24T14:51:16.000Z</time>
      </trkpt>
      <trkpt lat="45.83633" lon="4.71851">
        <ele>269.52948</ele>
        <time>2022-09-24T14:51:17.000Z</time>
      </trkpt>
      <trkpt lat="45.83631" lon="4.71848">
        <ele>269.53299</ele>
        <time>2022-09-24T14:51:18.000Z</time>
      </trkpt>
      <trkpt lat="45.83628" lon="4.71845">
        <ele>269.54523</ele>
        <time>2022-09-24T14:51:19.000Z</time>
      </trkpt>
      <trkpt lat="45.83626" lon="4.7184">
        <ele>269.5108</ele>
        <time>2022-09-24T14:51:20.000Z</time>
      </trkpt>
      <trkpt lat="45.83624" lon="4.71834">
        <ele>269.48386</ele>
        <time>2022-09-24T14:51:21.000Z</time>
      </trkpt>
      <trkpt lat="45.83621" lon="4.71829">
        <ele>269.46259</ele>
        <time>2022-09-24T14:51:22.000Z</time>
      </trkpt>
      <trkpt lat="45.83619" lon="4.71824">
        <ele>269.39435</ele>
        <time>2022-09-24T14:51:23.000Z</time>
      </trkpt>
      <trkpt lat="45.83617" lon="4.71818">
        <ele>269.3035</ele>
        <time>2022-09-24T14:51:24.000Z</time>
      </trkpt>
      <trkpt lat="45.83615" lon="4.71813">
        <ele>269.07709</ele>
        <time>2022-09-24T14:51:25.000Z</time>
      </trkpt>
      <trkpt lat="45.83613" lon="4.71809">
        <ele>268.85223</ele>
        <time>2022-09-24T14:51:26.000Z</time>
      </trkpt>
      <trkpt lat="45.83612" lon="4.71806">
        <ele>268.5448</ele>
        <time>2022-09-24T14:51:27.000Z</time>
      </trkpt>
      <trkpt lat="45.8361" lon="4.71803">
        <ele>268.30652</ele>
        <time>2022-09-24T14:51:29.000Z</time>
      </trkpt>
      <trkpt lat="45.83608" lon="4.71801">
        <ele>268.12286</ele>
        <time>2022-09-24T14:51:35.000Z</time>
      </trkpt>
      <trkpt lat="45.83606" lon="4.71797">
        <ele>267.90228</ele>
        <time>2022-09-24T14:51:37.000Z</time>
      </trkpt>
      <trkpt lat="45.83603" lon="4.71795">
        <ele>267.84784</ele>
        <time>2022-09-24T14:51:38.000Z</time>
      </trkpt>
      <trkpt lat="45.83601" lon="4.71792">
        <ele>267.86444</ele>
        <time>2022-09-24T14:51:39.000Z</time>
      </trkpt>
      <trkpt lat="45.83599" lon="4.71789">
        <ele>267.77011</ele>
        <time>2022-09-24T14:51:40.000Z</time>
      </trkpt>
      <trkpt lat="45.83596" lon="4.71785">
        <ele>267.6207</ele>
        <time>2022-09-24T14:51:41.000Z</time>
      </trkpt>
      <trkpt lat="45.83593" lon="4.71781">
        <ele>267.48566</ele>
        <time>2022-09-24T14:51:42.000Z</time>
      </trkpt>
      <trkpt lat="45.8359" lon="4.71777">
        <ele>267.39685</ele>
        <time>2022-09-24T14:51:43.000Z</time>
      </trkpt>
      <trkpt lat="45.83587" lon="4.71772">
        <ele>267.27493</ele>
        <time>2022-09-24T14:51:44.000Z</time>
      </trkpt>
      <trkpt lat="45.83584" lon="4.71767">
        <ele>267.07559</ele>
        <time>2022-09-24T14:51:45.000Z</time>
      </trkpt>
      <trkpt lat="45.83582" lon="4.71763">
        <ele>266.90353</ele>
        <time>2022-09-24T14:51:46.000Z</time>
      </trkpt>
      <trkpt lat="45.83579" lon="4.71759">
        <ele>266.76669</ele>
        <time>2022-09-24T14:51:47.000Z</time>
      </trkpt>
      <trkpt lat="45.83577" lon="4.71754">
        <ele>266.60834</ele>
        <time>2022-09-24T14:51:48.000Z</time>
      </trkpt>
      <trkpt lat="45.83574" lon="4.7175">
        <ele>266.52628</ele>
        <time>2022-09-24T14:51:49.000Z</time>
      </trkpt>
      <trkpt lat="45.83571" lon="4.71746">
        <ele>266.53082</ele>
        <time>2022-09-24T14:51:50.000Z</time>
      </trkpt>
      <trkpt lat="45.83568" lon="4.71741">
        <ele>266.46893</ele>
        <time>2022-09-24T14:51:51.000Z</time>
      </trkpt>
      <trkpt lat="45.83565" lon="4.71738">
        <ele>266.3721</ele>
        <time>2022-09-24T14:51:52.000Z</time>
      </trkpt>
      <trkpt lat="45.83561" lon="4.71736">
        <ele>266.23923</ele>
        <time>2022-09-24T14:51:53.000Z</time>
      </trkpt>
      <trkpt lat="45.83553" lon="4.71735">
        <ele>266.13739</ele>
        <time>2022-09-24T14:51:54.000Z</time>
      </trkpt>
      <trkpt lat="45.8355" lon="4.71733">
        <ele>265.98187</ele>
        <time>2022-09-24T14:51:55.000Z</time>
      </trkpt>
      <trkpt lat="45.83544" lon="4.71731">
        <ele>265.77304</ele>
        <time>2022-09-24T14:51:56.000Z</time>
      </trkpt>
      <trkpt lat="45.83539" lon="4.7173">
        <ele>265.59775</ele>
        <time>2022-09-24T14:51:57.000Z</time>
      </trkpt>
      <trkpt lat="45.83535" lon="4.71733">
        <ele>265.28024</ele>
        <time>2022-09-24T14:51:58.000Z</time>
      </trkpt>
      <trkpt lat="45.8353" lon="4.71733">
        <ele>264.93304</ele>
        <time>2022-09-24T14:51:59.000Z</time>
      </trkpt>
      <trkpt lat="45.83524" lon="4.71733">
        <ele>264.72333</ele>
        <time>2022-09-24T14:52:00.000Z</time>
      </trkpt>
      <trkpt lat="45.83521" lon="4.71733">
        <ele>264.5582</ele>
        <time>2022-09-24T14:52:01.000Z</time>
      </trkpt>
      <trkpt lat="45.83518" lon="4.71735">
        <ele>264.32816</ele>
        <time>2022-09-24T14:52:02.000Z</time>
      </trkpt>
      <trkpt lat="45.83515" lon="4.71734">
        <ele>264.04523</ele>
        <time>2022-09-24T14:52:03.000Z</time>
      </trkpt>
      <trkpt lat="45.83512" lon="4.71734">
        <ele>263.77081</ele>
        <time>2022-09-24T14:52:04.000Z</time>
      </trkpt>
      <trkpt lat="45.8351" lon="4.71734">
        <ele>263.59418</ele>
        <time>2022-09-24T14:52:05.000Z</time>
      </trkpt>
      <trkpt lat="45.83507" lon="4.71734">
        <ele>263.4071</ele>
        <time>2022-09-24T14:52:06.000Z</time>
      </trkpt>
      <trkpt lat="45.83503" lon="4.71735">
        <ele>263.20615</ele>
        <time>2022-09-24T14:52:07.000Z</time>
      </trkpt>
      <trkpt lat="45.835" lon="4.71735">
        <ele>263.01141</ele>
        <time>2022-09-24T14:52:08.000Z</time>
      </trkpt>
      <trkpt lat="45.83497" lon="4.71735">
        <ele>262.66058</ele>
        <time>2022-09-24T14:52:09.000Z</time>
      </trkpt>
      <trkpt lat="45.83494" lon="4.71736">
        <ele>262.25775</ele>
        <time>2022-09-24T14:52:10.000Z</time>
      </trkpt>
      <trkpt lat="45.83491" lon="4.71735">
        <ele>261.93158</ele>
        <time>2022-09-24T14:52:11.000Z</time>
      </trkpt>
      <trkpt lat="45.83488" lon="4.71735">
        <ele>261.67017</ele>
        <time>2022-09-24T14:52:12.000Z</time>
      </trkpt>
      <trkpt lat="45.83486" lon="4.71736">
        <ele>261.46313</ele>
        <time>2022-09-24T14:52:13.000Z</time>
      </trkpt>
      <trkpt lat="45.83483" lon="4.71735">
        <ele>261.2446</ele>
        <time>2022-09-24T14:52:15.000Z</time>
      </trkpt>
      <trkpt lat="45.8348" lon="4.71736">
        <ele>261.06729</ele>
        <time>2022-09-24T14:52:17.000Z</time>
      </trkpt>
      <trkpt lat="45.83478" lon="4.71737">
        <ele>260.77942</ele>
        <time>2022-09-24T14:52:18.000Z</time>
      </trkpt>
      <trkpt lat="45.83475" lon="4.7174">
        <ele>260.30762</ele>
        <time>2022-09-24T14:52:20.000Z</time>
      </trkpt>
      <trkpt lat="45.83473" lon="4.71741">
        <ele>260.0145</ele>
        <time>2022-09-24T14:52:21.000Z</time>
      </trkpt>
      <trkpt lat="45.83472" lon="4.71744">
        <ele>259.72763</ele>
        <time>2022-09-24T14:52:23.000Z</time>
      </trkpt>
      <trkpt lat="45.8347" lon="4.71743">
        <ele>259.64328</ele>
        <time>2022-09-24T14:52:35.000Z</time>
      </trkpt>
      <trkpt lat="45.83468" lon="4.71744">
        <ele>259.47443</ele>
        <time>2022-09-24T14:52:36.000Z</time>
      </trkpt>
      <trkpt lat="45.83465" lon="4.71745">
        <ele>259.27924</ele>
        <time>2022-09-24T14:52:38.000Z</time>
      </trkpt>
      <trkpt lat="45.83463" lon="4.71745">
        <ele>259.11124</ele>
        <time>2022-09-24T14:52:40.000Z</time>
      </trkpt>
      <trkpt lat="45.83461" lon="4.71745">
        <ele>258.97314</ele>
        <time>2022-09-24T14:52:48.000Z</time>
      </trkpt>
      <trkpt lat="45.83459" lon="4.71745">
        <ele>258.76263</ele>
        <time>2022-09-24T14:52:53.000Z</time>
      </trkpt>
      <trkpt lat="45.83456" lon="4.71746">
        <ele>258.57535</ele>
        <time>2022-09-24T14:52:54.000Z</time>
      </trkpt>
      <trkpt lat="45.83454" lon="4.71747">
        <ele>258.38</ele>
        <time>2022-09-24T14:52:55.000Z</time>
      </trkpt>
      <trkpt lat="45.83451" lon="4.71748">
        <ele>258.27155</ele>
        <time>2022-09-24T14:52:56.000Z</time>
      </trkpt>
      <trkpt lat="45.83449" lon="4.71749">
        <ele>258.17126</ele>
        <time>2022-09-24T14:52:57.000Z</time>
      </trkpt>
      <trkpt lat="45.83447" lon="4.71749">
        <ele>258.0809</ele>
        <time>2022-09-24T14:52:58.000Z</time>
      </trkpt>
      <trkpt lat="45.83444" lon="4.71749">
        <ele>257.98749</ele>
        <time>2022-09-24T14:52:59.000Z</time>
      </trkpt>
      <trkpt lat="45.83442" lon="4.71749">
        <ele>257.81476</ele>
        <time>2022-09-24T14:53:00.000Z</time>
      </trkpt>
      <trkpt lat="45.8344" lon="4.71749">
        <ele>257.70401</ele>
        <time>2022-09-24T14:53:01.000Z</time>
      </trkpt>
      <trkpt lat="45.83439" lon="4.71747">
        <ele>257.60663</ele>
        <time>2022-09-24T14:53:02.000Z</time>
      </trkpt>
      <trkpt lat="45.83438" lon="4.71744">
        <ele>257.46722</ele>
        <time>2022-09-24T14:53:03.000Z</time>
      </trkpt>
      <trkpt lat="45.83437" lon="4.7174">
        <ele>257.40091</ele>
        <time>2022-09-24T14:53:04.000Z</time>
      </trkpt>
      <trkpt lat="45.83436" lon="4.71736">
        <ele>257.5238</ele>
        <time>2022-09-24T14:53:05.000Z</time>
      </trkpt>
      <trkpt lat="45.83435" lon="4.71732">
        <ele>257.62216</ele>
        <time>2022-09-24T14:53:06.000Z</time>
      </trkpt>
      <trkpt lat="45.83434" lon="4.71727">
        <ele>257.70038</ele>
        <time>2022-09-24T14:53:07.000Z</time>
      </trkpt>
      <trkpt lat="45.83433" lon="4.71722">
        <ele>257.60645</ele>
        <time>2022-09-24T14:53:08.000Z</time>
      </trkpt>
      <trkpt lat="45.83432" lon="4.71717">
        <ele>257.57782</ele>
        <time>2022-09-24T14:53:09.000Z</time>
      </trkpt>
      <trkpt lat="45.8343" lon="4.71712">
        <ele>257.61975</ele>
        <time>2022-09-24T14:53:10.000Z</time>
      </trkpt>
      <trkpt lat="45.83428" lon="4.71707">
        <ele>257.6235</ele>
        <time>2022-09-24T14:53:11.000Z</time>
      </trkpt>
      <trkpt lat="45.83427" lon="4.71703">
        <ele>257.6936</ele>
        <time>2022-09-24T14:53:12.000Z</time>
      </trkpt>
      <trkpt lat="45.83425" lon="4.71699">
        <ele>257.80081</ele>
        <time>2022-09-24T14:53:13.000Z</time>
      </trkpt>
      <trkpt lat="45.83424" lon="4.71695">
        <ele>257.91812</ele>
        <time>2022-09-24T14:53:14.000Z</time>
      </trkpt>
      <trkpt lat="45.83423" lon="4.71691">
        <ele>257.89307</ele>
        <time>2022-09-24T14:53:15.000Z</time>
      </trkpt>
      <trkpt lat="45.83422" lon="4.71688">
        <ele>257.82806</ele>
        <time>2022-09-24T14:53:16.000Z</time>
      </trkpt>
      <trkpt lat="45.83421" lon="4.71684">
        <ele>257.89709</ele>
        <time>2022-09-24T14:53:17.000Z</time>
      </trkpt>
      <trkpt lat="45.8342" lon="4.7168">
        <ele>257.99094</ele>
        <time>2022-09-24T14:53:18.000Z</time>
      </trkpt>
      <trkpt lat="45.83419" lon="4.71676">
        <ele>258.17316</ele>
        <time>2022-09-24T14:53:19.000Z</time>
      </trkpt>
      <trkpt lat="45.83418" lon="4.71671">
        <ele>258.43503</ele>
        <time>2022-09-24T14:53:20.000Z</time>
      </trkpt>
      <trkpt lat="45.83417" lon="4.71667">
        <ele>258.68112</ele>
        <time>2022-09-24T14:53:21.000Z</time>
      </trkpt>
      <trkpt lat="45.83416" lon="4.71662">
        <ele>258.91888</ele>
        <time>2022-09-24T14:53:22.000Z</time>
      </trkpt>
      <trkpt lat="45.83415" lon="4.71658">
        <ele>259.19522</ele>
        <time>2022-09-24T14:53:23.000Z</time>
      </trkpt>
      <trkpt lat="45.83413" lon="4.71653">
        <ele>259.49133</ele>
        <time>2022-09-24T14:53:24.000Z</time>
      </trkpt>
      <trkpt lat="45.83412" lon="4.71649">
        <ele>259.86588</ele>
        <time>2022-09-24T14:53:25.000Z</time>
      </trkpt>
      <trkpt lat="45.83411" lon="4.71644">
        <ele>260.25247</ele>
        <time>2022-09-24T14:53:26.000Z</time>
      </trkpt>
      <trkpt lat="45.8341" lon="4.7164">
        <ele>260.65381</ele>
        <time>2022-09-24T14:53:27.000Z</time>
      </trkpt>
      <trkpt lat="45.83409" lon="4.71635">
        <ele>261.03052</ele>
        <time>2022-09-24T14:53:28.000Z</time>
      </trkpt>
      <trkpt lat="45.83408" lon="4.7163">
        <ele>261.38882</ele>
        <time>2022-09-24T14:53:29.000Z</time>
      </trkpt>
      <trkpt lat="45.83407" lon="4.71625">
        <ele>261.78696</ele>
        <time>2022-09-24T14:53:30.000Z</time>
      </trkpt>
      <trkpt lat="45.83406" lon="4.7162">
        <ele>262.21783</ele>
        <time>2022-09-24T14:53:31.000Z</time>
      </trkpt>
      <trkpt lat="45.83406" lon="4.71615">
        <ele>262.64468</ele>
        <time>2022-09-24T14:53:32.000Z</time>
      </trkpt>
      <trkpt lat="45.83406" lon="4.71609">
        <ele>263.04156</ele>
        <time>2022-09-24T14:53:33.000Z</time>
      </trkpt>
      <trkpt lat="45.83405" lon="4.71604">
        <ele>263.4317</ele>
        <time>2022-09-24T14:53:34.000Z</time>
      </trkpt>
      <trkpt lat="45.83404" lon="4.71599">
        <ele>263.99976</ele>
        <time>2022-09-24T14:53:35.000Z</time>
      </trkpt>
      <trkpt lat="45.83403" lon="4.71594">
        <ele>264.83722</ele>
        <time>2022-09-24T14:53:36.000Z</time>
      </trkpt>
      <trkpt lat="45.83402" lon="4.7159">
        <ele>265.48969</ele>
        <time>2022-09-24T14:53:37.000Z</time>
      </trkpt>
      <trkpt lat="45.834" lon="4.71586">
        <ele>266.09909</ele>
        <time>2022-09-24T14:53:38.000Z</time>
      </trkpt>
      <trkpt lat="45.83397" lon="4.71583">
        <ele>266.6532</ele>
        <time>2022-09-24T14:53:39.000Z</time>
      </trkpt>
      <trkpt lat="45.83394" lon="4.7158">
        <ele>267.15533</ele>
        <time>2022-09-24T14:53:40.000Z</time>
      </trkpt>
      <trkpt lat="45.83391" lon="4.71579">
        <ele>267.64352</ele>
        <time>2022-09-24T14:53:41.000Z</time>
      </trkpt>
      <trkpt lat="45.83387" lon="4.71579">
        <ele>268.1615</ele>
        <time>2022-09-24T14:53:42.000Z</time>
      </trkpt>
      <trkpt lat="45.83384" lon="4.71581">
        <ele>268.61526</ele>
        <time>2022-09-24T14:53:43.000Z</time>
      </trkpt>
      <trkpt lat="45.8338" lon="4.71584">
        <ele>269.05399</ele>
        <time>2022-09-24T14:53:44.000Z</time>
      </trkpt>
      <trkpt lat="45.83378" lon="4.71587">
        <ele>269.45966</ele>
        <time>2022-09-24T14:53:45.000Z</time>
      </trkpt>
      <trkpt lat="45.83375" lon="4.71591">
        <ele>269.90579</ele>
        <time>2022-09-24T14:53:46.000Z</time>
      </trkpt>
      <trkpt lat="45.83374" lon="4.71596">
        <ele>270.36353</ele>
        <time>2022-09-24T14:53:47.000Z</time>
      </trkpt>
      <trkpt lat="45.83372" lon="4.71601">
        <ele>270.83493</ele>
        <time>2022-09-24T14:53:48.000Z</time>
      </trkpt>
      <trkpt lat="45.8337" lon="4.71606">
        <ele>271.31534</ele>
        <time>2022-09-24T14:53:49.000Z</time>
      </trkpt>
      <trkpt lat="45.83369" lon="4.7161">
        <ele>271.76971</ele>
        <time>2022-09-24T14:53:50.000Z</time>
      </trkpt>
      <trkpt lat="45.83368" lon="4.71614">
        <ele>272.24963</ele>
        <time>2022-09-24T14:53:51.000Z</time>
      </trkpt>
      <trkpt lat="45.83366" lon="4.71618">
        <ele>272.67825</ele>
        <time>2022-09-24T14:53:52.000Z</time>
      </trkpt>
      <trkpt lat="45.83364" lon="4.7162">
        <ele>273.14417</ele>
        <time>2022-09-24T14:53:53.000Z</time>
      </trkpt>
      <trkpt lat="45.83362" lon="4.71621">
        <ele>273.56604</ele>
        <time>2022-09-24T14:53:54.000Z</time>
      </trkpt>
      <trkpt lat="45.8336" lon="4.71619">
        <ele>273.96338</ele>
        <time>2022-09-24T14:53:55.000Z</time>
      </trkpt>
      <trkpt lat="45.83359" lon="4.71614">
        <ele>274.08493</ele>
        <time>2022-09-24T14:53:56.000Z</time>
      </trkpt>
      <trkpt lat="45.83359" lon="4.71608">
        <ele>274.29459</ele>
        <time>2022-09-24T14:53:57.000Z</time>
      </trkpt>
      <trkpt lat="45.83362" lon="4.71602">
        <ele>274.43161</ele>
        <time>2022-09-24T14:53:58.000Z</time>
      </trkpt>
      <trkpt lat="45.83364" lon="4.71596">
        <ele>274.57428</ele>
        <time>2022-09-24T14:53:59.000Z</time>
      </trkpt>
      <trkpt lat="45.83366" lon="4.71591">
        <ele>274.77411</ele>
        <time>2022-09-24T14:54:00.000Z</time>
      </trkpt>
      <trkpt lat="45.83368" lon="4.71585">
        <ele>274.905</ele>
        <time>2022-09-24T14:54:01.000Z</time>
      </trkpt>
      <trkpt lat="45.8337" lon="4.7158">
        <ele>274.9761</ele>
        <time>2022-09-24T14:54:02.000Z</time>
      </trkpt>
      <trkpt lat="45.83372" lon="4.71574">
        <ele>275.06525</ele>
        <time>2022-09-24T14:54:03.000Z</time>
      </trkpt>
      <trkpt lat="45.83375" lon="4.71569">
        <ele>275.17987</ele>
        <time>2022-09-24T14:54:04.000Z</time>
      </trkpt>
      <trkpt lat="45.83379" lon="4.71563">
        <ele>275.23923</ele>
        <time>2022-09-24T14:54:05.000Z</time>
      </trkpt>
      <trkpt lat="45.83383" lon="4.71558">
        <ele>275.27423</ele>
        <time>2022-09-24T14:54:06.000Z</time>
      </trkpt>
      <trkpt lat="45.83387" lon="4.71555">
        <ele>275.28308</ele>
        <time>2022-09-24T14:54:07.000Z</time>
      </trkpt>
      <trkpt lat="45.83391" lon="4.71553">
        <ele>275.20068</ele>
        <time>2022-09-24T14:54:08.000Z</time>
      </trkpt>
      <trkpt lat="45.83395" lon="4.71553">
        <ele>275.17914</ele>
        <time>2022-09-24T14:54:09.000Z</time>
      </trkpt>
      <trkpt lat="45.834" lon="4.71554">
        <ele>275.14307</ele>
        <time>2022-09-24T14:54:10.000Z</time>
      </trkpt>
      <trkpt lat="45.83405" lon="4.71557">
        <ele>275.11639</ele>
        <time>2022-09-24T14:54:11.000Z</time>
      </trkpt>
      <trkpt lat="45.83408" lon="4.71559">
        <ele>275.15924</ele>
        <time>2022-09-24T14:54:12.000Z</time>
      </trkpt>
      <trkpt lat="45.83413" lon="4.71563">
        <ele>275.21848</ele>
        <time>2022-09-24T14:54:13.000Z</time>
      </trkpt>
      <trkpt lat="45.83416" lon="4.71568">
        <ele>275.43335</ele>
        <time>2022-09-24T14:54:14.000Z</time>
      </trkpt>
      <trkpt lat="45.83418" lon="4.71571">
        <ele>275.61664</ele>
        <time>2022-09-24T14:54:15.000Z</time>
      </trkpt>
      <trkpt lat="45.83421" lon="4.71579">
        <ele>275.87701</ele>
        <time>2022-09-24T14:54:16.000Z</time>
      </trkpt>
      <trkpt lat="45.83425" lon="4.71583">
        <ele>276.22394</ele>
        <time>2022-09-24T14:54:17.000Z</time>
      </trkpt>
      <trkpt lat="45.83428" lon="4.71588">
        <ele>276.64886</ele>
        <time>2022-09-24T14:54:18.000Z</time>
      </trkpt>
      <trkpt lat="45.83431" lon="4.71591">
        <ele>277.04575</ele>
        <time>2022-09-24T14:54:19.000Z</time>
      </trkpt>
      <trkpt lat="45.83435" lon="4.71595">
        <ele>277.47522</ele>
        <time>2022-09-24T14:54:20.000Z</time>
      </trkpt>
      <trkpt lat="45.83438" lon="4.71599">
        <ele>277.91953</ele>
        <time>2022-09-24T14:54:21.000Z</time>
      </trkpt>
      <trkpt lat="45.83443" lon="4.716">
        <ele>278.383</ele>
        <time>2022-09-24T14:54:22.000Z</time>
      </trkpt>
      <trkpt lat="45.83447" lon="4.71604">
        <ele>278.97272</ele>
        <time>2022-09-24T14:54:23.000Z</time>
      </trkpt>
      <trkpt lat="45.83451" lon="4.71605">
        <ele>279.57172</ele>
        <time>2022-09-24T14:54:24.000Z</time>
      </trkpt>
      <trkpt lat="45.83454" lon="4.71605">
        <ele>280.15851</ele>
        <time>2022-09-24T14:54:25.000Z</time>
      </trkpt>
      <trkpt lat="45.83459" lon="4.71604">
        <ele>280.72913</ele>
        <time>2022-09-24T14:54:26.000Z</time>
      </trkpt>
      <trkpt lat="45.83464" lon="4.71603">
        <ele>281.23938</ele>
        <time>2022-09-24T14:54:27.000Z</time>
      </trkpt>
      <trkpt lat="45.83469" lon="4.71603">
        <ele>281.80865</ele>
        <time>2022-09-24T14:54:28.000Z</time>
      </trkpt>
      <trkpt lat="45.83473" lon="4.71601">
        <ele>282.31326</ele>
        <time>2022-09-24T14:54:29.000Z</time>
      </trkpt>
      <trkpt lat="45.83478" lon="4.71599">
        <ele>282.79752</ele>
        <time>2022-09-24T14:54:30.000Z</time>
      </trkpt>
      <trkpt lat="45.83482" lon="4.71596">
        <ele>283.23233</ele>
        <time>2022-09-24T14:54:31.000Z</time>
      </trkpt>
      <trkpt lat="45.83487" lon="4.71593">
        <ele>283.59808</ele>
        <time>2022-09-24T14:54:32.000Z</time>
      </trkpt>
      <trkpt lat="45.83491" lon="4.7159">
        <ele>283.98486</ele>
        <time>2022-09-24T14:54:33.000Z</time>
      </trkpt>
      <trkpt lat="45.83496" lon="4.71587">
        <ele>284.22052</ele>
        <time>2022-09-24T14:54:34.000Z</time>
      </trkpt>
      <trkpt lat="45.835" lon="4.71584">
        <ele>284.46115</ele>
        <time>2022-09-24T14:54:35.000Z</time>
      </trkpt>
      <trkpt lat="45.83503" lon="4.71581">
        <ele>284.54416</ele>
        <time>2022-09-24T14:54:36.000Z</time>
      </trkpt>
      <trkpt lat="45.83507" lon="4.71578">
        <ele>284.97574</ele>
        <time>2022-09-24T14:54:37.000Z</time>
      </trkpt>
      <trkpt lat="45.83512" lon="4.71576">
        <ele>285.2908</ele>
        <time>2022-09-24T14:54:38.000Z</time>
      </trkpt>
      <trkpt lat="45.83516" lon="4.71573">
        <ele>285.52728</ele>
        <time>2022-09-24T14:54:39.000Z</time>
      </trkpt>
      <trkpt lat="45.83521" lon="4.71571">
        <ele>285.63037</ele>
        <time>2022-09-24T14:54:40.000Z</time>
      </trkpt>
      <trkpt lat="45.83525" lon="4.71567">
        <ele>285.71014</ele>
        <time>2022-09-24T14:54:41.000Z</time>
      </trkpt>
      <trkpt lat="45.83528" lon="4.71563">
        <ele>285.78604</ele>
        <time>2022-09-24T14:54:42.000Z</time>
      </trkpt>
      <trkpt lat="45.83532" lon="4.7156">
        <ele>285.73227</ele>
        <time>2022-09-24T14:54:43.000Z</time>
      </trkpt>
      <trkpt lat="45.83536" lon="4.71557">
        <ele>285.61526</ele>
        <time>2022-09-24T14:54:44.000Z</time>
      </trkpt>
      <trkpt lat="45.83539" lon="4.71555">
        <ele>285.52728</ele>
        <time>2022-09-24T14:54:45.000Z</time>
      </trkpt>
      <trkpt lat="45.83542" lon="4.71553">
        <ele>285.35315</ele>
        <time>2022-09-24T14:54:46.000Z</time>
      </trkpt>
      <trkpt lat="45.83545" lon="4.7155">
        <ele>285.14694</ele>
        <time>2022-09-24T14:54:47.000Z</time>
      </trkpt>
      <trkpt lat="45.8355" lon="4.71545">
        <ele>284.99805</ele>
        <time>2022-09-24T14:54:48.000Z</time>
      </trkpt>
      <trkpt lat="45.83553" lon="4.71542">
        <ele>284.83099</ele>
        <time>2022-09-24T14:54:49.000Z</time>
      </trkpt>
      <trkpt lat="45.83558" lon="4.71538">
        <ele>284.75568</ele>
        <time>2022-09-24T14:54:50.000Z</time>
      </trkpt>
      <trkpt lat="45.8356" lon="4.71535">
        <ele>284.65521</ele>
        <time>2022-09-24T14:54:51.000Z</time>
      </trkpt>
      <trkpt lat="45.83564" lon="4.71532">
        <ele>284.5675</ele>
        <time>2022-09-24T14:54:52.000Z</time>
      </trkpt>
      <trkpt lat="45.83567" lon="4.71529">
        <ele>284.43112</ele>
        <time>2022-09-24T14:54:53.000Z</time>
      </trkpt>
      <trkpt lat="45.83571" lon="4.71525">
        <ele>284.35635</ele>
        <time>2022-09-24T14:54:54.000Z</time>
      </trkpt>
      <trkpt lat="45.83576" lon="4.71521">
        <ele>284.2851</ele>
        <time>2022-09-24T14:54:55.000Z</time>
      </trkpt>
      <trkpt lat="45.8358" lon="4.71518">
        <ele>284.33014</ele>
        <time>2022-09-24T14:54:56.000Z</time>
      </trkpt>
      <trkpt lat="45.83584" lon="4.71514">
        <ele>284.29541</ele>
        <time>2022-09-24T14:54:57.000Z</time>
      </trkpt>
      <trkpt lat="45.83587" lon="4.71511">
        <ele>284.31882</ele>
        <time>2022-09-24T14:54:58.000Z</time>
      </trkpt>
      <trkpt lat="45.83591" lon="4.71508">
        <ele>284.37744</ele>
        <time>2022-09-24T14:54:59.000Z</time>
      </trkpt>
      <trkpt lat="45.83596" lon="4.71505">
        <ele>284.4762</ele>
        <time>2022-09-24T14:55:00.000Z</time>
      </trkpt>
      <trkpt lat="45.83599" lon="4.71503">
        <ele>284.5621</ele>
        <time>2022-09-24T14:55:01.000Z</time>
      </trkpt>
      <trkpt lat="45.83601" lon="4.71499">
        <ele>284.59406</ele>
        <time>2022-09-24T14:55:02.000Z</time>
      </trkpt>
      <trkpt lat="45.83606" lon="4.71495">
        <ele>284.51035</ele>
        <time>2022-09-24T14:55:03.000Z</time>
      </trkpt>
      <trkpt lat="45.83609" lon="4.71493">
        <ele>284.47168</ele>
        <time>2022-09-24T14:55:04.000Z</time>
      </trkpt>
      <trkpt lat="45.83611" lon="4.7149">
        <ele>284.41278</ele>
        <time>2022-09-24T14:55:05.000Z</time>
      </trkpt>
      <trkpt lat="45.83614" lon="4.71488">
        <ele>284.45868</ele>
        <time>2022-09-24T14:55:06.000Z</time>
      </trkpt>
      <trkpt lat="45.83616" lon="4.71485">
        <ele>284.61478</ele>
        <time>2022-09-24T14:55:07.000Z</time>
      </trkpt>
      <trkpt lat="45.83619" lon="4.71482">
        <ele>284.70181</ele>
        <time>2022-09-24T14:55:08.000Z</time>
      </trkpt>
      <trkpt lat="45.83622" lon="4.7148">
        <ele>284.83945</ele>
        <time>2022-09-24T14:55:09.000Z</time>
      </trkpt>
      <trkpt lat="45.83625" lon="4.71476">
        <ele>284.90314</ele>
        <time>2022-09-24T14:55:10.000Z</time>
      </trkpt>
      <trkpt lat="45.83627" lon="4.71472">
        <ele>285.05524</ele>
        <time>2022-09-24T14:55:11.000Z</time>
      </trkpt>
      <trkpt lat="45.83629" lon="4.71467">
        <ele>285.22772</ele>
        <time>2022-09-24T14:55:12.000Z</time>
      </trkpt>
      <trkpt lat="45.8363" lon="4.71462">
        <ele>285.42694</ele>
        <time>2022-09-24T14:55:13.000Z</time>
      </trkpt>
      <trkpt lat="45.83632" lon="4.71458">
        <ele>285.54745</ele>
        <time>2022-09-24T14:55:14.000Z</time>
      </trkpt>
      <trkpt lat="45.83633" lon="4.71454">
        <ele>285.68692</ele>
        <time>2022-09-24T14:55:15.000Z</time>
      </trkpt>
      <trkpt lat="45.83636" lon="4.7145">
        <ele>285.73743</ele>
        <time>2022-09-24T14:55:16.000Z</time>
      </trkpt>
      <trkpt lat="45.83638" lon="4.71445">
        <ele>285.60834</ele>
        <time>2022-09-24T14:55:17.000Z</time>
      </trkpt>
      <trkpt lat="45.8364" lon="4.7144">
        <ele>285.49249</ele>
        <time>2022-09-24T14:55:18.000Z</time>
      </trkpt>
      <trkpt lat="45.83642" lon="4.71437">
        <ele>285.42755</ele>
        <time>2022-09-24T14:55:19.000Z</time>
      </trkpt>
      <trkpt lat="45.83645" lon="4.71435">
        <ele>285.35138</ele>
        <time>2022-09-24T14:55:20.000Z</time>
      </trkpt>
      <trkpt lat="45.83647" lon="4.71434">
        <ele>285.27097</ele>
        <time>2022-09-24T14:55:21.000Z</time>
      </trkpt>
      <trkpt lat="45.8365" lon="4.71432">
        <ele>285.26804</ele>
        <time>2022-09-24T14:55:22.000Z</time>
      </trkpt>
      <trkpt lat="45.8365" lon="4.71428">
        <ele>285.37128</ele>
        <time>2022-09-24T14:55:23.000Z</time>
      </trkpt>
      <trkpt lat="45.83649" lon="4.71423">
        <ele>285.46689</ele>
        <time>2022-09-24T14:55:24.000Z</time>
      </trkpt>
      <trkpt lat="45.83646" lon="4.7142">
        <ele>285.55609</ele>
        <time>2022-09-24T14:55:25.000Z</time>
      </trkpt>
      <trkpt lat="45.83643" lon="4.71419">
        <ele>285.58426</ele>
        <time>2022-09-24T14:55:26.000Z</time>
      </trkpt>
      <trkpt lat="45.8364" lon="4.71418">
        <ele>285.5759</ele>
        <time>2022-09-24T14:55:27.000Z</time>
      </trkpt>
      <trkpt lat="45.83637" lon="4.71416">
        <ele>285.59039</ele>
        <time>2022-09-24T14:55:28.000Z</time>
      </trkpt>
      <trkpt lat="45.83636" lon="4.71413">
        <ele>285.48236</ele>
        <time>2022-09-24T14:55:29.000Z</time>
      </trkpt>
      <trkpt lat="45.83636" lon="4.71408">
        <ele>285.33722</ele>
        <time>2022-09-24T14:55:30.000Z</time>
      </trkpt>
      <trkpt lat="45.83641" lon="4.71403">
        <ele>285.14005</ele>
        <time>2022-09-24T14:55:31.000Z</time>
      </trkpt>
      <trkpt lat="45.83643" lon="4.71395">
        <ele>284.97754</ele>
        <time>2022-09-24T14:55:32.000Z</time>
      </trkpt>
      <trkpt lat="45.83646" lon="4.71389">
        <ele>284.84503</ele>
        <time>2022-09-24T14:55:33.000Z</time>
      </trkpt>
      <trkpt lat="45.83648" lon="4.71382">
        <ele>284.76089</ele>
        <time>2022-09-24T14:55:34.000Z</time>
      </trkpt>
      <trkpt lat="45.8365" lon="4.71376">
        <ele>284.66183</ele>
        <time>2022-09-24T14:55:35.000Z</time>
      </trkpt>
      <trkpt lat="45.83653" lon="4.7137">
        <ele>284.57135</ele>
        <time>2022-09-24T14:55:36.000Z</time>
      </trkpt>
      <trkpt lat="45.83652" lon="4.71363">
        <ele>284.38693</ele>
        <time>2022-09-24T14:55:37.000Z</time>
      </trkpt>
      <trkpt lat="45.83653" lon="4.7136">
        <ele>284.1951</ele>
        <time>2022-09-24T14:55:38.000Z</time>
      </trkpt>
      <trkpt lat="45.83653" lon="4.71354">
        <ele>283.98242</ele>
        <time>2022-09-24T14:55:39.000Z</time>
      </trkpt>
      <trkpt lat="45.83654" lon="4.71348">
        <ele>283.89981</ele>
        <time>2022-09-24T14:55:40.000Z</time>
      </trkpt>
      <trkpt lat="45.83657" lon="4.71342">
        <ele>283.86423</ele>
        <time>2022-09-24T14:55:41.000Z</time>
      </trkpt>
      <trkpt lat="45.83659" lon="4.71336">
        <ele>283.79166</ele>
        <time>2022-09-24T14:55:42.000Z</time>
      </trkpt>
      <trkpt lat="45.83658" lon="4.7133">
        <ele>283.71121</ele>
        <time>2022-09-24T14:55:43.000Z</time>
      </trkpt>
      <trkpt lat="45.83658" lon="4.71323">
        <ele>283.56976</ele>
        <time>2022-09-24T14:55:44.000Z</time>
      </trkpt>
      <trkpt lat="45.83659" lon="4.71317">
        <ele>283.42822</ele>
        <time>2022-09-24T14:55:45.000Z</time>
      </trkpt>
      <trkpt lat="45.8366" lon="4.7131">
        <ele>283.29279</ele>
        <time>2022-09-24T14:55:46.000Z</time>
      </trkpt>
      <trkpt lat="45.83661" lon="4.71304">
        <ele>283.16653</ele>
        <time>2022-09-24T14:55:47.000Z</time>
      </trkpt>
      <trkpt lat="45.83661" lon="4.71298">
        <ele>283.02499</ele>
        <time>2022-09-24T14:55:48.000Z</time>
      </trkpt>
      <trkpt lat="45.83662" lon="4.7129">
        <ele>283.00531</ele>
        <time>2022-09-24T14:55:49.000Z</time>
      </trkpt>
      <trkpt lat="45.83664" lon="4.71284">
        <ele>283.03986</ele>
        <time>2022-09-24T14:55:50.000Z</time>
      </trkpt>
      <trkpt lat="45.83666" lon="4.71277">
        <ele>283.06497</ele>
        <time>2022-09-24T14:55:51.000Z</time>
      </trkpt>
      <trkpt lat="45.83667" lon="4.7127">
        <ele>283.16837</ele>
        <time>2022-09-24T14:55:52.000Z</time>
      </trkpt>
      <trkpt lat="45.8367" lon="4.71264">
        <ele>283.29828</ele>
        <time>2022-09-24T14:55:53.000Z</time>
      </trkpt>
      <trkpt lat="45.83671" lon="4.71258">
        <ele>283.43359</ele>
        <time>2022-09-24T14:55:54.000Z</time>
      </trkpt>
      <trkpt lat="45.83673" lon="4.71253">
        <ele>283.55414</ele>
        <time>2022-09-24T14:55:55.000Z</time>
      </trkpt>
      <trkpt lat="45.83672" lon="4.71247">
        <ele>283.65353</ele>
        <time>2022-09-24T14:55:56.000Z</time>
      </trkpt>
      <trkpt lat="45.83673" lon="4.71244">
        <ele>284.00211</ele>
        <time>2022-09-24T14:55:57.000Z</time>
      </trkpt>
      <trkpt lat="45.83674" lon="4.71238">
        <ele>284.35104</ele>
        <time>2022-09-24T14:55:58.000Z</time>
      </trkpt>
      <trkpt lat="45.83678" lon="4.71233">
        <ele>284.6571</ele>
        <time>2022-09-24T14:55:59.000Z</time>
      </trkpt>
      <trkpt lat="45.8368" lon="4.71229">
        <ele>284.81125</ele>
        <time>2022-09-24T14:56:00.000Z</time>
      </trkpt>
      <trkpt lat="45.83682" lon="4.71225">
        <ele>284.91983</ele>
        <time>2022-09-24T14:56:01.000Z</time>
      </trkpt>
      <trkpt lat="45.83683" lon="4.71222">
        <ele>284.98029</ele>
        <time>2022-09-24T14:56:02.000Z</time>
      </trkpt>
      <trkpt lat="45.83683" lon="4.71219">
        <ele>285.06412</ele>
        <time>2022-09-24T14:56:03.000Z</time>
      </trkpt>
      <trkpt lat="45.83682" lon="4.71215">
        <ele>285.26569</ele>
        <time>2022-09-24T14:56:04.000Z</time>
      </trkpt>
      <trkpt lat="45.83681" lon="4.71213">
        <ele>285.45493</ele>
        <time>2022-09-24T14:56:05.000Z</time>
      </trkpt>
      <trkpt lat="45.83679" lon="4.71211">
        <ele>285.64786</ele>
        <time>2022-09-24T14:56:06.000Z</time>
      </trkpt>
      <trkpt lat="45.83676" lon="4.7121">
        <ele>285.79965</ele>
        <time>2022-09-24T14:56:07.000Z</time>
      </trkpt>
      <trkpt lat="45.83674" lon="4.71209">
        <ele>285.97318</ele>
        <time>2022-09-24T14:56:08.000Z</time>
      </trkpt>
      <trkpt lat="45.83672" lon="4.71209">
        <ele>286.0441</ele>
        <time>2022-09-24T14:56:09.000Z</time>
      </trkpt>
      <trkpt lat="45.83669" lon="4.71209">
        <ele>286.07843</ele>
        <time>2022-09-24T14:56:11.000Z</time>
      </trkpt>
      <trkpt lat="45.83667" lon="4.71208">
        <ele>286.09796</ele>
        <time>2022-09-24T14:56:13.000Z</time>
      </trkpt>
      <trkpt lat="45.83665" lon="4.71208">
        <ele>285.98032</ele>
        <time>2022-09-24T14:56:16.000Z</time>
      </trkpt>
      <trkpt lat="45.83664" lon="4.7121">
        <ele>285.84537</ele>
        <time>2022-09-24T14:56:19.000Z</time>
      </trkpt>
      <trkpt lat="45.83662" lon="4.71211">
        <ele>285.69403</ele>
        <time>2022-09-24T14:56:32.000Z</time>
      </trkpt>
      <trkpt lat="45.8366" lon="4.7121">
        <ele>285.68518</ele>
        <time>2022-09-24T14:56:34.000Z</time>
      </trkpt>
      <trkpt lat="45.83657" lon="4.71207">
        <ele>285.6842</ele>
        <time>2022-09-24T14:56:36.000Z</time>
      </trkpt>
      <trkpt lat="45.83655" lon="4.71206">
        <ele>285.37311</ele>
        <time>2022-09-24T14:56:37.000Z</time>
      </trkpt>
      <trkpt lat="45.83653" lon="4.71206">
        <ele>285.1004</ele>
        <time>2022-09-24T14:56:38.000Z</time>
      </trkpt>
      <trkpt lat="45.83649" lon="4.71204">
        <ele>284.80875</ele>
        <time>2022-09-24T14:56:40.000Z</time>
      </trkpt>
      <trkpt lat="45.83646" lon="4.71203">
        <ele>284.5549</ele>
        <time>2022-09-24T14:56:41.000Z</time>
      </trkpt>
      <trkpt lat="45.83643" lon="4.71202">
        <ele>284.34125</ele>
        <time>2022-09-24T14:56:42.000Z</time>
      </trkpt>
      <trkpt lat="45.8364" lon="4.712">
        <ele>284.24442</ele>
        <time>2022-09-24T14:56:43.000Z</time>
      </trkpt>
      <trkpt lat="45.83637" lon="4.71197">
        <ele>284.12671</ele>
        <time>2022-09-24T14:56:44.000Z</time>
      </trkpt>
      <trkpt lat="45.83634" lon="4.71194">
        <ele>283.99756</ele>
        <time>2022-09-24T14:56:45.000Z</time>
      </trkpt>
      <trkpt lat="45.83631" lon="4.7119">
        <ele>283.92142</ele>
        <time>2022-09-24T14:56:46.000Z</time>
      </trkpt>
      <trkpt lat="45.83628" lon="4.71188">
        <ele>283.90936</ele>
        <time>2022-09-24T14:56:47.000Z</time>
      </trkpt>
      <trkpt lat="45.83625" lon="4.71185">
        <ele>283.92026</ele>
        <time>2022-09-24T14:56:48.000Z</time>
      </trkpt>
      <trkpt lat="45.83622" lon="4.71182">
        <ele>283.99643</ele>
        <time>2022-09-24T14:56:49.000Z</time>
      </trkpt>
      <trkpt lat="45.83618" lon="4.71179">
        <ele>284.23694</ele>
        <time>2022-09-24T14:56:50.000Z</time>
      </trkpt>
      <trkpt lat="45.83614" lon="4.71176">
        <ele>284.56705</ele>
        <time>2022-09-24T14:56:51.000Z</time>
      </trkpt>
      <trkpt lat="45.8361" lon="4.71173">
        <ele>284.91974</ele>
        <time>2022-09-24T14:56:52.000Z</time>
      </trkpt>
      <trkpt lat="45.83606" lon="4.7117">
        <ele>285.2565</ele>
        <time>2022-09-24T14:56:53.000Z</time>
      </trkpt>
      <trkpt lat="45.83602" lon="4.71166">
        <ele>285.59229</ele>
        <time>2022-09-24T14:56:54.000Z</time>
      </trkpt>
      <trkpt lat="45.83599" lon="4.71163">
        <ele>285.99008</ele>
        <time>2022-09-24T14:56:55.000Z</time>
      </trkpt>
      <trkpt lat="45.83595" lon="4.71161">
        <ele>286.24591</ele>
        <time>2022-09-24T14:56:56.000Z</time>
      </trkpt>
      <trkpt lat="45.83592" lon="4.71159">
        <ele>286.68823</ele>
        <time>2022-09-24T14:56:57.000Z</time>
      </trkpt>
      <trkpt lat="45.83588" lon="4.71157">
        <ele>287.10339</ele>
        <time>2022-09-24T14:56:58.000Z</time>
      </trkpt>
      <trkpt lat="45.83584" lon="4.71155">
        <ele>287.47845</ele>
        <time>2022-09-24T14:56:59.000Z</time>
      </trkpt>
      <trkpt lat="45.8358" lon="4.71152">
        <ele>287.95944</ele>
        <time>2022-09-24T14:57:00.000Z</time>
      </trkpt>
      <trkpt lat="45.83576" lon="4.7115">
        <ele>288.4975</ele>
        <time>2022-09-24T14:57:01.000Z</time>
      </trkpt>
      <trkpt lat="45.83572" lon="4.71146">
        <ele>289.04324</ele>
        <time>2022-09-24T14:57:02.000Z</time>
      </trkpt>
      <trkpt lat="45.8357" lon="4.71141">
        <ele>289.52679</ele>
        <time>2022-09-24T14:57:03.000Z</time>
      </trkpt>
      <trkpt lat="45.83569" lon="4.71135">
        <ele>289.99957</ele>
        <time>2022-09-24T14:57:04.000Z</time>
      </trkpt>
      <trkpt lat="45.83574" lon="4.71126">
        <ele>290.44351</ele>
        <time>2022-09-24T14:57:05.000Z</time>
      </trkpt>
      <trkpt lat="45.83576" lon="4.7112">
        <ele>290.85013</ele>
        <time>2022-09-24T14:57:06.000Z</time>
      </trkpt>
      <trkpt lat="45.83578" lon="4.71111">
        <ele>291.18378</ele>
        <time>2022-09-24T14:57:07.000Z</time>
      </trkpt>
      <trkpt lat="45.8358" lon="4.71102">
        <ele>291.55402</ele>
        <time>2022-09-24T14:57:08.000Z</time>
      </trkpt>
      <trkpt lat="45.83582" lon="4.71095">
        <ele>291.8399</ele>
        <time>2022-09-24T14:57:09.000Z</time>
      </trkpt>
      <trkpt lat="45.83584" lon="4.71087">
        <ele>292.02353</ele>
        <time>2022-09-24T14:57:10.000Z</time>
      </trkpt>
      <trkpt lat="45.83585" lon="4.7108">
        <ele>292.2016</ele>
        <time>2022-09-24T14:57:11.000Z</time>
      </trkpt>
      <trkpt lat="45.83587" lon="4.71073">
        <ele>292.41049</ele>
        <time>2022-09-24T14:57:12.000Z</time>
      </trkpt>
      <trkpt lat="45.83588" lon="4.71067">
        <ele>292.71423</ele>
        <time>2022-09-24T14:57:13.000Z</time>
      </trkpt>
      <trkpt lat="45.83588" lon="4.71061">
        <ele>292.96979</ele>
        <time>2022-09-24T14:57:14.000Z</time>
      </trkpt>
      <trkpt lat="45.83587" lon="4.71055">
        <ele>293.18765</ele>
        <time>2022-09-24T14:57:15.000Z</time>
      </trkpt>
      <trkpt lat="45.83584" lon="4.71049">
        <ele>293.44116</ele>
        <time>2022-09-24T14:57:16.000Z</time>
      </trkpt>
      <trkpt lat="45.83581" lon="4.71045">
        <ele>293.53796</ele>
        <time>2022-09-24T14:57:17.000Z</time>
      </trkpt>
      <trkpt lat="45.83577" lon="4.71042">
        <ele>293.64545</ele>
        <time>2022-09-24T14:57:18.000Z</time>
      </trkpt>
      <trkpt lat="45.83572" lon="4.71041">
        <ele>293.72049</ele>
        <time>2022-09-24T14:57:19.000Z</time>
      </trkpt>
      <trkpt lat="45.83569" lon="4.71038">
        <ele>293.8078</ele>
        <time>2022-09-24T14:57:20.000Z</time>
      </trkpt>
      <trkpt lat="45.83566" lon="4.71032">
        <ele>293.8609</ele>
        <time>2022-09-24T14:57:21.000Z</time>
      </trkpt>
      <trkpt lat="45.83561" lon="4.71029">
        <ele>293.87897</ele>
        <time>2022-09-24T14:57:22.000Z</time>
      </trkpt>
      <trkpt lat="45.83556" lon="4.71025">
        <ele>293.93152</ele>
        <time>2022-09-24T14:57:23.000Z</time>
      </trkpt>
      <trkpt lat="45.83551" lon="4.71023">
        <ele>294.02997</ele>
        <time>2022-09-24T14:57:24.000Z</time>
      </trkpt>
      <trkpt lat="45.83546" lon="4.71019">
        <ele>294.15637</ele>
        <time>2022-09-24T14:57:25.000Z</time>
      </trkpt>
      <trkpt lat="45.83543" lon="4.71017">
        <ele>294.28796</ele>
        <time>2022-09-24T14:57:26.000Z</time>
      </trkpt>
      <trkpt lat="45.83538" lon="4.71014">
        <ele>294.41998</ele>
        <time>2022-09-24T14:57:27.000Z</time>
      </trkpt>
      <trkpt lat="45.83534" lon="4.71011">
        <ele>294.59885</ele>
        <time>2022-09-24T14:57:28.000Z</time>
      </trkpt>
      <trkpt lat="45.83529" lon="4.71007">
        <ele>294.76651</ele>
        <time>2022-09-24T14:57:29.000Z</time>
      </trkpt>
      <trkpt lat="45.83525" lon="4.71003">
        <ele>294.93744</ele>
        <time>2022-09-24T14:57:30.000Z</time>
      </trkpt>
      <trkpt lat="45.8352" lon="4.70999">
        <ele>295.05344</ele>
        <time>2022-09-24T14:57:31.000Z</time>
      </trkpt>
      <trkpt lat="45.83515" lon="4.70997">
        <ele>295.17548</ele>
        <time>2022-09-24T14:57:32.000Z</time>
      </trkpt>
      <trkpt lat="45.8351" lon="4.70993">
        <ele>295.22842</ele>
        <time>2022-09-24T14:57:33.000Z</time>
      </trkpt>
      <trkpt lat="45.83505" lon="4.70992">
        <ele>295.20001</ele>
        <time>2022-09-24T14:57:34.000Z</time>
      </trkpt>
      <trkpt lat="45.83501" lon="4.70991">
        <ele>295.13483</ele>
        <time>2022-09-24T14:57:35.000Z</time>
      </trkpt>
      <trkpt lat="45.83495" lon="4.70992">
        <ele>295.0459</ele>
        <time>2022-09-24T14:57:36.000Z</time>
      </trkpt>
      <trkpt lat="45.8349" lon="4.70992">
        <ele>294.9444</ele>
        <time>2022-09-24T14:57:37.000Z</time>
      </trkpt>
      <trkpt lat="45.83486" lon="4.70992">
        <ele>294.867</ele>
        <time>2022-09-24T14:57:38.000Z</time>
      </trkpt>
      <trkpt lat="45.83483" lon="4.70993">
        <ele>294.90314</ele>
        <time>2022-09-24T14:57:39.000Z</time>
      </trkpt>
      <trkpt lat="45.83479" lon="4.70992">
        <ele>294.83319</ele>
        <time>2022-09-24T14:57:40.000Z</time>
      </trkpt>
      <trkpt lat="45.83474" lon="4.70992">
        <ele>294.8096</ele>
        <time>2022-09-24T14:57:41.000Z</time>
      </trkpt>
      <trkpt lat="45.83469" lon="4.70992">
        <ele>294.84039</ele>
        <time>2022-09-24T14:57:42.000Z</time>
      </trkpt>
      <trkpt lat="45.83463" lon="4.70992">
        <ele>294.91797</ele>
        <time>2022-09-24T14:57:43.000Z</time>
      </trkpt>
      <trkpt lat="45.83458" lon="4.70993">
        <ele>294.94537</ele>
        <time>2022-09-24T14:57:44.000Z</time>
      </trkpt>
      <trkpt lat="45.83453" lon="4.70993">
        <ele>294.95493</ele>
        <time>2022-09-24T14:57:45.000Z</time>
      </trkpt>
      <trkpt lat="45.83448" lon="4.70994">
        <ele>295.00375</ele>
        <time>2022-09-24T14:57:46.000Z</time>
      </trkpt>
      <trkpt lat="45.83445" lon="4.70996">
        <ele>295.04816</ele>
        <time>2022-09-24T14:57:47.000Z</time>
      </trkpt>
      <trkpt lat="45.83439" lon="4.70997">
        <ele>295.04016</ele>
        <time>2022-09-24T14:57:48.000Z</time>
      </trkpt>
      <trkpt lat="45.83433" lon="4.70995">
        <ele>295.03827</ele>
        <time>2022-09-24T14:57:49.000Z</time>
      </trkpt>
      <trkpt lat="45.83428" lon="4.70994">
        <ele>295.01166</ele>
        <time>2022-09-24T14:57:50.000Z</time>
      </trkpt>
      <trkpt lat="45.83424" lon="4.70994">
        <ele>295.06439</ele>
        <time>2022-09-24T14:57:51.000Z</time>
      </trkpt>
      <trkpt lat="45.83419" lon="4.70995">
        <ele>295.20313</ele>
        <time>2022-09-24T14:57:52.000Z</time>
      </trkpt>
      <trkpt lat="45.83414" lon="4.70994">
        <ele>295.30438</ele>
        <time>2022-09-24T14:57:53.000Z</time>
      </trkpt>
      <trkpt lat="45.83409" lon="4.70994">
        <ele>295.50375</ele>
        <time>2022-09-24T14:57:54.000Z</time>
      </trkpt>
      <trkpt lat="45.83403" lon="4.70994">
        <ele>295.72186</ele>
        <time>2022-09-24T14:57:55.000Z</time>
      </trkpt>
      <trkpt lat="45.83399" lon="4.70994">
        <ele>295.95596</ele>
        <time>2022-09-24T14:57:56.000Z</time>
      </trkpt>
      <trkpt lat="45.83394" lon="4.70997">
        <ele>296.19812</ele>
        <time>2022-09-24T14:57:57.000Z</time>
      </trkpt>
      <trkpt lat="45.83388" lon="4.70995">
        <ele>296.41083</ele>
        <time>2022-09-24T14:57:58.000Z</time>
      </trkpt>
      <trkpt lat="45.83381" lon="4.70996">
        <ele>296.47772</ele>
        <time>2022-09-24T14:57:59.000Z</time>
      </trkpt>
      <trkpt lat="45.83375" lon="4.70997">
        <ele>296.63666</ele>
        <time>2022-09-24T14:58:00.000Z</time>
      </trkpt>
      <trkpt lat="45.83371" lon="4.70999">
        <ele>296.75327</ele>
        <time>2022-09-24T14:58:01.000Z</time>
      </trkpt>
      <trkpt lat="45.83365" lon="4.70999">
        <ele>296.8725</ele>
        <time>2022-09-24T14:58:02.000Z</time>
      </trkpt>
      <trkpt lat="45.8336" lon="4.71">
        <ele>296.9444</ele>
        <time>2022-09-24T14:58:03.000Z</time>
      </trkpt>
      <trkpt lat="45.83354" lon="4.71001">
        <ele>297.03482</ele>
        <time>2022-09-24T14:58:04.000Z</time>
      </trkpt>
      <trkpt lat="45.8335" lon="4.71005">
        <ele>297.15866</ele>
        <time>2022-09-24T14:58:05.000Z</time>
      </trkpt>
      <trkpt lat="45.83346" lon="4.71005">
        <ele>297.27554</ele>
        <time>2022-09-24T14:58:06.000Z</time>
      </trkpt>
      <trkpt lat="45.83342" lon="4.71006">
        <ele>297.44815</ele>
        <time>2022-09-24T14:58:07.000Z</time>
      </trkpt>
      <trkpt lat="45.83337" lon="4.71007">
        <ele>297.61551</ele>
        <time>2022-09-24T14:58:08.000Z</time>
      </trkpt>
      <trkpt lat="45.83332" lon="4.71008">
        <ele>297.78082</ele>
        <time>2022-09-24T14:58:09.000Z</time>
      </trkpt>
      <trkpt lat="45.83328" lon="4.71006">
        <ele>297.95633</ele>
        <time>2022-09-24T14:58:10.000Z</time>
      </trkpt>
      <trkpt lat="45.83323" lon="4.71003">
        <ele>298.0202</ele>
        <time>2022-09-24T14:58:11.000Z</time>
      </trkpt>
      <trkpt lat="45.8332" lon="4.71003">
        <ele>297.97015</ele>
        <time>2022-09-24T14:58:12.000Z</time>
      </trkpt>
      <trkpt lat="45.83315" lon="4.70999">
        <ele>297.93011</ele>
        <time>2022-09-24T14:58:13.000Z</time>
      </trkpt>
      <trkpt lat="45.83311" lon="4.70996">
        <ele>297.9577</ele>
        <time>2022-09-24T14:58:14.000Z</time>
      </trkpt>
      <trkpt lat="45.83312" lon="4.70992">
        <ele>297.93207</ele>
        <time>2022-09-24T14:58:15.000Z</time>
      </trkpt>
      <trkpt lat="45.83312" lon="4.70988">
        <ele>298.01086</ele>
        <time>2022-09-24T14:58:16.000Z</time>
      </trkpt>
      <trkpt lat="45.83313" lon="4.70983">
        <ele>298.40884</ele>
        <time>2022-09-24T14:58:17.000Z</time>
      </trkpt>
      <trkpt lat="45.83315" lon="4.70977">
        <ele>298.73712</ele>
        <time>2022-09-24T14:58:18.000Z</time>
      </trkpt>
      <trkpt lat="45.83316" lon="4.70973">
        <ele>299.0813</ele>
        <time>2022-09-24T14:58:19.000Z</time>
      </trkpt>
      <trkpt lat="45.83317" lon="4.70968">
        <ele>299.31476</ele>
        <time>2022-09-24T14:58:20.000Z</time>
      </trkpt>
      <trkpt lat="45.83318" lon="4.70963">
        <ele>299.51129</ele>
        <time>2022-09-24T14:58:21.000Z</time>
      </trkpt>
      <trkpt lat="45.83319" lon="4.70958">
        <ele>299.67987</ele>
        <time>2022-09-24T14:58:22.000Z</time>
      </trkpt>
      <trkpt lat="45.8332" lon="4.70953">
        <ele>299.81445</ele>
        <time>2022-09-24T14:58:23.000Z</time>
      </trkpt>
      <trkpt lat="45.8332" lon="4.70948">
        <ele>299.95001</ele>
        <time>2022-09-24T14:58:24.000Z</time>
      </trkpt>
      <trkpt lat="45.83321" lon="4.70944">
        <ele>300.03574</ele>
        <time>2022-09-24T14:58:25.000Z</time>
      </trkpt>
      <trkpt lat="45.83322" lon="4.7094">
        <ele>300.11792</ele>
        <time>2022-09-24T14:58:26.000Z</time>
      </trkpt>
      <trkpt lat="45.83322" lon="4.70936">
        <ele>300.18848</ele>
        <time>2022-09-24T14:58:27.000Z</time>
      </trkpt>
      <trkpt lat="45.83323" lon="4.70933">
        <ele>300.26025</ele>
        <time>2022-09-24T14:58:28.000Z</time>
      </trkpt>
      <trkpt lat="45.83324" lon="4.7093">
        <ele>300.34396</ele>
        <time>2022-09-24T14:58:29.000Z</time>
      </trkpt>
      <trkpt lat="45.83325" lon="4.70926">
        <ele>300.43179</ele>
        <time>2022-09-24T14:58:30.000Z</time>
      </trkpt>
      <trkpt lat="45.83326" lon="4.70923">
        <ele>300.55621</ele>
        <time>2022-09-24T14:58:31.000Z</time>
      </trkpt>
      <trkpt lat="45.83326" lon="4.7092">
        <ele>300.66693</ele>
        <time>2022-09-24T14:58:32.000Z</time>
      </trkpt>
      <trkpt lat="45.83326" lon="4.70917">
        <ele>300.78543</ele>
        <time>2022-09-24T14:58:33.000Z</time>
      </trkpt>
      <trkpt lat="45.83325" lon="4.70914">
        <ele>300.88004</ele>
        <time>2022-09-24T14:58:34.000Z</time>
      </trkpt>
      <trkpt lat="45.83322" lon="4.70913">
        <ele>301.03381</ele>
        <time>2022-09-24T14:58:36.000Z</time>
      </trkpt>
      <trkpt lat="45.8332" lon="4.70914">
        <ele>301.0799</ele>
        <time>2022-09-24T14:58:38.000Z</time>
      </trkpt>
      <trkpt lat="45.83318" lon="4.70915">
        <ele>300.76404</ele>
        <time>2022-09-24T14:58:40.000Z</time>
      </trkpt>
      <trkpt lat="45.83316" lon="4.70916">
        <ele>300.33868</ele>
        <time>2022-09-24T14:59:10.000Z</time>
      </trkpt>
      <trkpt lat="45.83314" lon="4.70917">
        <ele>299.97879</ele>
        <time>2022-09-24T14:59:12.000Z</time>
      </trkpt>
      <trkpt lat="45.83311" lon="4.70918">
        <ele>300.13373</ele>
        <time>2022-09-24T14:59:14.000Z</time>
      </trkpt>
      <trkpt lat="45.83309" lon="4.70917">
        <ele>300.26294</ele>
        <time>2022-09-24T14:59:15.000Z</time>
      </trkpt>
      <trkpt lat="45.83307" lon="4.70915">
        <ele>300.3515</ele>
        <time>2022-09-24T14:59:16.000Z</time>
      </trkpt>
      <trkpt lat="45.83306" lon="4.70911">
        <ele>300.44632</ele>
        <time>2022-09-24T14:59:18.000Z</time>
      </trkpt>
      <trkpt lat="45.83305" lon="4.70907">
        <ele>300.48434</ele>
        <time>2022-09-24T14:59:20.000Z</time>
      </trkpt>
      <trkpt lat="45.83307" lon="4.70905">
        <ele>300.60846</ele>
        <time>2022-09-24T14:59:22.000Z</time>
      </trkpt>
      <trkpt lat="45.83309" lon="4.70907">
        <ele>300.5672</ele>
        <time>2022-09-24T14:59:24.000Z</time>
      </trkpt>
      <trkpt lat="45.8331" lon="4.7091">
        <ele>300.62228</ele>
        <time>2022-09-24T14:59:31.000Z</time>
      </trkpt>
      <trkpt lat="45.8331" lon="4.70912">
        <ele>300.63901</ele>
        <time>2022-09-24T14:59:35.000Z</time>
      </trkpt>
    </trkseg>
  </trk>
</gpx>